[[{"header":{"parameterUnit":"m.s-1","parameterCategory":1,"la1":31.0,"la2":29.5877,"lo1":-88.7671,"lo2":-86.6584,"dx":0.0162,"dy":0.0185,"nx":115,"ny":88,"refTime":"2022-12-05T18:00:00:Z","depth":0,"parameterNumber":2,"parameterNumberName":"U-component_of_WINDS"},"data":[0.0,0.0,0.0,0.0,0.0,0.0,0.0,0.0,0.0,0.0,0.0,0.0,0.0,0.0,0.0,0.0,0.0,0.0,0.0,0.0,0.0,0.0,0.0,0.0,0.0,0.0,0.0,0.0,0.0,0.0,0.0,0.0,0.0,0.0,0.0,0.0,0.0,0.0,0.0,0.0,0.0,0.0,0.0,0.0,0.0,0.0,0.0,0.0,0.0,0.0,0.0,0.0,0.0,0.0,0.0,0.0,0.0,0.0,0.0,0.0,0.0,0.0,0.0,0.0,0.0,0.0,0.0,0.0,0.0,0.0,0.0,0.0,0.0,0.0,0.0,0.0,0.0,0.0,0.0,0.0,0.0,0.0,0.0,0.0,0.0,0.0,0.0,0.0,0.0,0.0,0.0,0.0,0.0,0.0,0.0,0.0,0.0,0.0,0.0,0.0,0.0,0.0,0.0,0.0,0.0,0.0,0.0,0.0,0.0,0.0,0.0,0.0,0.0,0.0,0.0,0.0,0.0,0.0,0.0,0.0,0.0,0.0,0.0,0.0,0.0,0.0,0.0,0.0,0.0,0.0,0.0,0.0,0.0,0.0,0.0,0.0,0.0,0.0,0.0,0.0,0.0,0.0,0.0,0.0,0.0,0.0,0.0,0.0,0.0,0.0,0.0,0.0,0.0,0.0,0.0,0.0,0.0,0.0,0.0,0.0,0.0,0.0,0.0,0.0,0.0,0.0,0.0,0.0,0.0,0.0,0.0,0.0,0.0,0.0,0.0,0.0,0.0,0.0,0.0,0.0,0.0,0.0,0.0,0.0,0.0,0.0,0.0,0.0,0.0,0.0,0.0,0.0,0.0,0.0,0.0,0.0,0.0,0.0,0.0,0.0,0.0,0.0,0.0,0.0,0.0,0.0,0.0,0.0,0.0,0.0,0.0,0.0,0.0,0.0,0.0,0.0,0.0,0.0,0.0,0.0,0.0,0.0,0.0,0.0,0.0,0.0,0.0,0.0,0.0,0.0,0.0,0.0,0.0,0.0,0.0,0.0,0.0,0.0,0.0,0.0,0.0,0.0,0.0,0.0,0.0,0.0,0.0,0.0,0.0,0.0,0.0,0.0,0.0,0.0,0.0,0.0,0.0,0.0,0.0,0.0,0.0,0.0,0.0,0.0,0.0,0.0,0.0,0.0,0.0,0.0,0.0,0.0,0.0,0.0,0.0,0.0,0.0,0.0,0.0,0.0,0.0,0.0,0.0,0.0,0.0,0.0,0.0,0.0,0.0,0.0,0.0,0.0,0.0,0.0,0.0,0.0,0.0,0.0,0.0,0.0,0.0,0.0,0.0,0.0,0.0,0.0,0.0,0.0,0.0,0.0,0.0,0.0,0.0,0.0,0.0,0.0,0.0,0.0,0.0,0.0,0.0,0.0,0.0,0.0,0.0,0.0,0.0,0.0,0.0,0.0,0.0,0.0,0.0,0.0,0.0,0.0,0.0,0.0,0.0,0.0,0.0,0.0,0.0,0.0,0.0,0.0,0.0,0.0,0.0,0.0,0.0,0.0,0.0,0.0,0.0,0.0,0.0,0.0,0.0,0.0,0.0,0.0,0.0,0.0,0.0,0.0,0.0,0.0,0.0,0.0,0.0,0.0,0.0,0.0,0.0,0.0,0.0,0.0,0.0,0.0,0.0,0.0,0.0,0.0,0.0,0.0,0.0,0.0,0.0,0.0,0.0,0.0,0.0,0.0,0.0,0.0,0.0,0.0,0.0,0.0,0.0,0.0,0.0,0.0,0.0,0.0,0.0,0.0,0.0,0.0,0.0,0.0,0.0,0.0,0.0,0.0,0.0,0.0,0.0,0.0,0.0,0.0,0.0,0.0,0.0,0.0,0.0,0.0,0.0,0.0,0.0,0.0,0.0,0.0,0.0,0.0,0.0,0.0,0.0,0.0,0.0,0.0,0.0,0.0,0.0,0.0,0.0,0.0,0.0,0.0,0.0,0.0,0.0,0.0,0.0,0.0,0.0,0.0,0.0,0.0,0.0,0.0,0.0,0.0,0.0,0.0,0.0,0.0,0.0,0.0,0.0,0.0,0.0,0.0,0.0,0.0,0.0,0.0,0.0,0.0,0.0,0.0,0.0,0.0,0.0,0.0,0.0,0.0,0.0,0.0,0.0,0.0,0.0,0.0,0.0,0.0,0.0,0.0,0.0,0.0,0.0,0.0,0.0,0.0,0.0,0.0,0.0,0.0,0.0,0.0,0.0,0.0,0.0,0.0,0.0,0.0,0.0,0.0,0.0,0.0,0.0,0.0,0.0,0.0,0.0,0.0,0.0,0.0,0.0,0.0,0.0,0.0,0.0,0.0,0.0,0.0,0.0,0.0,0.0,0.0,0.0,0.0,0.0,0.0,0.0,0.0,0.0,0.0,0.0,0.0,0.0,0.0,0.0,0.0,0.0,0.0,0.0,0.0,0.0,0.0,0.0,0.0,0.0,0.0,0.0,0.0,0.0,0.0,0.0,0.0,0.0,0.0,0.0,0.0,0.0,0.0,0.0,0.0,0.0,0.0,0.0,0.0,0.0,0.0,0.0,0.0,0.0,0.0,0.0,0.0,0.0,0.0,0.0,0.0,0.0,0.0,0.0,0.0,0.0,0.0,0.0,0.0,0.0,0.0,0.0,0.0,0.0,0.0,0.0,0.0,0.0,0.0,0.0,0.0,0.0,0.0,0.0,0.0,0.0,0.0,0.0,0.0,0.0,0.0,0.0,0.0,0.0,0.0,0.0,0.0,0.0,0.0,0.0,0.0,0.0,0.0,0.0,0.0,0.0,0.0,0.0,0.0,0.0,0.0,0.0,0.0,0.0,0.0,0.0,0.0,0.0,0.0,0.0,0.0,0.0,0.0,0.0,0.0,0.0,0.0,0.0,0.0,0.0,0.0,0.0,0.0,0.0,0.0,0.0,0.0,0.0,0.0,0.0,0.0,0.0,0.0,0.0,0.0,0.0,0.0,0.0,0.0,0.0,0.0,0.0,0.0,0.0,0.0,0.0,0.0,0.0,0.0,0.0,0.0,0.0,0.0,0.0,0.0,0.0,0.0,0.0,0.0,0.0,0.0,0.0,0.0,0.0,0.0,0.0,0.0,0.0,0.0,0.0,0.0,0.0,0.0,0.0,0.0,0.0,0.0,0.0,0.0,0.0,0.0,0.0,0.0,0.0,0.0,0.0,0.0,0.0,0.0,0.0,0.0,0.0,0.0,0.0,0.0,0.0,0.0,0.0,0.0,0.0,0.0,0.0,0.0,0.0,0.0,0.0,0.0,0.0,0.0,0.0,0.0,0.0,0.0,0.0,0.0,0.0,0.0,0.0,0.0,0.0,0.0,0.0,0.0,0.0,0.0,0.0,0.0,0.0,0.0,0.0,0.0,0.0,0.0,0.0,0.0,0.0,0.0,0.0,0.0,0.0,0.0,0.0,0.0,0.0,0.0,0.0,0.0,0.0,0.0,0.0,0.0,0.0,0.0,0.0,0.0,0.0,0.0,0.0,0.0,0.0,0.0,0.0,0.0,0.0,0.0,0.0,0.0,0.0,0.0,0.0,0.0,0.0,0.0,0.0,0.0,0.0,0.0,0.0,0.0,0.0,0.0,0.0,0.0,0.0,0.0,0.0,0.0,0.0,0.0,0.0,0.0,0.0,0.0,0.0,0.0,0.0,0.0,0.0,0.0,0.0,0.0,0.0,0.0,0.0,0.0,0.0,0.0,0.0,0.0,0.0,0.0,0.0,0.0,0.0,0.0,0.0,0.0,0.0,0.0,0.0,0.0,0.0,0.0,0.0,0.0,0.0,0.0,0.0,0.0,0.0,0.0,0.0,0.0,0.0,0.0,0.0,0.0,0.0,0.0,0.0,0.0,0.0,0.0,0.0,0.0,0.0,0.0,0.0,0.0,0.0,0.0,0.0,0.0,0.0,0.0,0.0,0.0,0.0,0.0,0.0,0.0,0.0,0.0,0.0,0.0,0.0,0.0,0.0,0.0,0.0,0.0,0.0,0.0,0.0,0.0,0.0,0.0,0.0,0.0,0.0,0.0,0.0,0.0,0.0,0.0,0.0,0.0,0.0,0.0,0.0,0.0,0.0,0.0,0.0,0.0,0.0,0.0,0.0,0.0,0.0,0.0,0.0,0.0,0.0,0.0,0.0,0.0,0.0,0.0,0.0,0.0,0.0,0.0,0.0,0.0,0.0,0.0,0.0,0.0,1.4438,0.0,0.0,0.0,1.5291,0.0,0.0,0.0,0.0,0.0,0.0,0.0,0.0,0.0,0.0,0.0,0.0,0.0,0.0,0.0,0.0,0.0,0.0,0.0,0.0,0.0,0.0,0.0,0.0,0.0,0.0,0.0,0.0,0.0,0.0,0.0,0.0,0.0,0.0,0.0,0.0,0.0,0.0,0.0,0.0,0.0,0.0,0.0,0.0,0.0,0.0,0.0,0.0,0.0,0.0,0.0,0.0,0.0,0.0,0.0,0.0,0.0,0.0,0.0,0.0,0.0,0.0,0.0,0.0,0.0,0.0,0.0,0.0,0.0,0.0,0.0,0.0,0.0,0.0,0.0,0.0,0.0,0.0,0.0,0.0,0.0,0.0,0.0,0.0,0.0,0.0,0.0,0.0,0.0,0.0,0.0,0.0,0.0,0.0,0.0,0.0,0.0,0.0,0.0,0.0,0.0,0.0,0.0,0.0,0.0,0.0,0.0,0.0,0.0,0.0,1.5101,1.588,1.5898,1.5702,1.5309,0.0,0.0,0.0,0.0,0.0,0.0,0.0,0.0,0.0,0.0,0.0,0.0,0.0,0.0,0.0,0.0,0.0,0.0,0.0,0.0,0.0,0.0,0.0,0.0,0.0,0.0,0.0,0.0,0.0,0.0,0.0,0.0,0.0,0.0,0.0,0.0,0.0,0.0,0.0,0.0,0.0,0.0,0.0,0.0,0.0,0.0,0.0,0.0,0.0,0.0,0.0,0.0,0.0,0.0,0.0,0.0,0.0,0.0,0.0,0.0,0.0,0.0,0.0,0.0,0.0,0.0,0.0,0.0,0.0,0.0,0.0,0.0,0.0,0.0,0.0,0.0,0.0,0.0,0.0,0.0,0.0,0.0,0.0,0.0,0.0,0.0,0.0,0.0,0.0,0.0,0.0,0.0,0.0,0.0,0.0,0.0,0.0,0.0,0.0,0.0,0.0,0.0,0.0,0.0,0.0,0.0,0.0,0.0,0.0,0.0,0.0,0.0,1.638,1.6041,1.5309,0.0,0.0,0.0,0.0,0.0,0.0,0.0,0.0,0.0,0.0,0.0,0.0,0.0,0.0,0.0,0.0,0.0,0.0,0.0,0.0,0.0,0.0,0.0,0.0,0.0,0.0,0.0,0.0,0.0,0.0,0.0,0.0,0.0,0.0,0.0,0.0,0.0,0.0,0.0,0.0,0.0,0.0,0.0,0.0,0.0,0.0,0.0,0.0,0.0,0.0,0.0,0.0,0.0,0.0,0.0,0.0,0.0,0.0,0.0,0.0,0.0,0.0,0.0,0.0,0.0,0.0,0.0,0.0,0.0,0.0,0.0,0.0,0.0,0.0,0.0,0.0,0.0,0.0,0.0,0.0,0.0,0.0,0.0,0.0,0.0,0.0,0.0,0.0,0.0,0.0,0.0,0.0,0.0,0.0,0.0,0.0,0.0,0.0,0.0,0.0,0.0,0.0,0.0,0.0,0.0,0.0,0.0,0.0,0.0,0.0,1.6336,1.6397,1.6397,0.0,1.5363,0.0,0.0,0.0,0.0,0.0,0.0,0.0,0.0,0.0,0.0,0.0,0.0,0.0,0.0,0.0,0.0,0.0,0.0,0.0,0.0,0.0,0.0,0.0,0.0,0.0,0.0,0.0,0.0,0.0,0.0,0.0,0.0,0.0,0.0,0.0,0.0,0.0,0.0,0.0,0.0,0.0,0.0,0.0,0.0,0.0,0.0,0.0,0.0,0.0,0.0,0.0,0.0,0.0,0.0,0.0,0.0,0.0,0.0,0.0,0.0,0.0,0.0,0.0,0.0,0.0,0.0,0.0,0.0,0.0,0.0,0.0,0.0,0.0,0.0,0.0,0.0,0.0,0.0,0.0,0.0,0.0,0.0,0.0,0.0,0.0,0.0,0.0,0.0,0.0,0.0,0.0,0.0,0.0,0.0,0.0,0.0,0.0,0.0,0.0,0.0,0.0,0.0,0.0,0.0,0.0,0.0,0.0,0.0,0.0,0.0,1.7396,1.7857,1.7411,1.7019,0.0,0.0,0.0,0.0,0.0,0.0,0.0,0.0,0.0,0.0,0.0,0.0,0.0,0.0,0.0,0.0,0.0,0.0,0.0,0.0,0.0,0.0,0.0,0.0,0.0,0.0,0.0,0.0,0.0,0.0,0.0,0.0,0.0,0.0,0.0,0.0,0.0,0.0,0.0,0.0,0.0,0.0,0.0,0.0,0.0,0.0,0.0,0.0,0.0,0.0,0.0,0.0,0.0,0.0,0.0,0.0,0.0,0.0,0.0,0.0,0.0,0.0,0.0,0.0,0.0,0.0,0.0,0.0,0.0,0.0,0.0,0.0,0.0,0.0,0.0,0.0,0.0,0.0,0.0,0.0,0.0,0.0,0.0,0.0,0.0,0.0,0.0,0.0,0.0,0.0,0.0,0.0,0.0,0.0,0.0,0.0,0.0,0.0,0.0,0.0,0.0,0.0,0.0,0.0,0.0,0.0,0.0,0.0,0.0,0.0,1.7945,1.8339,1.8859,1.834,1.7894,1.7628,0.0,0.0,0.0,0.0,0.0,0.0,0.0,0.0,0.0,0.0,0.0,0.0,0.0,0.0,0.0,0.0,0.0,0.0,0.0,0.0,0.0,0.0,0.0,0.0,0.0,0.0,0.0,0.0,0.0,0.0,0.0,0.0,0.0,0.0,0.0,0.0,0.0,0.0,0.0,0.0,0.0,0.0,0.0,0.0,0.0,0.0,0.0,0.0,0.0,0.0,0.0,0.0,0.0,0.0,0.0,0.0,0.0,0.0,0.0,0.0,0.0,0.0,0.0,0.0,0.0,0.0,0.0,0.0,0.0,0.0,0.0,0.0,0.0,0.0,0.0,0.0,0.0,0.0,0.0,0.0,0.0,0.0,0.0,0.0,0.0,0.0,0.0,0.0,0.0,0.0,0.0,0.0,0.0,0.0,0.0,0.0,0.0,0.0,0.0,0.0,0.0,0.0,0.0,0.0,0.0,0.0,0.0,0.0,1.7844,1.855,1.8948,1.8984,1.8896,1.8484,0.0,0.0,0.0,0.0,0.0,0.0,0.0,0.0,0.0,0.0,0.0,0.0,0.0,0.0,0.0,0.0,0.0,0.0,0.0,0.0,0.0,0.0,0.0,0.0,0.0,0.0,0.0,0.0,0.0,0.0,0.0,0.0,0.0,0.0,0.0,0.0,0.0,0.0,0.0,0.0,0.0,0.0,0.0,0.0,0.0,0.0,0.0,0.0,0.0,0.0,0.0,0.0,0.0,0.0,0.0,0.0,0.0,0.0,0.0,0.0,0.0,0.0,0.0,0.0,0.0,0.0,0.0,0.0,0.0,0.0,0.0,0.0,0.0,0.0,0.0,0.0,0.0,0.0,0.0,0.0,0.0,0.0,0.0,0.0,0.0,0.0,0.0,0.0,0.0,0.0,0.0,0.0,0.0,0.0,0.0,0.0,0.0,0.0,0.0,0.0,0.0,0.0,0.0,0.0,0.0,0.0,0.0,0.0,0.0,1.8634,1.8957,1.912,1.9052,1.9036,1.8858,0.0,0.0,0.0,0.0,0.0,0.0,0.0,0.0,0.0,0.0,0.0,0.0,0.0,0.0,0.0,0.0,0.0,0.0,0.0,0.0,0.0,0.0,0.0,0.0,0.0,0.0,0.0,0.0,0.0,0.0,0.0,0.0,0.0,0.0,0.0,0.0,0.0,0.0,0.0,0.0,0.0,0.0,0.0,0.0,0.0,0.0,0.0,0.0,0.0,0.0,0.0,0.0,0.0,0.0,0.0,0.0,0.0,0.0,0.0,0.0,0.0,0.0,0.0,0.0,0.0,0.0,0.0,0.0,0.0,0.0,0.0,0.0,0.0,0.0,0.0,0.0,0.0,0.0,0.0,0.0,0.0,0.0,0.0,0.0,0.0,0.0,0.0,0.0,0.0,0.0,0.0,0.0,0.0,0.0,0.0,0.0,0.0,0.0,0.0,0.0,0.0,0.0,0.0,0.0,0.0,0.0,0.0,0.0,0.0,1.955,1.989,2.0018,1.9969,1.968,1.945,0.0,0.0,0.0,0.0,0.0,0.0,0.0,0.0,0.0,0.0,0.0,0.0,0.0,0.0,0.0,0.0,0.0,0.0,0.0,0.0,0.0,0.0,0.0,0.0,0.0,0.0,0.0,0.0,0.0,0.0,0.0,0.0,0.0,0.0,0.0,0.0,0.0,0.0,0.0,0.0,0.0,0.0,0.0,0.0,0.0,0.0,0.0,0.0,0.0,0.0,0.0,0.0,0.0,0.0,0.0,0.0,0.0,0.0,0.0,0.0,0.0,0.0,0.0,0.0,0.0,0.0,0.0,0.0,0.0,0.0,0.0,0.0,0.0,0.0,0.0,0.0,0.0,0.0,0.0,0.0,0.0,0.0,0.0,0.0,0.0,0.0,0.0,0.0,0.0,0.0,0.0,0.0,0.0,0.0,0.0,0.0,0.0,0.0,0.0,0.0,0.0,0.0,0.0,0.0,0.0,0.0,0.0,0.0,1.9658,2.059,2.1395,2.1745,2.1749,2.0913,2.0371,0.0,0.0,0.0,0.0,0.0,0.0,0.0,0.0,0.0,0.0,0.0,0.0,0.0,0.0,0.0,0.0,0.0,0.0,0.0,0.0,0.0,0.0,0.0,0.0,0.0,0.0,0.0,0.0,0.0,0.0,0.0,0.0,0.0,0.0,0.0,0.0,0.0,0.0,0.0,0.0,0.0,0.0,0.0,0.0,0.0,0.0,0.0,0.0,0.0,0.0,0.0,0.0,0.0,0.0,0.0,0.0,0.0,0.0,0.0,0.0,0.0,0.0,0.0,0.0,0.0,0.0,0.0,0.0,0.0,0.0,0.0,0.0,0.0,0.0,0.0,0.0,0.0,0.0,0.0,0.0,0.0,0.0,0.0,0.0,0.0,0.0,0.0,0.0,0.0,0.0,0.0,0.0,0.0,0.0,0.0,0.0,0.0,0.0,0.0,0.0,0.0,0.0,0.0,0.0,0.0,0.0,0.0,0.0,0.0,2.2259,2.2533,2.2663,2.2611,2.2301,2.1516,0.0,0.0,0.0,0.0,0.0,0.0,0.0,0.0,0.0,0.0,0.0,0.0,0.0,0.0,0.0,0.0,0.0,0.0,0.0,0.0,0.0,0.0,0.0,0.0,0.0,0.0,0.0,0.0,0.0,0.0,0.0,0.0,0.0,0.0,0.0,0.0,0.0,0.0,0.0,0.0,0.0,0.0,0.0,0.0,0.0,0.0,0.0,0.0,0.0,0.0,0.0,0.0,0.0,0.0,0.0,0.0,0.0,0.0,0.0,0.0,0.0,0.0,0.0,0.0,0.0,0.0,0.0,0.0,0.0,0.0,0.0,0.0,0.0,0.0,0.0,0.0,0.0,0.0,0.0,0.0,0.0,0.0,0.0,0.0,0.0,0.0,0.0,0.0,0.0,0.0,0.0,0.0,0.0,0.0,0.0,0.0,0.0,0.0,0.0,0.0,0.0,0.0,0.0,0.0,0.0,0.0,0.0,0.0,0.0,2.5703,2.556,2.5412,2.5316,2.4631,2.3288,2.1224,0.0,0.0,0.0,0.0,0.0,0.0,0.0,0.0,0.0,0.0,0.0,0.0,0.0,0.0,0.0,0.0,0.0,0.0,0.0,0.0,0.0,0.0,0.0,0.0,0.0,0.0,0.0,0.0,0.0,0.0,0.0,0.0,0.0,0.0,0.0,0.0,0.0,0.0,0.0,0.0,0.0,0.0,0.0,0.0,0.0,0.0,0.0,0.0,0.0,0.0,0.0,0.0,0.0,0.0,0.0,0.0,0.0,0.0,0.0,0.0,0.0,0.0,0.0,0.0,0.0,0.0,0.0,0.0,0.0,0.0,0.0,0.0,0.0,0.0,0.0,0.0,0.0,0.0,0.0,0.0,0.0,0.0,0.0,0.0,0.0,0.0,0.0,0.0,0.0,0.0,0.0,0.0,0.0,0.0,0.0,0.0,0.0,0.0,0.0,0.0,0.0,0.0,0.0,0.0,0.0,0.0,0.0,0.0,3.0452,3.0043,2.9641,2.9274,2.7675,2.5544,0.0,0.0,0.0,0.0,0.0,0.0,0.0,0.0,0.0,0.0,0.0,0.0,0.0,0.0,0.0,0.0,0.0,0.0,0.0,0.0,0.0,0.0,0.0,0.0,0.0,0.0,0.0,0.0,0.0,0.0,0.0,0.0,0.0,0.0,0.0,0.0,0.0,0.0,0.0,0.0,0.0,0.0,0.0,0.0,0.0,0.0,0.0,0.0,0.0,0.0,0.0,0.0,0.0,0.0,0.0,0.0,0.0,0.0,0.0,0.0,0.0,0.0,0.0,0.0,0.0,0.0,0.0,0.0,0.0,0.0,0.0,0.0,0.0,0.0,0.0,0.0,0.0,0.0,0.0,0.0,0.0,0.0,0.0,0.0,0.0,0.0,0.0,0.0,0.0,0.0,0.0,0.0,0.0,0.0,0.0,0.0,0.0,0.0,0.0,0.0,0.0,0.0,0.0,0.0,0.0,0.0,0.0,0.0,0.0,3.2907,3.3983,3.3389,3.1135,2.989,2.7783,0.0,0.0,0.0,0.0,0.0,0.0,0.0,0.0,0.0,0.0,0.0,0.0,0.0,0.0,0.0,0.0,0.0,0.0,0.0,0.0,0.0,0.0,0.0,0.0,0.0,0.0,0.0,0.0,0.0,0.0,0.0,0.0,0.0,0.0,0.0,0.0,0.0,0.0,0.0,0.0,0.0,0.0,0.0,0.0,0.0,0.0,0.0,0.0,0.0,0.0,0.0,0.0,0.0,0.0,0.0,0.0,0.0,0.0,0.0,0.0,0.0,0.0,0.0,0.0,0.0,0.0,0.0,0.0,0.0,0.0,0.0,0.0,0.0,0.0,0.0,0.0,0.0,0.0,0.0,0.0,0.0,0.0,0.0,0.0,0.0,0.0,0.0,0.0,0.0,0.0,0.0,0.0,0.0,0.0,0.0,0.0,0.0,0.0,0.0,0.0,0.0,0.0,0.0,0.0,0.0,0.0,0.0,0.0,3.1689,3.441,3.6067,3.6075,3.4303,3.2305,2.9672,0.0,0.0,0.0,0.0,0.0,0.0,0.0,0.0,0.0,0.0,0.0,0.0,0.0,0.0,0.0,0.0,0.0,0.0,0.0,0.0,0.0,0.0,0.0,0.0,0.0,0.0,0.0,0.0,0.0,0.0,0.0,0.0,0.0,0.0,0.0,0.0,0.0,0.0,0.0,0.0,0.0,0.0,0.0,0.0,0.0,0.0,0.0,0.0,0.0,0.0,0.0,0.0,0.0,0.0,0.0,0.0,0.0,0.0,0.0,0.0,0.0,0.0,0.0,0.0,0.0,0.0,0.0,0.0,0.0,0.0,0.0,0.0,0.0,0.0,0.0,0.0,0.0,0.0,0.0,0.0,0.0,0.0,0.0,0.0,0.0,0.0,0.0,0.0,0.0,0.0,0.0,0.0,0.0,0.0,0.0,0.0,0.0,0.0,0.0,0.0,0.0,0.0,0.0,0.0,0.0,0.0,0.0,0.0,3.282,3.5441,3.7036,3.7877,3.7831,3.4684,3.1384,0.0,0.0,0.0,0.0,0.0,0.0,0.0,0.0,0.0,0.0,0.0,0.0,0.0,0.0,0.0,0.0,0.0,0.0,0.0,0.0,0.0,0.0,0.0,0.0,0.0,0.0,0.0,0.0,0.0,0.0,0.0,0.0,0.0,0.0,0.0,0.0,0.0,0.0,0.0,0.0,0.0,0.0,0.0,0.0,0.0,0.0,0.0,0.0,0.0,0.0,0.0,0.0,0.0,0.0,0.0,0.0,0.0,0.0,0.0,0.0,0.0,0.0,0.0,0.0,0.0,0.0,0.0,0.0,0.0,0.0,0.0,0.0,0.0,0.0,0.0,0.0,0.0,0.0,0.0,0.0,0.0,0.0,0.0,0.0,0.0,0.0,0.0,0.0,0.0,0.0,0.0,0.0,0.0,0.0,0.0,0.0,0.0,0.0,0.0,0.0,0.0,0.0,0.0,0.0,0.0,0.0,0.0,0.0,3.5024,3.7856,3.8212,3.8437,3.8652,3.6076,3.3338,0.0,0.0,0.0,0.0,0.0,0.0,0.0,0.0,0.0,0.0,0.0,0.0,0.0,0.0,0.0,0.0,0.0,0.0,0.0,0.0,0.0,0.0,0.0,0.0,0.0,0.0,0.0,0.0,0.0,0.0,0.0,0.0,0.0,0.0,0.0,0.0,0.0,0.0,0.0,0.0,0.0,0.0,0.0,0.0,0.0,0.0,0.0,0.0,1.9971,0.0,0.0,0.0,0.0,0.0,0.0,0.0,0.0,0.0,0.0,0.0,0.0,0.0,0.0,0.0,0.0,0.0,0.0,0.0,0.0,0.0,0.0,0.0,0.0,0.0,0.0,0.0,0.0,0.0,0.0,0.0,0.0,0.0,0.0,0.0,0.0,0.0,0.0,0.0,0.0,0.0,0.0,0.0,0.0,0.0,0.0,0.0,0.0,0.0,0.0,0.0,0.0,0.0,0.0,0.0,0.0,0.0,0.0,0.0,3.5817,3.856,3.8652,3.8695,3.8796,3.7229,3.4899,0.0,0.0,0.0,0.0,0.0,0.0,0.0,0.0,0.0,0.0,0.0,0.0,0.0,0.0,0.0,0.0,0.0,0.0,0.0,0.0,0.0,0.0,0.0,0.0,0.0,0.0,0.0,0.0,0.0,0.0,0.0,0.0,0.0,0.0,0.0,0.0,0.0,0.0,0.0,0.0,0.0,0.0,0.0,0.0,0.0,0.0,0.0,0.0,0.0,0.0,0.0,0.0,0.0,0.0,0.0,0.0,0.0,0.0,0.0,0.0,0.0,0.0,0.0,0.0,0.0,0.0,0.0,0.0,0.0,0.0,0.0,0.0,0.0,0.0,0.0,0.0,0.0,0.0,0.0,0.0,0.0,0.0,0.0,0.0,0.0,0.0,0.0,0.0,0.0,0.0,0.0,0.0,0.0,0.0,0.0,0.0,0.0,0.0,0.0,0.0,0.0,0.0,0.0,0.0,0.0,0.0,0.0,3.3894,3.6206,3.9012,3.8934,3.8865,3.8958,3.8044,3.6009,3.2666,0.0,0.0,0.0,0.0,0.0,0.0,0.0,0.0,0.0,0.0,0.0,0.0,0.0,0.0,0.0,0.0,0.0,0.0,0.0,0.0,0.0,0.0,0.0,0.0,0.0,0.0,0.0,0.0,0.0,0.0,0.0,0.0,0.0,0.0,0.0,0.0,0.0,0.0,1.7896,1.9324,0.0,0.0,0.0,0.0,0.0,0.0,0.0,0.0,2.3729,0.0,0.0,0.0,0.0,0.0,0.0,0.0,0.0,0.0,0.0,0.0,0.0,0.0,0.0,0.0,0.0,0.0,0.0,0.0,0.0,0.0,0.0,0.0,0.0,0.0,0.0,0.0,0.0,0.0,0.0,0.0,0.0,0.0,0.0,0.0,0.0,0.0,0.0,0.0,0.0,0.0,0.0,0.0,0.0,0.0,0.0,0.0,0.0,0.0,0.0,0.0,0.0,0.0,0.0,0.0,0.0,3.3413,3.4839,3.7341,4.0998,3.9538,3.905,3.9638,3.8236,3.612,3.3281,0.0,0.0,0.0,0.0,0.0,0.0,0.0,0.0,0.0,0.0,0.0,0.0,0.0,0.0,0.0,0.0,0.0,0.0,0.0,0.0,0.0,0.0,0.0,0.0,0.0,0.0,0.0,0.0,0.0,0.0,0.0,0.0,0.0,0.0,0.0,0.0,0.0,0.0,0.0,2.1164,2.2334,0.0,0.0,0.0,0.0,0.0,0.0,0.0,0.0,2.544,0.0,0.0,0.0,0.0,0.0,0.0,0.0,0.0,0.0,0.0,0.0,0.0,0.0,0.0,0.0,0.0,0.0,0.0,0.0,0.0,0.0,0.0,0.0,0.0,0.0,0.0,0.0,0.0,0.0,0.0,0.0,0.0,0.0,0.0,0.0,0.0,0.0,0.0,0.0,0.0,0.0,0.0,0.0,0.0,0.0,0.0,0.0,0.0,0.0,0.0,0.0,0.0,0.0,0.0,0.0,3.411,3.5365,3.765,4.1061,3.9175,3.8448,3.9171,3.7739,3.572,0.0,0.0,0.0,0.0,0.0,0.0,0.0,0.0,0.0,0.0,0.0,0.0,0.0,0.0,0.0,0.0,0.0,0.0,0.0,0.0,0.0,0.0,0.0,0.0,0.0,0.0,0.0,0.0,0.0,0.0,0.0,0.0,0.0,0.0,0.0,0.0,0.0,0.0,0.0,0.0,2.3076,2.4766,2.6465,0.0,0.0,0.0,0.0,0.0,0.0,2.8626,2.7556,0.0,0.0,0.0,0.0,0.0,0.0,0.0,0.0,0.0,0.0,0.0,0.0,0.0,0.0,0.0,0.0,0.0,0.0,0.0,0.0,0.0,0.0,0.0,0.0,0.0,0.0,0.0,0.0,0.0,0.0,0.0,0.0,0.0,0.0,0.0,0.0,0.0,0.0,0.0,0.0,0.0,0.0,0.0,0.0,0.0,0.0,0.0,0.0,0.0,0.0,0.0,0.0,0.0,0.0,0.0,3.4761,3.5825,3.7848,4.0824,3.877,3.7951,3.877,3.7131,3.5095,0.0,0.0,0.0,0.0,0.0,0.0,0.0,0.0,0.0,0.0,0.0,0.0,0.0,0.0,0.0,0.0,0.0,0.0,0.0,0.0,0.0,0.0,0.0,0.0,0.0,0.0,0.0,0.0,0.0,0.0,0.0,0.0,0.0,0.0,0.0,0.0,0.0,0.0,0.0,0.0,0.0,2.6852,2.8284,2.8611,0.0,0.0,0.0,0.0,3.0784,3.0417,0.0,0.0,0.0,0.0,0.0,0.0,0.0,0.0,0.0,0.0,0.0,0.0,0.0,0.0,0.0,0.0,0.0,0.0,0.0,0.0,0.0,0.0,0.0,0.0,0.0,0.0,0.0,0.0,0.0,0.0,0.0,0.0,0.0,0.0,0.0,0.0,0.0,0.0,0.0,0.0,0.0,0.0,0.0,0.0,0.0,0.0,0.0,0.0,0.0,0.0,0.0,0.0,0.0,0.0,0.0,0.0,3.5104,3.6387,3.8408,4.1165,3.8883,3.8219,3.9629,3.6791,3.4355,0.0,0.0,0.0,0.0,0.0,0.0,0.0,0.0,0.0,0.0,0.0,0.0,0.0,0.0,0.0,0.0,0.0,0.0,0.0,0.0,0.0,0.0,0.0,0.0,0.0,0.0,0.0,0.0,0.0,0.0,0.0,0.0,0.0,0.0,0.0,0.0,0.0,0.0,0.0,0.0,0.0,2.7504,2.9659,2.9848,2.9816,0.0,0.0,3.2003,3.2364,3.2235,0.0,0.0,0.0,0.0,0.0,0.0,0.0,0.0,0.0,0.0,0.0,0.0,0.0,0.0,0.0,0.0,0.0,0.0,0.0,0.0,0.0,0.0,0.0,0.0,0.0,0.0,0.0,0.0,0.0,0.0,0.0,0.0,0.0,0.0,0.0,0.0,0.0,0.0,0.0,0.0,0.0,0.0,0.0,0.0,0.0,0.0,0.0,0.0,0.0,0.0,0.0,0.0,0.0,0.0,0.0,3.1908,3.5134,3.6602,3.8581,4.0972,3.8744,3.8047,3.9115,3.6558,3.4456,0.0,0.0,0.0,0.0,0.0,0.0,0.0,0.0,0.0,0.0,0.0,0.0,0.0,0.0,0.0,0.0,0.0,0.0,0.0,0.0,0.0,0.0,0.0,0.0,0.0,0.0,0.0,0.0,0.0,0.0,0.0,0.0,0.0,0.0,0.0,0.0,0.0,0.0,0.0,0.0,0.0,0.0,2.9831,3.0696,0.0,0.0,0.0,3.2774,3.3623,0.0,0.0,0.0,0.0,0.0,0.0,0.0,0.0,0.0,0.0,0.0,0.0,0.0,0.0,0.0,0.0,0.0,0.0,0.0,0.0,0.0,0.0,0.0,0.0,0.0,0.0,0.0,0.0,0.0,0.0,0.0,0.0,0.0,0.0,0.0,0.0,0.0,0.0,0.0,0.0,0.0,0.0,0.0,0.0,0.0,0.0,0.0,0.0,0.0,0.0,0.0,0.0,0.0,0.0,0.0,0.0,0.0,3.5421,3.7189,3.9002,4.075,3.887,3.8043,3.8525,3.6817,0.0,0.0,0.0,0.0,0.0,0.0,0.0,0.0,0.0,0.0,0.0,0.0,0.0,0.0,0.0,0.0,0.0,0.0,0.0,0.0,0.0,0.0,0.0,0.0,0.0,0.0,0.0,1.6038,0.0,0.0,0.0,0.0,0.0,0.0,0.0,0.0,0.0,0.0,0.0,0.0,0.0,0.0,2.9454,3.0063,3.1558,3.2568,0.0,0.0,3.3702,3.4717,3.459,3.3845,0.0,0.0,0.0,0.0,0.0,0.0,0.0,0.0,0.0,0.0,0.0,0.0,0.0,0.0,0.0,0.0,0.0,0.0,0.0,0.0,0.0,0.0,0.0,0.0,0.0,0.0,0.0,0.0,0.0,0.0,0.0,0.0,0.0,0.0,0.0,0.0,0.0,0.0,0.0,0.0,0.0,0.0,0.0,0.0,0.0,0.0,0.0,0.0,0.0,0.0,0.0,0.0,0.0,0.0,3.3904,3.6197,3.8397,3.9968,4.0802,3.9348,3.8556,3.8577,3.7793,3.598,0.0,0.0,0.0,0.0,0.0,0.0,0.0,0.0,0.0,0.0,0.0,0.0,0.0,0.0,0.0,0.0,0.0,0.0,0.0,0.0,0.0,0.0,0.0,0.0,0.0,0.0,0.0,0.0,0.0,0.0,0.0,0.0,0.0,0.0,0.0,0.0,0.0,0.0,0.0,0.0,0.0,2.9998,3.0935,3.2619,3.3795,0.0,3.462,3.5229,3.5506,3.56,3.5182,3.379,0.0,0.0,0.0,0.0,0.0,0.0,0.0,0.0,0.0,0.0,0.0,0.0,0.0,0.0,0.0,0.0,0.0,0.0,0.0,0.0,0.0,0.0,0.0,0.0,0.0,0.0,0.0,0.0,0.0,0.0,0.0,0.0,0.0,0.0,0.0,0.0,0.0,0.0,0.0,0.0,0.0,0.0,0.0,0.0,0.0,0.0,0.0,0.0,0.0,0.0,0.0,0.0,0.0,3.4766,3.7008,3.9278,4.0814,4.1457,4.006,3.9508,3.9991,3.8801,3.7163,0.0,0.0,0.0,0.0,0.0,0.0,0.0,0.0,0.0,0.0,0.0,0.0,0.0,0.0,0.0,0.0,0.0,0.0,0.0,0.0,0.0,0.0,0.0,0.0,0.0,0.0,0.0,0.0,2.6782,2.7615,2.713,0.0,0.0,0.0,0.0,0.0,0.0,0.0,0.0,0.0,0.0,3.0258,3.1867,3.3045,0.0,0.0,3.4851,3.5408,3.602,3.6197,3.5975,3.5004,3.375,0.0,0.0,0.0,0.0,0.0,0.0,0.0,0.0,0.0,0.0,0.0,0.0,0.0,0.0,0.0,0.0,0.0,0.0,0.0,0.0,0.0,0.0,0.0,0.0,0.0,0.0,0.0,0.0,0.0,0.0,0.0,0.0,0.0,0.0,0.0,0.0,0.0,0.0,0.0,0.0,0.0,0.0,0.0,0.0,0.0,0.0,0.0,0.0,0.0,0.0,0.0,0.0,3.5663,3.7491,3.9934,4.1453,4.1957,4.0737,4.0324,4.0819,3.9612,3.8215,0.0,0.0,0.0,0.0,0.0,0.0,0.0,0.0,0.0,0.0,0.0,0.0,0.0,0.0,0.0,0.0,0.0,0.0,0.0,0.0,0.0,0.0,0.0,0.0,0.0,0.0,0.0,0.0,2.8914,2.9242,2.7822,0.0,0.0,0.0,0.0,0.0,0.0,0.0,0.0,0.0,0.0,3.142,3.2866,3.3758,3.4503,3.4969,3.5294,3.5776,3.6495,3.6663,3.6556,3.6213,0.0,0.0,0.0,0.0,0.0,0.0,0.0,0.0,0.0,0.0,0.0,0.0,0.0,0.0,0.0,0.0,0.0,0.0,0.0,0.0,0.0,0.0,0.0,0.0,0.0,0.0,0.0,2.4735,0.0,0.0,2.7651,0.0,0.0,0.0,0.0,0.0,0.0,0.0,0.0,0.0,0.0,0.0,0.0,0.0,0.0,0.0,0.0,0.0,0.0,0.0,0.0,0.0,0.0,3.6646,3.7508,4.047,4.2012,4.1992,4.1268,4.0925,4.0922,4.0112,3.8991,3.7508,0.0,0.0,0.0,0.0,0.0,0.0,0.0,0.0,0.0,0.0,0.0,0.0,0.0,0.0,0.0,0.0,0.0,0.0,0.0,0.0,0.0,0.0,0.0,0.0,0.0,0.0,2.7358,2.8654,2.9214,0.0,0.0,0.0,0.0,0.0,0.0,0.0,0.0,0.0,3.0738,3.24,3.3634,3.4022,3.4992,3.5714,3.5895,3.6205,3.6542,3.71,3.707,3.6988,0.0,0.0,0.0,0.0,0.0,0.0,0.0,0.0,0.0,0.0,0.0,0.0,0.0,0.0,0.0,0.0,0.0,0.0,0.0,0.0,0.0,0.0,0.0,0.0,0.0,0.0,0.0,2.6491,3.0482,0.0,0.0,0.0,0.0,0.0,0.0,0.0,0.0,0.0,0.0,0.0,3.3413,3.2774,0.0,0.0,0.0,0.0,0.0,0.0,0.0,0.0,0.0,0.0,0.0,0.0,3.6922,3.8267,4.072,4.2253,4.275,4.2023,4.1903,4.2388,4.163,4.0284,3.8267,0.0,0.0,0.0,0.0,0.0,0.0,0.0,0.0,0.0,0.0,0.0,0.0,0.0,0.0,0.0,0.0,0.0,0.0,0.0,0.0,0.0,0.0,0.0,0.0,0.0,2.8594,0.0,0.0,0.0,0.0,0.0,0.0,0.0,0.0,0.0,0.0,0.0,3.1285,3.2571,3.3237,3.4094,3.5515,3.5967,3.6585,0.0,0.0,0.0,0.0,0.0,0.0,0.0,0.0,0.0,0.0,0.0,0.0,0.0,0.0,3.0462,2.848,2.8026,2.8,2.8106,0.0,0.0,0.0,0.0,0.0,0.0,0.0,0.0,0.0,0.0,0.0,0.0,0.0,0.0,3.1136,0.0,3.495,0.0,0.0,0.0,0.0,0.0,0.0,0.0,0.0,3.7326,3.6502,3.5539,3.5062,3.4639,0.0,3.3962,3.1918,0.0,0.0,0.0,0.0,0.0,0.0,0.0,0.0,3.7836,3.9405,4.1363,4.2773,4.3509,4.2826,4.2809,4.3526,4.2543,4.1181,3.9439,3.7833,3.5933,0.0,0.0,0.0,0.0,0.0,0.0,0.0,0.0,0.0,0.0,0.0,0.0,0.0,0.0,0.0,0.0,0.0,0.0,0.0,0.0,0.0,0.0,0.0,3.0767,0.0,0.0,0.0,0.0,0.0,0.0,0.0,0.0,0.0,3.0409,3.1992,3.3619,3.4852,3.5164,3.5752,3.7015,0.0,0.0,0.0,0.0,0.0,0.0,0.0,3.9206,3.9256,3.8696,3.8182,3.8039,3.698,3.6041,3.5412,0.0,0.0,3.2135,3.1347,3.1218,3.1617,3.1435,3.1473,3.1974,3.2054,3.2207,0.0,0.0,0.0,0.0,0.0,0.0,0.0,0.0,3.1783,3.432,0.0,3.7698,0.0,0.0,0.0,0.0,0.0,4.0647,0.0,0.0,3.842,3.8044,3.6996,3.6337,3.544,3.4442,3.4067,3.4033,3.4368,3.4292,0.0,0.0,0.0,0.0,0.0,0.0,3.937,4.0888,4.2427,4.358,4.4268,4.3632,4.3597,4.4216,4.2802,4.165,4.094,3.9399,3.8184,3.7288,3.3796,0.0,0.0,0.0,0.0,0.0,0.0,0.0,0.0,0.0,0.0,0.0,0.0,0.0,0.0,0.0,0.0,0.0,0.0,0.0,0.0,3.0864,0.0,0.0,0.0,0.0,0.0,0.0,0.0,0.0,0.0,0.0,3.3248,3.4732,3.6291,3.7544,0.0,0.0,0.0,0.0,3.8862,3.9585,3.9812,3.9993,3.9926,4.008,4.008,3.9946,0.0,0.0,3.8662,3.815,3.7948,3.8417,3.8554,3.7992,3.5881,3.4971,3.4866,3.5681,3.5353,3.4982,3.4697,3.4597,3.4751,3.1841,0.0,0.0,0.0,0.0,2.9851,3.1515,3.4211,3.4211,3.6163,3.9441,3.92,0.0,0.0,0.0,0.0,0.0,0.0,4.0651,4.0076,3.9548,3.9098,3.876,3.921,3.9208,3.8845,3.878,3.8826,3.8951,3.8657,3.7329,3.5059,0.0,0.0,0.0,0.0,4.0129,4.1664,4.3202,4.4336,4.5079,4.4868,4.454,4.413,4.2686,4.1901,4.1783,4.0194,3.8742,3.7719,3.7835,0.0,0.0,0.0,0.0,0.0,0.0,0.0,0.0,0.0,0.0,0.0,0.0,0.0,0.0,0.0,0.0,0.0,0.0,0.0,3.1972,3.2892,3.3356,0.0,0.0,0.0,0.0,0.0,0.0,0.0,0.0,0.0,3.696,3.7839,3.8573,0.0,0.0,4.0139,4.0632,4.0709,4.1109,4.2248,4.2505,0.0,4.2489,4.2546,4.2391,4.1888,4.1641,4.1361,4.0902,4.0974,4.0902,4.0202,4.0441,4.0353,3.9422,3.8661,3.8187,3.7959,3.7506,3.7267,3.7415,3.7224,3.7253,3.6843,3.5734,3.3287,3.2421,3.2731,3.3007,3.4093,3.5663,3.5973,3.7545,3.985,3.9811,4.0582,4.2043,4.2047,0.0,0.0,0.0,4.1083,4.0481,3.99,3.9634,3.9623,3.985,4.0014,4.0104,4.0087,4.0206,4.0442,4.0612,4.0063,3.8751,0.0,0.0,3.9284,4.0164,4.1354,4.2871,4.413,4.4973,4.5353,4.5223,4.4766,4.4062,4.2901,4.2349,4.2421,4.074,3.945,3.8776,3.9406,3.8639,0.0,0.0,0.0,0.0,0.0,0.0,0.0,0.0,0.0,0.0,0.0,2.2807,2.4123,0.0,0.0,0.0,3.0427,3.2399,3.4565,3.4814,0.0,0.0,0.0,0.0,0.0,0.0,0.0,3.6313,3.6645,3.7659,3.9969,4.0546,4.0686,4.0715,4.1264,4.1989,4.2725,0.0,4.2845,4.4202,4.4144,4.3976,4.3976,4.3745,4.3348,4.2636,4.2546,4.2575,4.2414,4.2521,4.2455,4.2296,4.2467,4.2695,4.2582,4.2423,4.1774,4.0234,3.9477,3.9367,4.0046,3.9997,4.0055,4.1285,4.1423,3.5939,3.4076,3.4766,3.5439,3.6094,3.6715,3.7508,3.8753,4.0095,3.9899,4.1162,4.3453,4.3535,0.0,4.2175,4.2137,4.1291,3.9824,3.9778,3.9812,3.9817,3.9092,3.8987,3.9392,3.9263,3.9424,3.9951,4.0936,4.1833,4.2598,4.1273,4.117,4.2081,4.2167,4.2959,4.4475,4.5214,4.5593,4.5593,4.5149,4.4654,4.4313,4.3437,4.3069,4.3036,4.121,4.0216,4.0133,3.9116,3.9072,4.0154,0.0,0.0,0.0,0.0,0.0,0.0,0.0,0.0,0.0,0.0,0.0,0.0,0.0,0.0,3.184,3.3902,0.0,3.6676,3.6453,0.0,0.0,0.0,3.5164,3.6906,3.6051,3.6318,3.8704,0.0,0.0,4.2352,4.2779,4.2871,4.2872,4.3356,4.3938,4.4588,4.4079,4.4195,4.5428,4.5107,4.4704,4.4869,4.4317,4.3749,4.3204,4.282,4.3166,4.3583,4.328,4.3342,4.4135,4.4472,4.4657,4.5098,4.542,4.5389,4.24,4.1477,4.1421,4.2406,4.257,4.2753,4.0974,4.106,4.0198,3.9939,4.0129,4.0302,4.0146,3.9871,4.0578,4.1155,4.1487,4.0879,4.1285,4.2404,4.3032,4.2828,4.2037,4.1678,4.1326,4.0915,4.0544,4.0639,4.1157,4.1067,4.1005,4.1045,4.1426,4.1543,4.1361,4.21,4.292,4.3568,4.3498,4.3474,4.3511,4.3797,4.4618,4.6129,4.6859,4.7291,4.7466,4.6754,4.6482,4.663,4.5085,4.4304,4.4473,4.1959,4.0331,4.0011,3.8109,3.7199,3.7435,3.662,0.0,0.0,0.0,0.0,0.0,0.0,0.0,0.0,0.0,2.8575,3.0112,0.0,3.3061,0.0,3.5689,3.694,3.706,3.7234,0.0,0.0,3.7452,3.7997,3.8433,3.9054,4.0008,4.1666,4.1582,4.194,4.32,4.4559,4.5273,4.4926,4.5005,4.5137,4.5379,4.5218,4.538,4.6047,4.6028,4.6164,4.6461,4.6152,4.5595,4.5463,4.5419,4.5492,4.5654,4.5581,4.5464,4.5179,4.5144,4.5092,4.4783,4.4762,4.4854,4.4476,4.4316,4.4219,4.4011,4.3989,4.4172,4.2388,4.2406,4.2492,4.2699,4.2957,4.2285,4.1561,4.0957,4.1664,4.1971,4.2033,4.2265,4.2819,4.3526,4.3975,4.3923,4.3459,4.2671,4.2292,4.2292,4.153,4.1694,4.2655,4.2518,4.2808,4.3363,4.3481,4.3422,4.3158,4.3761,4.4235,4.4649,4.5082,4.5507,4.5814,4.5445,4.5673,4.6455,4.7419,4.8216,4.872,4.8226,4.7801,4.7378,4.6185,4.5239,4.4599,4.2365,4.0896,4.0229,3.8089,3.7172,3.7826,3.7296,3.5869,0.0,0.0,0.0,0.0,0.0,0.0,0.0,0.0,0.0,0.0,0.0,3.5654,3.595,3.6955,3.7528,3.7405,3.7919,3.8213,3.8087,3.8834,3.9532,4.0101,4.104,4.2098,4.3441,4.3395,4.3834,4.5191,4.5733,4.6251,4.6822,4.6644,4.6576,4.6746,4.639,4.6255,4.7109,4.7,4.6751,4.6893,4.6662,4.6325,4.6325,4.6325,4.6411,4.6685,4.6757,4.6655,4.6643,4.6633,4.6537,4.6151,4.6055,4.6195,4.6406,4.6585,4.6356,4.5814,4.5661,4.583,4.4492,4.4527,4.3871,4.4027,4.4613,4.3285,4.2181,4.1371,4.2112,4.2423,4.2526,4.4061,4.5044,4.5579,4.5682,4.5665,4.5491,4.4426,4.3885,4.3749,4.2691,4.2898,4.4156,4.368,4.4187,4.545,4.5114,4.4869,4.4804,4.5472,4.5746,4.5748,4.6405,4.7193,4.8068,4.7005,4.65,4.6703,4.7692,4.8714,4.9704,4.9576,4.8872,4.7734,4.7154,4.6075,4.4478,4.2928,4.166,4.0801,3.8995,3.8489,3.9548,3.7995,3.6056,0.0,3.2972,0.0,0.0,0.0,0.0,0.0,0.0,0.0,0.0,3.6276,3.7725,3.793,3.793,3.7961,3.8054,3.8725,3.9361,3.9708,4.0029,4.0631,4.1817,4.2571,4.3494,4.4818,4.4965,4.5672,4.7308,4.6671,4.6634,4.8057,4.7718,4.7552,4.8134,4.7248,4.6871,4.8126,4.7753,4.7281,4.6854,4.6644,4.6616,4.6532,4.6616,4.6715,4.7278,4.7362,4.7459,4.7909,4.7937,4.8007,4.812,4.8064,4.8064,4.7979,4.7937,4.7769,4.7361,4.7221,4.7502,4.5579,4.6148,4.6027,4.6372,4.7027,4.6751,4.5492,4.3682,4.4458,4.4768,4.4906,4.6384,4.6797,4.6441,4.7027,4.6958,4.6352,4.5889,4.5404,4.4809,4.4447,4.4587,4.5177,4.4738,4.4869,4.548,4.5403,4.5179,4.4804,4.6471,4.7011,4.6656,4.7571,4.8136,4.8305,0.0,0.0,0.0,4.8862,4.9266,5.054,5.0391,5.0191,5.0154,4.861,0.0,4.6699,4.4446,4.2751,4.1885,4.1454,0.0,0.0,0.0,0.0,0.0,0.0,0.0,0.0,0.0,0.0,0.0,3.5885,3.6584,3.6212,3.7448,3.8554,3.9077,3.9123,3.9354,3.9893,4.013,4.05,4.114,4.1694,4.2556,4.3848,4.4603,4.5541,4.6865,4.7062,4.7384,4.8183,4.8109,4.8044,4.8324,4.7829,4.7579,4.8217,4.7586,4.7272,4.7389,4.7659,4.7913,4.7783,4.7726,4.7656,4.7783,4.7783,4.7797,4.7881,4.7923,4.7937,4.8134,4.8134,4.8134,4.8134,4.8134,4.8134,4.8134,4.8134,4.8092,4.7979,4.7951,4.7979,4.6786,4.7093,4.6837,4.7116,0.0,4.7386,4.7013,4.651,4.6544,4.6769,4.7093,4.7937,4.8264,4.8303,4.8403,4.8254,4.782,4.6837,4.6346,4.6196,4.5497,4.5631,4.6404,4.5929,4.5996,4.6568,4.6109,4.5969,4.6083,4.7054,4.7432,4.7373,4.8429,4.8823,4.8564,4.876,4.9126,4.9821,4.9789,5.0309,5.1356,5.1527,5.1445,5.1162,5.0074,0.0,0.0,0.0,0.0,0.0,0.0,0.0,0.0,0.0,0.0,3.7777,3.6566,3.602,3.6271,3.6257,3.6397,3.6708,3.8145,3.8774,3.816,3.8616,3.9293,3.9955,4.0339,4.0678,4.1016,4.1355,4.1817,4.2509,4.3171,4.3987,4.4972,4.5972,4.6973,4.7912,4.8404,4.8768,4.9008,4.904,4.876,4.8433,4.7998,4.786,4.7998,4.7671,4.7348,4.7544,4.7895,4.812,4.8134,4.8134,4.8134,4.8134,4.8134,4.8134,4.8134,4.8134,4.8134,4.8134,4.8134,4.8134,4.8134,4.8134,4.8134,4.8134,4.8134,4.8134,4.8134,4.8134,4.8134,4.7601,4.7592,4.7254,4.7455,4.7928,4.7592,4.8066,4.8993,0.0,0.0,0.0,4.8953,4.9258,4.9801,4.9394,4.9118,4.8944,4.7498,4.7057,4.7512,4.6331,4.638,4.7529,4.6911,4.7046,4.7719,4.6985,4.6917,4.7533,4.7766,4.7988,4.8187,4.9114,4.9372,4.8984,4.9537,4.9804,4.9725,5.0449,5.1218,5.2026,5.2416,5.2221,5.1429,5.0966,4.9987,4.8333,4.6901,4.5453,4.4015,4.2512,4.1629,4.1488,4.1007,4.0309,3.9308,3.8753,3.8368,3.8224,3.8333,3.8639,3.9185,4.0155,4.0539,4.0093,4.0062,4.0293,4.0847,4.154,4.2001,4.2125,4.274,4.3387,4.4033,4.471,4.5357,4.5942,4.7019,4.8019,4.8712,4.9098,4.953,4.9613,4.9344,4.9127,4.8557,4.8262,4.8154,4.801,4.767,4.753,4.7965,4.8106,4.8134,4.8134,4.8134,4.8134,4.8134,4.8134,4.8134,4.8134,4.8134,4.8134,4.8134,4.8134,4.8134,4.8134,4.8134,4.8134,4.8134,4.8134,4.8134,4.8134,4.8134,4.8134,4.7149,4.7379,4.7742,4.8354,4.901,4.9416,4.9677,4.9838,4.9509,4.9584,4.9838,4.9629,4.9487,4.9316,4.9239,4.8917,4.8463,4.7835,4.7785,4.8186,4.7193,4.7275,4.8186,4.7307,4.7293,4.7997,4.7886,4.7918,4.8301,4.9206,4.9576,4.9361,4.9676,4.9599,4.9296,4.971,5.0026,5.0381,5.0655,5.1287,5.2219,5.2036,5.1623,5.0924,5.0595,4.9837,4.8557,4.7008,4.5753,4.495,4.3223,4.1913,4.1263,4.1488,4.1801,4.194,4.0816,4.0108,4.0108,4.0662,4.1309,4.1925,4.1678,4.1648,4.214,4.2171,4.2202,4.234,4.2894,4.3525,4.4095,4.4726,4.5341,4.6049,4.6742,4.7219,4.7296,4.7907,4.8659,4.9336,4.9047,4.9189,4.9975,4.9262,4.8644,4.8931,4.8454,4.8094,4.8064,4.8064,4.8035,4.8106,4.8134,4.8134,4.8134,4.8134,4.8134,4.8134,4.8134,4.8134,4.8134,4.8134,4.8134,4.8134,4.8134,4.8134,4.8134,4.8134,4.8134,4.8134,4.8134,4.8134,4.8032,4.8018,4.8018,4.7765,4.7644,4.7771,4.8207,4.8944,4.9573,4.986,4.9801,4.9547,4.9666,4.9935,4.9547,4.9273,4.9135,4.8639,4.8258,4.8,4.7488,4.7538,4.8,4.7571,4.7737,4.8322,4.805,4.7936,4.8123,4.8223,4.8407,4.8656,4.919,4.9464,4.9347,4.928,4.9194,4.9356,4.9677,5.0073,5.0509,5.0832,5.1226,5.1672,5.154,5.1333,5.0984,5.0902,5.044,4.9644,4.8314,4.7044,4.5781,4.4375,4.3051,4.1983,4.2335,4.2925,4.3571,4.2402,4.1663,4.1663,4.1955,4.2432,4.3048,4.2848,4.2956,4.3633,4.3217,4.2987,4.3156,4.4141,4.491,4.5126,4.5741,4.6403,4.708,4.7434,4.7579,4.7646,4.8155,4.8637,4.9025,4.9075,4.9186,4.9743,4.919,4.8692,4.8653,4.8308,4.8134,4.8134,4.8134,4.8134,4.8134,4.8134,4.8134,4.8134,4.8134,4.8134,4.8134,4.8134,4.8134,4.8134,4.8134,4.8134,4.8134,4.8134,4.8134,4.8134,4.8134,4.8134,4.8134,4.8134,4.8032,4.7815,4.7391,4.7274,4.7835,4.7422,4.7406,4.7835,4.8601,4.9359,4.9573,4.9394,4.9073,4.9152,4.9411,4.9124,4.8968,4.8934,4.8081,4.7638,4.7504,4.7082,4.7218,4.7638,4.7571,4.782,4.8297,4.8411,4.8339,4.8327,4.8561,4.8811,4.9015,4.9172,4.93,4.9228,4.8852,4.8867,4.9275,4.9677,5.0073,5.0525,5.094,5.1183,5.1016,5.1016,5.1016,5.094,5.1016,5.0771,5.0245,4.9236,4.8074,4.6624,4.5403,4.4279,4.3171,4.3356,4.3848,4.4402,4.3633,4.3048,4.3048,4.3048,4.3264,4.3741,4.3925,4.4249,4.4664,4.4033,4.3602,4.3925,4.5049,4.5834,4.5926,4.6588,4.7265,4.7773,4.8142,4.8247,4.7991,4.8513,4.882,4.8827,4.8943,4.9157,4.9271,4.9178,4.8781,4.8294,4.8134,4.8134,4.8134,4.8134,4.8134,4.8134,4.8134,4.8134,4.8134,4.8134,4.8134,4.8134,4.8134,4.8134,4.8134,4.8134,4.8134,4.8134,4.8134,4.8134,4.8134,4.8134,4.8134,4.8134,4.8134,4.7917,4.7405,4.6755,4.6428,4.6464,4.6088,4.648,4.7323,4.8463,4.9316,4.9256,4.8543,4.8319,4.8127,4.8225,4.8497,4.8623,4.8416,4.7951,4.7421,4.7014,4.6961,4.715,4.7571,4.7218,4.7407,4.8083,4.7684,4.794,4.8691,4.9206,4.9528,4.9726,5.0071,4.9978,4.934,4.8852,4.8867,4.9275,4.9693,5.0152,5.0509,5.094,5.1016,5.0602,5.0602,5.0386,4.9995,5.0386,5.0198,4.9501,4.87,4.8119,4.7423,4.6188,4.5157,4.4479,4.4433,4.4495,4.4556,4.4433,4.4402,4.4372,4.4402,4.4402,4.4526,4.508,4.5434,4.5495,4.488,4.4479,4.471,4.5403,4.608,4.6526,4.7635,4.8389,4.8558,4.9443,4.9932,4.8811,4.9509,5.0109,4.9415,4.8638,4.8528,4.9034,4.8695,4.8221,4.812,4.8134,4.8134,4.8134,4.8134,4.8134,4.8134,4.8134,4.8134,4.8134,4.8134,4.8134,4.8134,4.8134,4.8134,4.8134,4.8134,4.8134,4.8134,4.8134,4.8134,4.8134,4.8134,4.8134,4.8018,4.8018,4.7917,4.7301,4.6455,4.602,4.6237,4.5468,4.5841,4.6625,4.7622,4.843,4.8303,4.7622,4.7868,4.7885,4.7737,4.7655,4.7737,4.7934,4.7421,4.7098,4.6876,4.6876,4.7014,4.7283,4.7399,4.7615,4.7677,4.8619,4.8941,4.8903,4.9977,5.0269,4.9947,4.9821,4.9501,4.8934,4.8949,4.9194,4.9677,5.0058,5.0448,5.0848,5.0618,5.0308,5.0214,5.037,5.0292,4.9995,5.0058,4.99,4.9325,4.8994,4.8506,4.7619,4.7065,4.6111,4.4664,4.4957,4.4987,4.4633,4.4572,4.4572,4.4587,4.4941,4.5172,4.5172,4.6172,4.6788,4.6757,4.6434,4.6234,4.6357,4.6357,4.6542,4.7219,4.8435,4.9251,4.9274,4.9738,4.964,4.8686,4.885,4.8843,4.8244,4.8182,4.8269,4.8424,4.8308,4.812,4.8134,4.8134,4.8134,4.8134,4.8134,4.8134,4.8134,4.8134,4.8134,4.8134,4.8134,4.8134,4.8134,4.8134,4.8134,4.8134,4.8134,4.8134,4.8134,4.8134,4.8134,4.8134,4.8134,4.8134,4.7917,4.7377,4.6963,4.6442,4.5582,4.5261,4.5865,4.5157,4.5567,4.608,4.6747,4.7704,4.7556,4.6815,4.7406,4.7539,4.7085,4.686,4.6929,4.7218,4.6876,4.6738,4.6738,4.6738,4.692,4.7232,4.7767,4.7886,4.785,4.9016,4.9505,4.9189,5.0037,5.0308,4.9757,4.9275,4.8934,4.8702,4.8949,4.9372,4.9757,5.0058,5.0386,5.0711,5.0246,4.9836,4.9757,5.0058,5.0058,4.9757,4.9773,4.9597,4.9275,4.9194,4.8717,4.7912,4.7711,4.7034,4.5818,4.5818,4.5649,4.5203,4.5126,4.5126,4.5141,4.5588,4.5942,4.6188,4.7096,4.7681,4.785,4.7989,4.8081,4.8112,4.7788,4.7758,4.7912,4.8974,4.9697,4.9943,4.9904,4.9539,4.8839,4.8632,4.8279,4.7587,4.7939,4.8134,4.8134,4.8134,4.8134,4.8134,4.8134,4.8134,4.8134,4.8134,4.8134,4.8134,4.8134,4.8134,4.8134,4.8134,4.8134,4.8134,4.8134,4.8134,4.8134,4.8134,4.8134,4.8134,4.8134,4.8032,4.8032,4.8032,4.7712,4.7494,4.686,4.6126,4.5808,4.5154,4.483,4.4648,4.4783,4.552,4.5809,4.5913,4.7373,4.7172,4.5825,4.6896,4.6844,4.6017,4.6214,4.6356,4.6372,4.6285,4.6372,4.6372,4.6404,4.6914,4.7793,4.7971,4.8272,4.8699,4.8825,4.9032,4.9264,4.9454,4.9517,4.934,4.8867,4.862,4.8604,4.8687,4.8934,4.9275,4.9421,4.9597,4.9995,4.9916,4.9677,4.9356,4.9356,4.9356,4.9356,4.9356,4.9291,4.9194,4.8867,4.8589,4.8573,4.7973,4.7819,4.8173,4.7219,4.6573,4.6449,4.6449,4.6465,4.6419,4.6496,4.6788,4.7357,4.7681,4.7958,4.8567,4.9289,4.9728,4.9605,4.962,4.9389,4.8912,4.9481,5.0082,5.0519,5.0484,5.0077,4.938,4.9132,4.888,4.8237,4.8078,4.8134,4.8134,4.8134,4.8134,4.8134,4.8134,4.8134,4.8134,4.8134,4.8134,4.8134,4.8134,4.8134,4.8134,4.8134,4.8134,4.8134,4.8134,4.8134,4.8134,4.8134,4.8134,4.8134,4.8134,4.8032,4.8032,4.7712,4.7184,4.6769,4.6231,4.5702,4.5368,4.5059,4.48,4.5008,4.4663,4.4918,4.5067,4.5142,4.6095,4.5953,4.5126,4.5913,4.6001,4.5526,4.551,4.5583,4.5599,4.5599,4.5873,4.6349,4.6765,4.7205,4.763,4.8537,4.8779,4.853,4.9143,4.9394,4.9325,4.9597,4.9517,4.9275,4.8852,4.8604,4.8687,4.9178,4.9437,4.9437,4.9821,5.0058,4.9836,4.9677,4.9437,4.9275,4.9031,4.8852,4.8867,4.8867,4.8852,4.8852,4.8702,4.8604,4.8604,4.8373,4.8358,4.8527,4.8158,4.7481,4.6711,4.6603,4.6603,4.665,4.7004,4.7165,4.7045,4.8615,4.9404,4.953,5.0345,5.1067,5.0928,5.059,5.0405,5.0651,5.0851,5.0861,5.059,5.0483,5.0109,4.9417,4.8837,4.8409,4.812,4.8134,4.8134,4.8134,4.8134,4.8134,4.8134,4.8134,4.8134,4.8134,4.8134,4.8134,4.8134,4.8134,4.8134,4.8134,4.8134,4.8134,4.8134,4.8134,4.8134,4.8134,4.8134,4.8134,4.8134,4.8134,4.7917,4.7712,4.7405,4.6873,4.602,4.5595,4.5381,4.5046,4.4922,4.4996,4.5067,4.4648,4.4572,4.4572,4.4723,4.5421,4.5274,4.4723,4.5494,4.5656,4.5321,4.5321,4.5446,4.5559,4.55,4.5923,4.6596,4.7018,4.7483,4.8093,4.9069,4.9154,4.8779,4.9377,4.9517,4.9194,4.9356,4.934,4.9113,4.8785,4.8604,4.8604,4.9194,4.9437,4.9356,4.9741,4.9805,4.9597,4.9259,4.9113,4.9031,4.8785,4.8604,4.8604,4.8604,4.8604,4.8604,4.8604,4.8604,4.8604,4.8604,4.8604,4.8604,4.8604,4.8219,4.7373,4.725,4.7234,4.7327,4.7896,4.8002,4.7447,4.924,5.0406,4.9776,5.0747,5.1333,5.1513,5.1049,5.0915,5.1376,5.1439,5.1167,5.0817,5.0416,4.9917,4.9346,4.8595,4.8221,4.8134,4.8134,4.8134,4.8134,4.8134,4.8134,4.8134,4.8134,4.8134,4.8134,4.8134,4.8134,4.8134,4.8134,4.8134,4.8134,4.8134,4.8134,4.8134,4.8134,4.8134,4.8134,4.8134,4.8134,4.8032,4.7917,4.7712,4.7405,4.6977,4.6337,4.5582,4.5274,4.5059,4.4922,4.4944,4.5218,4.4663,4.4572,4.4572,4.4572,4.4723,4.5274,4.529,4.4874,4.5728,4.576,4.5298,4.562,4.5865,4.6093,4.6126,4.6545,4.7105,4.7095,4.7775,4.911,4.9365,4.9362,4.9166,4.9244,4.9113,4.8687,4.862,4.8604,4.8604,4.8604,4.8604,4.862,4.8702,4.8934,4.9275,4.9015,4.8934,4.9097,4.8867,4.862,4.8604,4.8604,4.865,4.8681,4.8696,4.8727,4.8712,4.865,4.8604,4.8604,4.8604,4.8604,4.862,4.8727,4.865,4.8512,4.8543,4.8521,4.865,4.9074,4.9011,4.866,4.985,5.0339,4.9718,5.0372,5.1149,5.1506,5.1105,5.0925,5.1361,5.0892,5.0594,5.1263,5.0206,4.9459,4.9079,4.861,4.8134,4.8134,4.8134,4.8134,4.8134,4.8134,4.8134,4.8134,4.8134,4.8134,4.8134,4.8134,4.8134,4.8134,4.8134,4.8134,4.8134,4.8134,4.8134,4.8134,4.8134,4.8134,4.8134,4.8134,4.8134,4.8032,4.7712,4.7405,4.6546,4.6126,4.5808,4.5167,4.4951,4.4922,4.5022,4.5232,4.5571,4.4572,4.4572,4.4572,4.4572,4.4648,4.4858,4.4783,4.4663,4.4993,4.5273,4.5433,4.5571,4.5959,4.6392,4.6516,4.7044,4.7871,4.7856,4.8091,4.8671,4.9127,4.9202,4.8903,4.8852,4.8785,4.8604,4.8604,4.8604,4.8604,4.8604,4.8604,4.8604,4.8949,4.8949,4.8867,4.8934,4.9031,4.8785,4.8702,4.8604,4.8604,4.8604,4.8835,4.9297,4.9358,4.9558,4.9959,4.9127,4.8635,4.865,4.8604,4.8604,4.8758,4.9512,4.9574,4.8706,4.863,4.8874,4.9274,4.9103,4.8917,4.8791,4.9764,4.9823,4.9159,5.0378,5.1258,5.1622,5.1363,5.1391,5.1326,5.0427,4.9834,5.0042,4.9556,4.9079,4.8595,4.8322,4.8134,4.8134,4.8134,4.8134,4.8134,4.8134,4.8134,4.8134,4.8134,4.8134,4.8134,4.8134,4.8134,4.8134,4.8134,4.8134,4.8134,4.8134,4.8134,4.8134,4.8134,4.8134,4.8134,4.8134,4.8134,4.7815,4.7405,4.6873,4.5914,4.5381,4.5167,4.4951,4.4843,4.4944,4.5271,4.5584,4.5898,4.4572,4.4572,4.4572,4.4572,4.4618,4.4818,4.4957,4.5003,4.5234,4.5572,4.5926,4.5957,4.6326,4.688,4.6973,4.7518,4.8333,4.8379,4.8379,4.8426,4.9025,4.9015,4.8604,4.8604,4.8604,4.8604,4.8604,4.8604,4.8604,4.8604,4.8604,4.8687,4.8852,4.8852,4.862,4.8867,4.8867,4.8604,4.8604,4.8604,4.8604,4.8604,4.8958,4.9574,4.9682,5.002,5.0543,4.982,4.9374,4.9281,4.8943,4.8773,4.9158,5.0097,5.0171,4.9367,4.9031,4.9125,4.9504,4.9486,4.9044,4.886,4.994,5.0099,4.9128,5.0327,5.1464,5.1199,5.1075,5.0996,5.0618,4.9654,4.8881,4.8881,4.8881,4.8595,4.8221,4.8134,4.8134,4.8134,4.8134,4.8134,4.8134,4.8134,4.8134,4.8134,4.8134,4.8134,4.8134,4.8134,4.8134,4.8134,4.8134,4.8134,4.8134,4.8134,4.8134,4.8134,4.8134,4.8134,4.8134,4.8134,4.8032,4.7288,4.6755,4.6112,4.5261,4.5154,4.4951,4.4843,4.4761,4.5022,4.5336,4.582,4.6225,4.4572,4.4572,4.4572,4.4618,4.4756,4.528,4.5572,4.5726,4.6234,4.6526,4.6634,4.665,4.7034,4.7558,4.765,4.7973,4.8512,4.8594,4.8579,4.8677,4.8934,4.8949,4.8604,4.8604,4.8604,4.8604,4.8604,4.8604,4.8604,4.8604,4.8604,4.8604,4.8604,4.8604,4.8604,4.8604,4.8604,4.8604,4.8604,4.8604,4.8604,4.8604,4.902,4.9743,4.9835,5.0174,5.0851,5.0867,5.0743,5.0528,4.9466,4.9251,4.9912,5.0497,5.0598,4.9809,4.9599,4.9569,4.9644,4.9734,4.9685,4.9079,5.0065,5.0649,4.8905,4.9993,5.0902,5.0412,5.0412,5.0124,4.9459,4.8681,4.8221,4.812,4.8221,4.8221,4.812,4.8134,4.8134,4.8134,4.8134,4.8134,4.8134,4.8134,4.8134,4.8134,4.8134,4.8134,4.8134,4.8134,4.8134,4.8134,4.8134,4.8134,4.8134,4.8134,4.8134,4.8134,4.8134,4.8018,4.812,4.8018,4.7712,4.6963,4.6218,4.5582,4.5046,4.4938,4.4843,4.4735,4.4866,4.5075,4.5506,4.6055,4.6604,4.4572,4.4572,4.4572,4.4864,4.5295,4.5541,4.5895,4.6311,4.6511,4.6957,4.7234,4.7342,4.7696,4.8296,4.8327,4.8466,4.8573,4.8604,4.8604,4.8604,4.8702,4.8702,4.8604,4.8604,4.8604,4.8604,4.8604,4.8604,4.8604,4.8604,4.8604,4.8604,4.8604,4.8604,4.8604,4.8604,4.8604,4.8604,4.8604,4.8604,4.8604,4.8604,4.922,5.0313,5.0405,5.1005,5.2006,5.2175,5.1652,5.0759,5.0389,5.0066,5.0236,5.1344,5.1407,5.0064,4.9652,4.9729,4.9942,4.9415,4.9245,4.9772,4.986,4.9372,4.8382,4.9245,4.9752,4.9542,4.9542,4.9542,4.9164,4.8595,4.812,4.8134,4.8134,4.8134,4.8134,4.8134,4.8134,4.8134,4.8134,4.8134,4.8134,4.8134,4.8134,4.8134,4.8134,4.8134,4.8134,4.8134,4.8134,4.8134,4.8134,4.8134,4.8134,4.8134,4.8134,4.8134,4.8018,4.8018,4.8018,4.8018,4.7494,4.6755,4.6323,4.5688,4.5154,4.4735,4.4735,4.4735,4.48,4.4983,4.5807,4.6447,4.697,4.4572,4.4618,4.488,4.5234,4.5649,4.6172,4.6665,4.7034,4.7342,4.765,4.7989,4.8035,4.825,4.8604,4.8604,4.8604,4.8604,4.8604,4.8604,4.8604,4.8604,4.8604,4.8604,4.8604,4.8604,4.8604,4.8604,4.8604,4.8604,4.8604,4.8604,4.8604,4.8604,4.8604,4.8604,4.8604,4.8604,4.8604,4.8604,4.8604,4.8604,4.8604,4.9158,5.0128,5.0528,5.1328,5.2498,5.2698,5.2298,5.1713,5.1544,5.1405,5.1267,5.2082,5.188,5.0221,4.9967,4.9932,4.9837,4.917,4.9136,4.9635,4.9444,4.898,4.8495,4.8781,4.9262,4.8881,4.9079,4.9079,4.8795,4.8308,4.812,4.8134,4.8134,4.8134,4.8134,4.8134,4.8134,4.8134,4.8134,4.8134,4.8134,4.8134,4.8134,4.8134,4.8134,4.8134,4.8134,4.8134,4.8134,4.8134,4.8134,4.8134,4.8134,4.8134,4.7917,4.7917,4.7596,4.7596,4.7801,4.7801,4.7274,4.6651,4.6323,4.5901,4.5154,4.4735,4.4735,4.4735,4.4735,4.5127,4.5937,4.6499,4.7074,4.4572,4.4649,4.5295,4.5634,4.5895,4.7034,4.7558,4.7819,4.825,4.8496,4.8543,4.8573,4.8543,4.8604,4.8604,4.8604,4.8604,4.8604,4.8604,4.8604,4.8604,4.8604,4.8604,4.8604,4.8604,4.8604,4.8604,4.8604,4.8604,4.8604,4.8604,4.8604,4.8604,4.8604,4.8604,4.8604,4.8604,4.8604,4.8604,4.8604,4.8604,4.8635,4.9035,4.9758,5.0605,5.1359,5.2267,5.2637,5.2637,5.2683,5.2713,5.256,5.2606,5.2593,5.1819,5.0609,5.0184,4.9844,4.9415,4.9176,4.912,4.9262,4.9262,4.8881,4.8423,4.8695,4.8781,4.8308,4.8795,4.8695,4.8322,4.8134,4.8134,4.8134,4.8134,4.8134,4.8134,4.8134,4.8134,4.8134,4.8134,4.8134,4.8134,4.8134,4.8134,4.8134,4.8134,4.8134,4.8134,4.8134,4.8134,4.8134,4.8134,4.8134,4.8134,4.8134,4.7815,4.7507,4.6963,4.6963,4.7377,4.7377,4.6963,4.6546,4.6218,4.5688,4.4951,4.4735,4.4735,4.4735,4.4735,4.5323,4.6016,4.6355,4.6826,4.4572,4.4633,4.5311,4.5895,4.648,4.7265,4.7912,4.8389,4.8543,4.8604,4.8604,4.8604,4.8604,4.8604,4.8604,4.8604,4.8604,4.8604,4.8604,4.8604,4.8604,4.8604,4.8604,4.8604,4.8604,4.8604,4.8604,4.8604,4.8604,4.8604,4.8604,4.8604,4.8604,4.8604,4.8604,4.8604,4.8604,4.8604,4.8604,4.8604,4.8604,4.862,4.8958,4.9697,5.0743,5.1498,5.1929,5.2436,5.2698,5.2713,5.2713,5.2713,5.2518,5.165,5.0778,5.0302,4.9834,4.9459,4.9262,4.8795,4.8695,4.9065,4.8695,4.8322,4.812,4.8221,4.8308,4.812,4.8221,4.8308,4.812,4.8134,4.8134,4.8134,4.8134,4.8134,4.8134,4.8134,4.8134,4.8134,4.8134,4.8134,4.8134,4.8134,4.8134,4.8134,4.8134,4.8134,4.8134,4.8134,4.8134,4.8134,4.8134,4.8134,4.8018,4.7917,4.7494,4.7081,4.6442,4.6112,4.6533,4.6963,4.6546,4.6337,4.6126,4.5595,4.4843,4.4735,4.4735,4.4735,4.4774,4.5258,4.5728,4.612,4.6656,4.4572,4.4679,4.5634,4.6265,4.6726,4.7635,4.8281,4.8558,4.8604,4.8604,4.8604,4.8604,4.8604,4.8604,4.8604,4.8604,4.8604,4.8604,4.8604,4.8604,4.8604,4.8604,4.8604,4.8604,4.8604,4.8604,4.8604,4.8604,4.8604,4.8604,4.8604,4.8604,4.8604,4.8604,4.8604,4.8604,4.8604,4.8604,4.8604,4.8604,4.8604,4.862,4.8958,4.9574,5.042,5.099,5.1698,5.2021,5.239,5.2621,5.2713,5.2713,5.2427,5.1263,5.022,4.936,4.9459,4.9079,4.8695,4.8409,4.8308,4.8695,4.8308,4.8221,4.8134,4.8134,4.8134,4.8134,4.8134,4.8134,4.8134,4.8134,4.8134,4.8134,4.8134,4.8134,4.8134,4.8134,4.8134,4.8134,4.8134,4.8134,4.8134,4.8134,4.8134,4.8134,4.8134,4.8134,4.8134,4.8134,4.8134,4.8134,4.8134,4.8018,4.7917,4.7596,4.7053,4.6533,4.5901,4.5582,4.5582,4.5914,4.6245,4.602,4.5808,4.5488,4.4951,4.4843,4.4735,4.4735,4.4839,4.5114,4.5415,4.582,4.646,4.4572,4.4679,4.5926,4.6434,4.6665,4.7835,4.8404,4.8435,4.8573,4.8604,4.8604,4.8604,4.8604,4.8604,4.8604,4.8604,4.8604,4.8604,4.8604,4.8604,4.8604,4.8604,4.8604,4.8604,4.8604,4.8604,4.8604,4.8604,4.8604,4.8604,4.8604,4.8604,4.8604,4.8604,4.8604,4.8604,4.8604,4.8604,4.8604,4.8604,4.8604,4.8604,4.8943,4.9328,4.9758,5.0282,5.1036,5.1451,5.1836,5.2483,5.2652,5.2713,5.2337,5.0981,4.9556,4.8221,4.8695,4.8695,4.8409,4.812,4.812,4.8134,4.812,4.812,4.8134,4.8134,4.8134,4.8134,4.8134,4.8134,4.8134,4.8134,4.8134,4.8134,4.8134,4.8134,4.8134,4.8134,4.8134,4.8134,4.8134,4.8134,4.8134,4.8134,4.8134,4.8134,4.8134,4.8134,4.8134,4.8032,4.7931,4.7917,4.7917,4.8032,4.7917,4.7494,4.6963,4.6323,4.5582,4.5261,4.4951,4.5167,4.5595,4.5595,4.5381,4.5167,4.4951,4.4735,4.4735,4.4735,4.48,4.4957,4.5218,4.5532,4.6159,4.4572,4.4633,4.5418,4.5757,4.5972,4.7204,4.7788,4.7881,4.8358,4.8604,4.8604,4.8604,4.8604,4.8604,4.8604,4.8604,4.8604,4.8604,4.8604,4.8604,4.8604,4.8604,4.8604,4.8604,4.8604,4.8604,4.8604,4.8604,4.8604,4.8604,4.8604,4.8604,4.8604,4.8604,4.8604,4.8604,4.8604,4.8604,4.8604,4.8604,4.8604,4.862,4.8666,4.8943,4.9312,4.9774,5.0097,5.062,5.1174,5.1836,5.2406,5.2652,5.2231,5.022,4.8795,4.8322,4.8308,4.8322,4.812,4.8134,4.8134,4.8134,4.8134,4.8134,4.8134,4.8134,4.8134,4.8134,4.8134,4.8134,4.8134,4.8134,4.8134,4.8134,4.8134,4.8134,4.8134,4.8134,4.8134,4.8134,4.8134,4.8134,4.8134,4.8134,4.8134,4.8134,4.8134,4.8134,4.8134,4.7917,4.761,4.7712,4.7699,4.7815,4.8018,4.7494,4.686,4.6323,4.5688,4.5167,4.4951,4.4843,4.4843,4.5059,4.5167,4.5167,4.4951,4.4735,4.4735,4.4735,4.4748,4.4761,4.4996,4.5258,4.5545,4.4572,4.4633,4.5311,4.5588,4.5757,4.665,4.7281,4.7635,4.7973,4.8296,4.8527,4.8604,4.8604,4.8604,4.8604,4.8604,4.8604,4.8604,4.8604,4.8604,4.8604,4.8604,4.8604,4.8604,4.8604,4.8604,4.8604,4.8604,4.8604,4.8604,4.8604,4.8604,4.8604,4.8604,4.8604,4.8604,4.8604,4.8604,4.8604,4.8604,4.8604,4.8604,4.8604,4.8727,4.8943,4.9281,4.9712,4.9928,5.0497,5.1205,5.2144,5.259,5.2048,5.0698,4.8881,4.8322,4.8134,4.8134,4.8134,4.8134,4.8134,4.8134,4.8134,4.8134,4.8134,4.8134,4.8134,4.8134,4.8134,4.8134,4.8134,4.8134,4.8134,4.8134,4.8134,4.8134,4.8134,4.8134,4.8134,4.8134,4.8134,4.8134,4.8134,4.8134,4.8134,4.8134,4.8134,4.8134,4.8134,4.7712,4.7301,4.7184,4.7171,4.7274,4.7391,4.7081,4.6665,4.6231,4.5688,4.5274,4.4951,4.4735,4.4735,4.4843,4.4951,4.5059,4.4951,4.4735,4.4735,4.4735,4.4748,4.4761,4.48,4.497,4.5258,4.4572,4.4633,4.5157,4.5387,4.5495,4.6095,4.668,4.7157,4.7342,4.7773,4.8358,4.8404,4.8466,4.8589,4.8604,4.8604,4.8604,4.8604,4.8604,4.8604,4.8604,4.8604,4.8604,4.8604,4.8604,4.8604,4.8604,4.8604,4.8604,4.8604,4.8604,4.8604,4.8604,4.8604,4.8604,4.8604,4.8604,4.8604,4.8604,4.8604,4.8604,4.8604,4.8604,4.8604,4.8604,4.8912,4.9328,4.9435,4.9835,5.0466,5.1251,5.2036,5.2305,5.1278,4.9737,4.8409,4.8134,4.8134,4.8134,4.8134,4.8134,4.8134,4.8134,4.8134,4.8134,4.8134,4.8134,4.8134,4.8134,4.8134,4.8134,4.8134,4.8134,4.8134,4.8134,4.8134,4.8134,4.8134,4.8134,4.8134,4.8134,4.8134,4.8032,4.8134,4.8134,4.8134,4.8134,4.8134,4.8018,4.7288,4.6963,4.6755,4.6637,4.6533,4.6533,4.6546,4.6231,4.5914,4.5595,4.5167,4.4951,4.4735,4.4735,4.4735,4.4735,4.4843,4.4735,4.4735,4.4735,4.4735,4.4735,4.4748,4.4774,4.48,4.497,4.4572,4.4587,4.4664,4.471,4.4833,4.5434,4.5757,4.5942,4.6496,4.708,4.7727,4.7788,4.8096,4.8496,4.8604,4.8604,4.8604,4.8604,4.8604,4.8604,4.8604,4.8604,4.8604,4.8604,4.8604,4.8604,4.8604,4.8604,4.8604,4.8604,4.8604,4.8604,4.8604,4.8604,4.8604,4.8604,4.8604,4.8604,4.8604,4.8604,4.8604,4.8604,4.8604,4.8604,4.862,4.8681,4.885,4.8897,4.9174,4.9566,4.9374,5.0405,5.1876,5.1278,4.9737,4.8595,4.8134,4.8134,4.8134,4.8134,4.8134,4.8134,4.8134,4.8134,4.8134,4.8032,4.8032,4.8134,4.8032,4.812,4.812,4.8134,4.8134,4.8134,4.8134,4.8134,4.8134,4.8134,4.8134,4.8018,4.8018,4.8018,4.8032,4.8032,4.8134,4.8134,4.8134,4.8134,4.7815,4.7184,4.6337,4.6112,4.6007,4.5993,4.5887,4.5795,4.5702,4.5502,4.5274,4.5059,4.4951,4.4735,4.4735,4.4735,4.4735,4.4735,4.4735,4.4735,4.4735,4.4735,4.4735,4.4735,4.4748,4.4761,4.4787,4.4993,4.4572,4.4572,4.4572,4.4603,4.491,4.5234,4.5588,4.5895,4.6403,4.7034,4.7465,4.7973,4.8481,4.8604,4.8604,4.8604,4.8604,4.8604,4.8604,4.8604,4.8604,4.8604,4.8604,4.8604,4.8604,4.8604,4.8604,4.8604,4.8604,4.8604,4.8604,4.8604,4.8604,4.8604,4.8604,4.8604,4.8604,4.8604,4.8604,4.8604,4.8604,4.8604,4.8604,4.8604,4.8604,4.8604,4.862,4.8462,4.8684,4.8462,4.9512,5.0885,5.0768,4.9722,4.8308,4.8134,4.8134,4.8134,4.8134,4.8134,4.8134,4.8134,4.8134,4.8032,4.7815,4.7815,4.8134,4.7815,4.7815,4.8018,4.8134,4.8134,4.8134,4.8134,4.8134,4.8134,4.8134,4.8018,4.8018,4.7801,4.7815,4.7815,4.7815,4.7815,4.7917,4.7917,4.8032,4.7712,4.7067,4.6126,4.5274,4.5261,4.5261,4.5248,4.5154,4.5167,4.5059,4.5059,4.4843,4.4843,4.4735,4.4735,4.4735,4.4735,4.4735,4.4735,4.4735,4.4735,4.4735,4.4735,4.4735,4.4735,4.4748,4.4761,4.5494,4.4858,4.4663,4.4572,4.4572,4.4572,4.4864,4.5295,4.5326,4.5711,4.6449,4.7204,4.7896,4.8327,4.8496,4.8604,4.8604,4.8604,4.8604,4.8604,4.8604,4.8604,4.8604,4.8604,4.8604,4.8604,4.8604,4.8604,4.8604,4.8604,4.8604,4.8604,4.8604,4.8604,4.8604,4.8604,4.8604,4.8604,4.8604,4.8604,4.8604,4.8604,4.8604,4.8604,4.8604,4.8604,4.8604,4.8604,4.8286,4.7864,4.7779,4.8566,4.983,5.0304,4.9621,4.8495,4.8134,4.8134,4.8134,4.8134,4.8134,4.8134,4.8134,4.8134,4.8032,4.761,4.7507,4.8032,4.7391,4.7494,4.7917,4.8032,4.7917,4.8032,4.8134,4.8134,4.8134,4.812,4.8018,4.8018,4.7801,4.7507,4.7507,4.7494,4.7596,4.7596,4.7712,4.7917,4.7494,4.686,4.6126,4.5167,4.4951,4.4938,4.4938,4.483,4.4735,4.4735,4.4735,4.4735,4.4735,4.4735,4.4735,4.4735,4.4735,4.4735,4.4735,4.4735,4.4735,4.4735,4.4735,4.4735,4.4735,4.4735,4.4735,4.6111,4.5551,4.4843,4.4556,4.4572,4.4572,4.4618,4.4741,4.4695,4.5095,4.588,4.6896,4.7496,4.7835,4.8266,4.8527,4.8604,4.8604,4.8604,4.8604,4.8604,4.8604,4.8604,4.8604,4.8604,4.8604,4.8604,4.8604,4.8604,4.8604,4.8604,4.8604,4.8604,4.8604,4.8604,4.8604,4.8604,4.8604,4.8604,4.8604,4.8604,4.8604,4.8604,4.8604,4.8604,4.8604,4.8604,4.8604,4.8172,4.7478,4.7133,4.7133,4.8275,4.9008,4.8528,4.8324,4.8007,4.8021,4.8092,4.8134,4.8134,4.8134,4.8134,4.8134,4.8032,4.761,4.761,4.7815,4.7067,4.7053,4.7494,4.7712,4.761,4.7699,4.7699,4.7917,4.7917,4.812,4.8018,4.8004,4.7699,4.7405,4.6873,4.6963,4.6963,4.7067,4.7184,4.7288,4.7081,4.6546,4.6126,4.5488,4.4938,4.483,4.4735,4.4735,4.4735,4.4735,4.4735,4.4735,4.4735,4.4735,4.4735,4.4735,4.4735,4.4735,4.4735,4.4735,4.4735,4.4735,4.4735,4.4735,4.4735,4.4735,4.4735,4.467,4.4793,4.409,4.4127,4.4572,4.4435,4.4511,4.4572,4.4572,4.4957,4.5603,4.6157,4.6834,4.7481,4.7819,4.825,4.8558,4.8604,4.8604,4.8604,4.8604,4.8604,4.8604,4.8604,4.8604,4.8604,4.8604,4.8604,4.8604,4.8604,4.8604,4.8604,4.8604,4.8604,4.8604,4.8604,4.8604,4.8604,4.8604,4.8604,4.8604,4.8604,4.8604,4.8604,4.8604,4.8604,4.8604,4.8604,4.7904,4.7204,4.6682,4.6506,4.6284,4.6885,4.7381,4.7799,4.7684,4.7797,4.8035,4.8106,4.8134,4.8134,4.8134,4.8134,4.8018,4.7288,4.7184,4.7067,4.6546,4.6428,4.6846,4.686,4.686,4.7067,4.7377,4.7596,4.7801,4.7917,4.812,4.8018,4.7596,4.7184,4.6651,4.6218,4.6323,4.6442,4.6546,4.6651,4.6546,4.6231,4.5808,4.5488,4.4938,4.4722,4.4735,4.4735,4.4735,4.4735,4.4735,4.4735,4.4735,4.4735,4.4735,4.4735,4.4735,4.4735,4.4735,4.4735,4.4735,4.4735,4.4735,4.4735,4.4735,4.4735,4.4735,4.3911,4.4283,4.3437,4.3697,4.4526,4.4358,4.4343,4.4572,4.4496,4.4803,4.5311,4.5511,4.6049,4.688,4.7527,4.7819,4.825,4.8466,4.8573,4.8604,4.8604,4.8604,4.8604,4.8604,4.8604,4.8604,4.8604,4.8604,4.8604,4.8604,4.8604,4.8604,4.8604,4.8604,4.8604,4.8604,4.8604,4.8604,4.8604,4.8604,4.8604,4.8604,4.8604,4.8604,4.8604,4.8604,4.8604,4.8521,4.8003,4.7219,4.6418,4.5642,4.5025,4.4818,4.5605,4.6476,4.7221,4.7303,4.7525,4.7934,4.8106,4.8134,4.8134,4.8134,4.7815,4.7171,4.7053,4.7391,4.6442,4.5702,4.6323,4.6533,4.6428,4.6637,4.7184,4.7507,4.761,4.7815,4.7917,4.8018,4.761,4.7081,4.6442,4.5901,4.5795,4.5901,4.602,4.6231,4.6323,4.602,4.5702,4.5274,4.4951,4.4843,4.4735,4.4735,4.4735,4.4735,4.4735,4.4735,4.4735,4.4735,4.4735,4.4735,4.4735,4.4735,4.4735,4.4735,4.4735,4.4735,4.4735,4.4735,4.4735,4.4735,4.4735,4.3974,4.4276,4.3122,4.3426,4.4387,4.4189,4.4189,4.4496,4.4435,4.4481,4.4772,4.5249,4.5572,4.6018,4.6896,4.7369,4.7768,4.8199,4.846,4.8506,4.8604,4.8604,4.8604,4.8604,4.8604,4.8604,4.8604,4.8604,4.8604,4.8604,4.8604,4.8604,4.8521,4.8521,4.8604,4.8604,4.8604,4.8604,4.8604,4.8604,4.8604,4.8604,4.8604,4.8604,4.8604,4.8604,4.8521,4.8521,4.8019,4.7234,4.6521,4.5642,4.4612,4.4987,4.5226,4.4916,4.6364,4.6712,4.6533,4.748,4.7861,4.7917,4.7801,4.7917,4.7917,4.748,4.7157,4.7494,4.6218,4.5795,4.6126,4.6337,4.6112,4.6112,4.6651,4.6977,4.7081,4.7391,4.7494,4.7815,4.7507,4.7081,4.6337,4.5688,4.5381,4.5381,4.5595,4.5688,4.5901,4.5688,4.5274,4.5167,4.4843,4.4735,4.4735,4.4735,4.4735,4.4735,4.4735,4.4735,4.4735,4.4735,4.4735,4.4735,4.4735,4.4735,4.4735,4.4735,4.4735,4.4735,4.4735,4.4735,4.4735,4.4735,4.4735,4.2422,4.3237,4.2435,4.2627,4.3526,4.3305,4.3563,4.4143,4.4281,4.4435,4.4603,4.4864,4.5218,4.5664,4.5907,4.6613,4.738,4.7482,4.7819,4.8423,4.8521,4.8604,4.8604,4.862,4.8604,4.8604,4.8604,4.8604,4.8604,4.8604,4.8604,4.8604,4.8537,4.8453,4.8521,4.8604,4.8604,4.8604,4.8604,4.8604,4.8604,4.8604,4.8604,4.8604,4.8604,4.8438,4.8355,4.8271,4.7849,4.7061,4.6344,4.5987,4.4847,4.4955,4.472,4.4551,4.5619,4.6056,4.6311,4.7105,4.726,4.726,4.7377,4.7494,4.7494,4.726,4.7274,4.7288,4.6337,4.602,4.5914,4.5488,4.5261,4.5261,4.5582,4.5914,4.6231,4.6651,4.6963,4.7288,4.7301,4.6963,4.6428,4.5808,4.5381,4.5059,4.5167,4.5167,4.5261,4.5154,4.4951,4.4843,4.4722,4.4735,4.4735,4.4735,4.4735,4.4735,4.4735,4.4735,4.4735,4.4735,4.4735,4.4735,4.4735,4.4748,4.4918,4.5009,4.48,4.4735,4.4839,4.48,4.4735,4.4735,4.4735,4.1512,4.2338,4.1868,4.2015,4.2519,4.2348,4.2711,4.3531,4.4021,4.4281,4.4435,4.4526,4.4726,4.5126,4.5416,4.5565,4.6635,4.7073,4.7302,4.7897,4.8225,4.8339,4.8453,4.8537,4.8521,4.8521,4.8604,4.8604,4.8604,4.8604,4.8604,4.8521,4.837,4.8385,4.8453,4.8453,4.837,4.8453,4.8453,4.8537,4.8521,4.8604,4.8604,4.8521,4.8355,4.8103,4.7919,4.7664,4.7407,4.6697,4.6432,4.6418,4.537,4.4755,4.4583,4.4659,4.4743,4.5344,4.5979,4.597,4.6111,4.5867,4.6515,4.6963,4.7081,4.7274,4.7274,4.7184,4.6455,4.6126,4.5795,4.5261,4.4843,4.4843,4.5167,4.5488,4.5702,4.6112,4.6533,4.6873,4.7198,4.686,4.6637,4.602,4.5502,4.5167,4.4843,4.4843,4.4735,4.4735,4.4735,4.4735,4.4735,4.4735,4.4735,4.4735,4.4735,4.4735,4.4813,4.4905,4.4735,4.4735,4.4735,4.4813,4.4983,4.5153,4.5297,4.531,4.5114,4.5062,4.514,4.5022,4.48,4.4735,4.4735,4.1607,4.1706,4.1525,4.1518,4.1635,4.1487,4.1881,4.2711,4.3576,4.4066,4.422,4.422,4.4435,4.4665,4.5032,4.5306,4.5517,4.6376,4.6772,4.7167,4.7646,4.7943,4.8194,4.824,4.8355,4.8453,4.8537,4.8438,4.8521,4.8521,4.8521,4.8521,4.837,4.8301,4.8218,4.8049,4.8133,4.8218,4.8301,4.837,4.8453,4.8537,4.8537,4.8355,4.8003,4.7548,4.7276,4.7016,4.6755,4.6418,4.6447,4.6521,4.6166,4.5551,4.494,4.4471,4.4414,4.4941,4.507,4.5078,4.4948,4.4952,4.5509,4.6015,4.6546,4.7067,4.7184,4.7067,4.6546,4.6428,4.6099,4.5475,4.4735,4.4951,4.5167,4.5381,4.5488,4.5808,4.6126,4.6546,4.6873,4.6873,4.6755,4.6337,4.5715,4.5595,4.5261,4.5059,4.4951,4.4722,4.4735,4.4735,4.4735,4.4735,4.4761,4.4839,4.4996,4.5075,4.5166,4.5232,4.5009,4.4983,4.5218,4.5401,4.5454,4.5584,4.578,4.5689,4.5454,4.5415,4.531,4.5049,4.4774,4.4748,4.4735,4.126,4.0873,4.082,4.0777,4.0847,4.0749,4.1205,4.2002,4.2757,4.3198,4.3366,4.3852,4.4051,4.4158,4.42,4.4534,4.4959,4.5319,4.5743,4.6243,4.6849,4.7243,4.7486,4.7829,4.8027,4.8103,4.8187,4.8202,4.8218,4.8286,4.837,4.837,4.8202,4.8049,4.7794,4.7624,4.7794,4.7964,4.8049,4.8133,4.8218,4.8202,4.8286,4.8187,4.7649,4.7204,4.6827,4.6196,4.5764,4.5158,4.4805,4.4791,4.5912,4.4541,4.3369,4.3533,4.3973,4.4566,4.4266,4.4441,4.4474,4.409,4.4213,4.4784,4.5579,4.6282,4.6701,4.6651,4.6337,4.6112,4.5901,4.5261,4.4843,4.4843,4.5059,4.5059,4.5167,4.5274,4.5595,4.602,4.6442,4.6651,4.6651,4.6442,4.5914,4.5901,4.5822,4.5448,4.5085,4.4869,4.4722,4.4735,4.4866,4.4905,4.497,4.5049,4.5258,4.5428,4.5467,4.5597,4.5715,4.5754,4.5911,4.595,4.5924,4.6081,4.6303,4.612,4.582,4.5454,4.5284,4.5009,4.4787,4.4761,4.4735,4.126,4.094,4.0873,4.0873,4.0867,4.0573,4.0671,4.0979,4.2092,4.2575,4.2607,4.3198,4.3531,4.3563,4.3469,4.3708,4.4422,4.464,4.489,4.5303,4.6003,4.6312,4.6645,4.7122,4.7448,4.7615,4.7828,4.8049,4.8049,4.8049,4.8202,4.8118,4.7964,4.7794,4.7624,4.7467,4.7467,4.7639,4.781,4.788,4.7964,4.7964,4.8133,4.8034,4.7493,4.6944,4.6285,4.5389,4.4869,4.4153,4.3573,4.4233,4.4883,4.341,4.2693,4.2844,4.3423,4.3641,4.3596,4.3932,4.3875,4.3632,4.337,4.3768,4.4467,4.5182,4.5726,4.5901,4.5808,4.5595,4.5381,4.5167,4.4951,4.4735,4.4735,4.4735,4.4735,4.4735,4.5059,4.5595,4.5901,4.6218,4.6218,4.6112,4.6047,4.5888,4.5754,4.5642,4.528,4.4974,4.48,4.4735,4.4944,4.5114,4.5205,4.531,4.5441,4.5558,4.5545,4.5741,4.6146,4.6382,4.6395,4.6369,4.6329,4.6591,4.6931,4.6499,4.6159,4.5846,4.5558,4.5323,4.5049,4.4748,4.4735,4.1459,4.1393,4.1409,4.1393,4.1393,4.0783,4.0152,3.9676,4.1415,4.2001,4.1791,4.2394,4.2848,4.3015,4.2982,4.3313,4.3826,4.4088,4.4173,4.4287,4.4997,4.538,4.5755,4.6177,4.6577,4.7031,4.7364,4.7613,4.7949,4.7964,4.7964,4.7964,4.7794,4.7624,4.7553,4.7381,4.7381,4.7381,4.7553,4.7624,4.7794,4.7895,4.798,4.7779,4.7163,4.6358,4.5298,4.467,4.4326,4.3654,4.3368,4.3843,4.3286,4.2541,4.2289,4.2413,4.2774,4.2898,4.2909,4.3233,4.3197,4.3138,4.3269,4.3201,4.3532,4.415,4.4811,4.505,4.493,4.5116,4.4954,4.4912,4.4735,4.4735,4.4735,4.4735,4.4735,4.4735,4.4843,4.5274,4.5368,4.5688,4.6007,4.5914,4.602,4.5822,4.5633,4.5599,4.5407,4.5118,4.5153,4.5062,4.5336,4.5597,4.5584,4.5663,4.5624,4.5663,4.5833,4.6173,4.6787,4.6878,4.6839,4.6891,4.6983,4.7296,4.7479,4.6931,4.6538,4.6486,4.6173,4.578,4.5388,4.4822,4.4626,4.1194,4.0737,4.0752,4.0992,4.1393,4.0805,4.0409,4.0237,4.0618,4.0801,4.0935,4.1835,4.2466,4.2376,4.2767,4.3127,4.3551,4.3498,4.3648,4.3903,4.4368,4.4541,4.4758,4.5365,4.565,4.592,4.6341,4.7041,4.7528,4.7649,4.7779,4.7964,4.7709,4.7553,4.7553,4.7381,4.7294,4.7294,4.7381,4.7467,4.7553,4.7553,4.7467,4.7452,4.6931,4.627,4.5235,4.4406,4.3573,4.2541,4.2065,4.2065,4.1881,4.1498,4.1498,4.1696,4.2092,4.2289,4.2329,4.2547,4.2457,4.2246,4.2259,4.2207,4.2603,4.335,4.3846,4.4044,4.4321,4.4544,4.4647,4.463,4.4735,4.4735,4.4735,4.4735,4.4735,4.4735,4.4843,4.4843,4.4951,4.5154,4.5582,4.5808,4.5914,4.5835,4.5648,4.5594,4.5589,4.5467,4.5885,4.5924,4.6042,4.6199,4.6094,4.6146,4.6186,4.6512,4.6826,4.714,4.7414,4.7453,4.7466,4.7571,4.7715,4.7832,4.7649,4.7061,4.6787,4.6774,4.6565,4.6055,4.52,4.4623,4.4526,4.1591,4.0992,4.0925,4.1327,4.1787,4.1276,4.0805,4.0486,4.0145,3.9978,4.0083,4.098,4.1504,4.1489,4.1893,4.2596,4.2962,4.2974,4.3229,4.3528,4.3648,4.3808,4.4152,4.4511,4.4766,4.5035,4.5574,4.6241,4.6971,4.7046,4.7132,4.7619,4.7523,4.7437,4.7452,4.7381,4.7309,4.7309,4.7309,4.7309,4.7309,4.7309,4.7309,4.7294,4.7019,4.6373,4.5703,4.4776,4.3843,4.2625,4.1881,4.1498,4.1498,4.1311,4.1311,4.1411,4.1597,4.1782,4.1782,4.1881,4.198,4.1696,4.1895,4.2079,4.169,4.2461,4.2944,4.3206,4.3782,4.4057,4.4359,4.4408,4.4643,4.4735,4.4735,4.4735,4.4735,4.4735,4.4735,4.4735,4.4843,4.483,4.5154,4.5167,4.5314,4.5473,4.5352,4.5949,4.5919,4.5823,4.6324,4.6643,4.6656,4.6552,4.6355,4.6565,4.6865,4.7257,4.7623,4.7675,4.7715,4.7963,4.812,4.8015,4.795,4.7989,4.7689,4.7323,4.6878,4.6734,4.6538,4.6264,4.5395,4.457,4.4241,4.211,4.1541,4.1459,4.1917,4.2396,4.1656,4.106,4.0547,3.9768,3.9439,3.9529,4.0083,4.0262,4.0397,4.0576,4.1369,4.1938,4.2177,4.2596,4.2806,4.2955,4.3075,4.3344,4.3733,4.4062,4.4556,4.5125,4.5768,4.6426,4.6486,4.6696,4.71,4.7174,4.716,4.7204,4.7294,4.7309,4.7309,4.7309,4.7309,4.7309,4.7309,4.7309,4.7309,4.7222,4.6741,4.6151,4.5494,4.467,4.3273,4.1881,4.1498,4.1311,4.1311,4.1311,4.1311,4.1311,4.1411,4.1411,4.171,4.161,4.161,4.1895,4.1809,4.145,4.1598,4.2082,4.2474,4.3036,4.3559,4.3872,4.4186,4.4434,4.4722,4.4722,4.4735,4.4735,4.4735,4.4735,4.4735,4.4735,4.4722,4.4735,4.4735,4.4879,4.5049,4.5441,4.614,4.6507,4.6494,4.6795,4.6944,4.6983,4.6839,4.6774,4.6996,4.7414,4.7479,4.7741,4.7871,4.7989,4.8107,4.8185,4.8172,4.8133,4.8107,4.812,4.7898,4.7427,4.6917,4.6552,4.6342,4.5727,4.4828,4.3975,4.219,4.1525,4.1525,4.1917,4.2301,4.126,4.094,4.106,3.995,3.9424,3.9454,3.9544,3.9843,4.0427,4.0995,4.1489,4.1579,4.1669,4.1594,4.1728,4.2162,4.2312,4.2551,4.3015,4.3464,4.4062,4.4766,4.5603,4.5858,4.6097,4.6352,4.6501,4.6516,4.6546,4.6606,4.683,4.7204,4.7204,4.7279,4.7309,4.7309,4.7309,4.7309,4.7309,4.7309,4.6638,4.6077,4.5883,4.4563,4.3177,4.1868,4.1398,4.1311,4.1311,4.1311,4.1311,4.1311,4.1311,4.1411,4.1511,4.1411,4.1411,4.161,4.1511,4.1324,4.1337,4.1651,4.1703,4.2278,4.2971,4.3363,4.3742,4.4042,4.4487,4.467,4.4709,4.4735,4.4735,4.4735,4.4735,4.4735,4.4735,4.4735,4.4813,4.5214,4.5328,4.5642,4.6206,4.6942,4.7105,4.7179,4.7257,4.7336,4.761,4.7767,4.7662,4.7885,4.7871,4.7871,4.7989,4.8094,4.8133,4.8185,4.8185,4.8185,4.8159,4.8172,4.8185,4.7976,4.7453,4.6813,4.6395,4.5805,4.4883,4.3752]},{"header":{"parameterUnit":"m.s-1","parameterCategory":1,"la1":31.0,"la2":29.5877,"lo1":-88.7671,"lo2":-86.6584,"dx":0.0162,"dy":0.0185,"nx":115,"ny":88,"refTime":"2022-12-05T18:00:00:Z","depth":0,"parameterNumber":3,"parameterNumberName":"V-component_of_WINDS"},"data":[0.0,0.0,0.0,0.0,0.0,0.0,0.0,0.0,0.0,0.0,0.0,0.0,0.0,0.0,0.0,0.0,0.0,0.0,0.0,0.0,0.0,0.0,0.0,0.0,0.0,0.0,0.0,0.0,0.0,0.0,0.0,0.0,0.0,0.0,0.0,0.0,0.0,0.0,0.0,0.0,0.0,0.0,0.0,0.0,0.0,0.0,0.0,0.0,0.0,0.0,0.0,0.0,0.0,0.0,0.0,0.0,0.0,0.0,0.0,0.0,0.0,0.0,0.0,0.0,0.0,0.0,0.0,0.0,0.0,0.0,0.0,0.0,0.0,0.0,0.0,0.0,0.0,0.0,0.0,0.0,0.0,0.0,0.0,0.0,0.0,0.0,0.0,0.0,0.0,0.0,0.0,0.0,0.0,0.0,0.0,0.0,0.0,0.0,0.0,0.0,0.0,0.0,0.0,0.0,0.0,0.0,0.0,0.0,0.0,0.0,0.0,0.0,0.0,0.0,0.0,0.0,0.0,0.0,0.0,0.0,0.0,0.0,0.0,0.0,0.0,0.0,0.0,0.0,0.0,0.0,0.0,0.0,0.0,0.0,0.0,0.0,0.0,0.0,0.0,0.0,0.0,0.0,0.0,0.0,0.0,0.0,0.0,0.0,0.0,0.0,0.0,0.0,0.0,0.0,0.0,0.0,0.0,0.0,0.0,0.0,0.0,0.0,0.0,0.0,0.0,0.0,0.0,0.0,0.0,0.0,0.0,0.0,0.0,0.0,0.0,0.0,0.0,0.0,0.0,0.0,0.0,0.0,0.0,0.0,0.0,0.0,0.0,0.0,0.0,0.0,0.0,0.0,0.0,0.0,0.0,0.0,0.0,0.0,0.0,0.0,0.0,0.0,0.0,0.0,0.0,0.0,0.0,0.0,0.0,0.0,0.0,0.0,0.0,0.0,0.0,0.0,0.0,0.0,0.0,0.0,0.0,0.0,0.0,0.0,0.0,0.0,0.0,0.0,0.0,0.0,0.0,0.0,0.0,0.0,0.0,0.0,0.0,0.0,0.0,0.0,0.0,0.0,0.0,0.0,0.0,0.0,0.0,0.0,0.0,0.0,0.0,0.0,0.0,0.0,0.0,0.0,0.0,0.0,0.0,0.0,0.0,0.0,0.0,0.0,0.0,0.0,0.0,0.0,0.0,0.0,0.0,0.0,0.0,0.0,0.0,0.0,0.0,0.0,0.0,0.0,0.0,0.0,0.0,0.0,0.0,0.0,0.0,0.0,0.0,0.0,0.0,0.0,0.0,0.0,0.0,0.0,0.0,0.0,0.0,0.0,0.0,0.0,0.0,0.0,0.0,0.0,0.0,0.0,0.0,0.0,0.0,0.0,0.0,0.0,0.0,0.0,0.0,0.0,0.0,0.0,0.0,0.0,0.0,0.0,0.0,0.0,0.0,0.0,0.0,0.0,0.0,0.0,0.0,0.0,0.0,0.0,0.0,0.0,0.0,0.0,0.0,0.0,0.0,0.0,0.0,0.0,0.0,0.0,0.0,0.0,0.0,0.0,0.0,0.0,0.0,0.0,0.0,0.0,0.0,0.0,0.0,0.0,0.0,0.0,0.0,0.0,0.0,0.0,0.0,0.0,0.0,0.0,0.0,0.0,0.0,0.0,0.0,0.0,0.0,0.0,0.0,0.0,0.0,0.0,0.0,0.0,0.0,0.0,0.0,0.0,0.0,0.0,0.0,0.0,0.0,0.0,0.0,0.0,0.0,0.0,0.0,0.0,0.0,0.0,0.0,0.0,0.0,0.0,0.0,0.0,0.0,0.0,0.0,0.0,0.0,0.0,0.0,0.0,0.0,0.0,0.0,0.0,0.0,0.0,0.0,0.0,0.0,0.0,0.0,0.0,0.0,0.0,0.0,0.0,0.0,0.0,0.0,0.0,0.0,0.0,0.0,0.0,0.0,0.0,0.0,0.0,0.0,0.0,0.0,0.0,0.0,0.0,0.0,0.0,0.0,0.0,0.0,0.0,0.0,0.0,0.0,0.0,0.0,0.0,0.0,0.0,0.0,0.0,0.0,0.0,0.0,0.0,0.0,0.0,0.0,0.0,0.0,0.0,0.0,0.0,0.0,0.0,0.0,0.0,0.0,0.0,0.0,0.0,0.0,0.0,0.0,0.0,0.0,0.0,0.0,0.0,0.0,0.0,0.0,0.0,0.0,0.0,0.0,0.0,0.0,0.0,0.0,0.0,0.0,0.0,0.0,0.0,0.0,0.0,0.0,0.0,0.0,0.0,0.0,0.0,0.0,0.0,0.0,0.0,0.0,0.0,0.0,0.0,0.0,0.0,0.0,0.0,0.0,0.0,0.0,0.0,0.0,0.0,0.0,0.0,0.0,0.0,0.0,0.0,0.0,0.0,0.0,0.0,0.0,0.0,0.0,0.0,0.0,0.0,0.0,0.0,0.0,0.0,0.0,0.0,0.0,0.0,0.0,0.0,0.0,0.0,0.0,0.0,0.0,0.0,0.0,0.0,0.0,0.0,0.0,0.0,0.0,0.0,0.0,0.0,0.0,0.0,0.0,0.0,0.0,0.0,0.0,0.0,0.0,0.0,0.0,0.0,0.0,0.0,0.0,0.0,0.0,0.0,0.0,0.0,0.0,0.0,0.0,0.0,0.0,0.0,0.0,0.0,0.0,0.0,0.0,0.0,0.0,0.0,0.0,0.0,0.0,0.0,0.0,0.0,0.0,0.0,0.0,0.0,0.0,0.0,0.0,0.0,0.0,0.0,0.0,0.0,0.0,0.0,0.0,0.0,0.0,0.0,0.0,0.0,0.0,0.0,0.0,0.0,0.0,0.0,0.0,0.0,0.0,0.0,0.0,0.0,0.0,0.0,0.0,0.0,0.0,0.0,0.0,0.0,0.0,0.0,0.0,0.0,0.0,0.0,0.0,0.0,0.0,0.0,0.0,0.0,0.0,0.0,0.0,0.0,0.0,0.0,0.0,0.0,0.0,0.0,0.0,0.0,0.0,0.0,0.0,0.0,0.0,0.0,0.0,0.0,0.0,0.0,0.0,0.0,0.0,0.0,0.0,0.0,0.0,0.0,0.0,0.0,0.0,0.0,0.0,0.0,0.0,0.0,0.0,0.0,0.0,0.0,0.0,0.0,0.0,0.0,0.0,0.0,0.0,0.0,0.0,0.0,0.0,0.0,0.0,0.0,0.0,0.0,0.0,0.0,0.0,0.0,0.0,0.0,0.0,0.0,0.0,0.0,0.0,0.0,0.0,0.0,0.0,0.0,0.0,0.0,0.0,0.0,0.0,0.0,0.0,0.0,0.0,0.0,0.0,0.0,0.0,0.0,0.0,0.0,0.0,0.0,0.0,0.0,0.0,0.0,0.0,0.0,0.0,0.0,0.0,0.0,0.0,0.0,0.0,0.0,0.0,0.0,0.0,0.0,0.0,0.0,0.0,0.0,0.0,0.0,0.0,0.0,0.0,0.0,0.0,0.0,0.0,0.0,0.0,0.0,0.0,0.0,0.0,0.0,0.0,0.0,0.0,0.0,0.0,0.0,0.0,0.0,0.0,0.0,0.0,0.0,0.0,0.0,0.0,0.0,0.0,0.0,0.0,0.0,0.0,0.0,0.0,0.0,0.0,0.0,0.0,0.0,0.0,0.0,0.0,0.0,0.0,0.0,0.0,0.0,0.0,0.0,0.0,0.0,0.0,0.0,0.0,0.0,0.0,0.0,0.0,0.0,0.0,0.0,0.0,0.0,0.0,0.0,0.0,0.0,0.0,0.0,0.0,0.0,0.0,0.0,0.0,0.0,0.0,0.0,0.0,0.0,0.0,0.0,0.0,0.0,0.0,0.0,0.0,0.0,0.0,0.0,0.0,0.0,0.0,0.0,0.0,0.0,0.0,0.0,0.0,0.0,0.0,0.0,0.0,0.0,0.0,0.0,0.0,0.0,0.0,0.0,0.0,0.0,0.0,0.0,0.0,0.0,0.0,0.0,0.0,0.0,0.0,0.0,0.0,0.0,0.0,0.0,0.0,0.0,0.0,0.0,0.0,0.0,0.0,0.0,0.0,0.0,0.0,0.0,0.0,0.0,0.0,0.0,0.0,0.0,0.0,0.0,0.0,0.0,0.0,0.0,0.0,0.0,0.0,0.0,0.0,0.0,0.0,0.0,0.0,0.0,0.0,0.0,0.0,0.0,0.0,0.0,0.0,0.0,0.0,0.0,0.0,0.0,-0.6466,0.0,0.0,0.0,-0.6808,0.0,0.0,0.0,0.0,0.0,0.0,0.0,0.0,0.0,0.0,0.0,0.0,0.0,0.0,0.0,0.0,0.0,0.0,0.0,0.0,0.0,0.0,0.0,0.0,0.0,0.0,0.0,0.0,0.0,0.0,0.0,0.0,0.0,0.0,0.0,0.0,0.0,0.0,0.0,0.0,0.0,0.0,0.0,0.0,0.0,0.0,0.0,0.0,0.0,0.0,0.0,0.0,0.0,0.0,0.0,0.0,0.0,0.0,0.0,0.0,0.0,0.0,0.0,0.0,0.0,0.0,0.0,0.0,0.0,0.0,0.0,0.0,0.0,0.0,0.0,0.0,0.0,0.0,0.0,0.0,0.0,0.0,0.0,0.0,0.0,0.0,0.0,0.0,0.0,0.0,0.0,0.0,0.0,0.0,0.0,0.0,0.0,0.0,0.0,0.0,0.0,0.0,0.0,0.0,0.0,0.0,0.0,0.0,0.0,0.0,-0.6803,-0.707,-0.7078,-0.6991,-0.6816,0.0,0.0,0.0,0.0,0.0,0.0,0.0,0.0,0.0,0.0,0.0,0.0,0.0,0.0,0.0,0.0,0.0,0.0,0.0,0.0,0.0,0.0,0.0,0.0,0.0,0.0,0.0,0.0,0.0,0.0,0.0,0.0,0.0,0.0,0.0,0.0,0.0,0.0,0.0,0.0,0.0,0.0,0.0,0.0,0.0,0.0,0.0,0.0,0.0,0.0,0.0,0.0,0.0,0.0,0.0,0.0,0.0,0.0,0.0,0.0,0.0,0.0,0.0,0.0,0.0,0.0,0.0,0.0,0.0,0.0,0.0,0.0,0.0,0.0,0.0,0.0,0.0,0.0,0.0,0.0,0.0,0.0,0.0,0.0,0.0,0.0,0.0,0.0,0.0,0.0,0.0,0.0,0.0,0.0,0.0,0.0,0.0,0.0,0.0,0.0,0.0,0.0,0.0,0.0,0.0,0.0,0.0,0.0,0.0,0.0,0.0,0.0,-0.7293,-0.7142,-0.6816,0.0,0.0,0.0,0.0,0.0,0.0,0.0,0.0,0.0,0.0,0.0,0.0,0.0,0.0,0.0,0.0,0.0,0.0,0.0,0.0,0.0,0.0,0.0,0.0,0.0,0.0,0.0,0.0,0.0,0.0,0.0,0.0,0.0,0.0,0.0,0.0,0.0,0.0,0.0,0.0,0.0,0.0,0.0,0.0,0.0,0.0,0.0,0.0,0.0,0.0,0.0,0.0,0.0,0.0,0.0,0.0,0.0,0.0,0.0,0.0,0.0,0.0,0.0,0.0,0.0,0.0,0.0,0.0,0.0,0.0,0.0,0.0,0.0,0.0,0.0,0.0,0.0,0.0,0.0,0.0,0.0,0.0,0.0,0.0,0.0,0.0,0.0,0.0,0.0,0.0,0.0,0.0,0.0,0.0,0.0,0.0,0.0,0.0,0.0,0.0,0.0,0.0,0.0,0.0,0.0,0.0,0.0,0.0,0.0,0.0,-0.7531,-0.7301,-0.7301,0.0,-0.684,0.0,0.0,0.0,0.0,0.0,0.0,0.0,0.0,0.0,0.0,0.0,0.0,0.0,0.0,0.0,0.0,0.0,0.0,0.0,0.0,0.0,0.0,0.0,0.0,0.0,0.0,0.0,0.0,0.0,0.0,0.0,0.0,0.0,0.0,0.0,0.0,0.0,0.0,0.0,0.0,0.0,0.0,0.0,0.0,0.0,0.0,0.0,0.0,0.0,0.0,0.0,0.0,0.0,0.0,0.0,0.0,0.0,0.0,0.0,0.0,0.0,0.0,0.0,0.0,0.0,0.0,0.0,0.0,0.0,0.0,0.0,0.0,0.0,0.0,0.0,0.0,0.0,0.0,0.0,0.0,0.0,0.0,0.0,0.0,0.0,0.0,0.0,0.0,0.0,0.0,0.0,0.0,0.0,0.0,0.0,0.0,0.0,0.0,0.0,0.0,0.0,0.0,0.0,0.0,0.0,0.0,0.0,0.0,0.0,0.0,-0.77,-0.7718,-0.7616,-0.7489,0.0,0.0,0.0,0.0,0.0,0.0,0.0,0.0,0.0,0.0,0.0,0.0,0.0,0.0,0.0,0.0,0.0,0.0,0.0,0.0,0.0,0.0,0.0,0.0,0.0,0.0,0.0,0.0,0.0,0.0,0.0,0.0,0.0,0.0,0.0,0.0,0.0,0.0,0.0,0.0,0.0,0.0,0.0,0.0,0.0,0.0,0.0,0.0,0.0,0.0,0.0,0.0,0.0,0.0,0.0,0.0,0.0,0.0,0.0,0.0,0.0,0.0,0.0,0.0,0.0,0.0,0.0,0.0,0.0,0.0,0.0,0.0,0.0,0.0,0.0,0.0,0.0,0.0,0.0,0.0,0.0,0.0,0.0,0.0,0.0,0.0,0.0,0.0,0.0,0.0,0.0,0.0,0.0,0.0,0.0,0.0,0.0,0.0,0.0,0.0,0.0,0.0,0.0,0.0,0.0,0.0,0.0,0.0,0.0,0.0,-0.771,-0.7832,-0.7957,-0.7879,-0.7827,-0.7802,0.0,0.0,0.0,0.0,0.0,0.0,0.0,0.0,0.0,0.0,0.0,0.0,0.0,0.0,0.0,0.0,0.0,0.0,0.0,0.0,0.0,0.0,0.0,0.0,0.0,0.0,0.0,0.0,0.0,0.0,0.0,0.0,0.0,0.0,0.0,0.0,0.0,0.0,0.0,0.0,0.0,0.0,0.0,0.0,0.0,0.0,0.0,0.0,0.0,0.0,0.0,0.0,0.0,0.0,0.0,0.0,0.0,0.0,0.0,0.0,0.0,0.0,0.0,0.0,0.0,0.0,0.0,0.0,0.0,0.0,0.0,0.0,0.0,0.0,0.0,0.0,0.0,0.0,0.0,0.0,0.0,0.0,0.0,0.0,0.0,0.0,0.0,0.0,0.0,0.0,0.0,0.0,0.0,0.0,0.0,0.0,0.0,0.0,0.0,0.0,0.0,0.0,0.0,0.0,0.0,0.0,0.0,0.0,-0.7346,-0.7684,-0.7897,-0.7912,-0.807,-0.8037,0.0,0.0,0.0,0.0,0.0,0.0,0.0,0.0,0.0,0.0,0.0,0.0,0.0,0.0,0.0,0.0,0.0,0.0,0.0,0.0,0.0,0.0,0.0,0.0,0.0,0.0,0.0,0.0,0.0,0.0,0.0,0.0,0.0,0.0,0.0,0.0,0.0,0.0,0.0,0.0,0.0,0.0,0.0,0.0,0.0,0.0,0.0,0.0,0.0,0.0,0.0,0.0,0.0,0.0,0.0,0.0,0.0,0.0,0.0,0.0,0.0,0.0,0.0,0.0,0.0,0.0,0.0,0.0,0.0,0.0,0.0,0.0,0.0,0.0,0.0,0.0,0.0,0.0,0.0,0.0,0.0,0.0,0.0,0.0,0.0,0.0,0.0,0.0,0.0,0.0,0.0,0.0,0.0,0.0,0.0,0.0,0.0,0.0,0.0,0.0,0.0,0.0,0.0,0.0,0.0,0.0,0.0,0.0,0.0,-0.7529,-0.7563,-0.7628,-0.7746,-0.7836,-0.7908,0.0,0.0,0.0,0.0,0.0,0.0,0.0,0.0,0.0,0.0,0.0,0.0,0.0,0.0,0.0,0.0,0.0,0.0,0.0,0.0,0.0,0.0,0.0,0.0,0.0,0.0,0.0,0.0,0.0,0.0,0.0,0.0,0.0,0.0,0.0,0.0,0.0,0.0,0.0,0.0,0.0,0.0,0.0,0.0,0.0,0.0,0.0,0.0,0.0,0.0,0.0,0.0,0.0,0.0,0.0,0.0,0.0,0.0,0.0,0.0,0.0,0.0,0.0,0.0,0.0,0.0,0.0,0.0,0.0,0.0,0.0,0.0,0.0,0.0,0.0,0.0,0.0,0.0,0.0,0.0,0.0,0.0,0.0,0.0,0.0,0.0,0.0,0.0,0.0,0.0,0.0,0.0,0.0,0.0,0.0,0.0,0.0,0.0,0.0,0.0,0.0,0.0,0.0,0.0,0.0,0.0,0.0,0.0,0.0,-0.7603,-0.7536,-0.7584,-0.7766,-0.7752,-0.7908,0.0,0.0,0.0,0.0,0.0,0.0,0.0,0.0,0.0,0.0,0.0,0.0,0.0,0.0,0.0,0.0,0.0,0.0,0.0,0.0,0.0,0.0,0.0,0.0,0.0,0.0,0.0,0.0,0.0,0.0,0.0,0.0,0.0,0.0,0.0,0.0,0.0,0.0,0.0,0.0,0.0,0.0,0.0,0.0,0.0,0.0,0.0,0.0,0.0,0.0,0.0,0.0,0.0,0.0,0.0,0.0,0.0,0.0,0.0,0.0,0.0,0.0,0.0,0.0,0.0,0.0,0.0,0.0,0.0,0.0,0.0,0.0,0.0,0.0,0.0,0.0,0.0,0.0,0.0,0.0,0.0,0.0,0.0,0.0,0.0,0.0,0.0,0.0,0.0,0.0,0.0,0.0,0.0,0.0,0.0,0.0,0.0,0.0,0.0,0.0,0.0,0.0,0.0,0.0,0.0,0.0,0.0,0.0,-0.7595,-0.7443,-0.7629,-0.7754,-0.7916,-0.7923,-0.8024,0.0,0.0,0.0,0.0,0.0,0.0,0.0,0.0,0.0,0.0,0.0,0.0,0.0,0.0,0.0,0.0,0.0,0.0,0.0,0.0,0.0,0.0,0.0,0.0,0.0,0.0,0.0,0.0,0.0,0.0,0.0,0.0,0.0,0.0,0.0,0.0,0.0,0.0,0.0,0.0,0.0,0.0,0.0,0.0,0.0,0.0,0.0,0.0,0.0,0.0,0.0,0.0,0.0,0.0,0.0,0.0,0.0,0.0,0.0,0.0,0.0,0.0,0.0,0.0,0.0,0.0,0.0,0.0,0.0,0.0,0.0,0.0,0.0,0.0,0.0,0.0,0.0,0.0,0.0,0.0,0.0,0.0,0.0,0.0,0.0,0.0,0.0,0.0,0.0,0.0,0.0,0.0,0.0,0.0,0.0,0.0,0.0,0.0,0.0,0.0,0.0,0.0,0.0,0.0,0.0,0.0,0.0,0.0,0.0,-0.7882,-0.7869,-0.797,-0.8174,-0.8282,-0.8313,0.0,0.0,0.0,0.0,0.0,0.0,0.0,0.0,0.0,0.0,0.0,0.0,0.0,0.0,0.0,0.0,0.0,0.0,0.0,0.0,0.0,0.0,0.0,0.0,0.0,0.0,0.0,0.0,0.0,0.0,0.0,0.0,0.0,0.0,0.0,0.0,0.0,0.0,0.0,0.0,0.0,0.0,0.0,0.0,0.0,0.0,0.0,0.0,0.0,0.0,0.0,0.0,0.0,0.0,0.0,0.0,0.0,0.0,0.0,0.0,0.0,0.0,0.0,0.0,0.0,0.0,0.0,0.0,0.0,0.0,0.0,0.0,0.0,0.0,0.0,0.0,0.0,0.0,0.0,0.0,0.0,0.0,0.0,0.0,0.0,0.0,0.0,0.0,0.0,0.0,0.0,0.0,0.0,0.0,0.0,0.0,0.0,0.0,0.0,0.0,0.0,0.0,0.0,0.0,0.0,0.0,0.0,0.0,0.0,-0.9039,-0.8676,-0.8626,-0.8903,-0.8904,-0.8765,-0.8575,0.0,0.0,0.0,0.0,0.0,0.0,0.0,0.0,0.0,0.0,0.0,0.0,0.0,0.0,0.0,0.0,0.0,0.0,0.0,0.0,0.0,0.0,0.0,0.0,0.0,0.0,0.0,0.0,0.0,0.0,0.0,0.0,0.0,0.0,0.0,0.0,0.0,0.0,0.0,0.0,0.0,0.0,0.0,0.0,0.0,0.0,0.0,0.0,0.0,0.0,0.0,0.0,0.0,0.0,0.0,0.0,0.0,0.0,0.0,0.0,0.0,0.0,0.0,0.0,0.0,0.0,0.0,0.0,0.0,0.0,0.0,0.0,0.0,0.0,0.0,0.0,0.0,0.0,0.0,0.0,0.0,0.0,0.0,0.0,0.0,0.0,0.0,0.0,0.0,0.0,0.0,0.0,0.0,0.0,0.0,0.0,0.0,0.0,0.0,0.0,0.0,0.0,0.0,0.0,0.0,0.0,0.0,0.0,-1.0784,-1.0052,-0.9774,-1.0008,-0.9732,-0.9424,0.0,0.0,0.0,0.0,0.0,0.0,0.0,0.0,0.0,0.0,0.0,0.0,0.0,0.0,0.0,0.0,0.0,0.0,0.0,0.0,0.0,0.0,0.0,0.0,0.0,0.0,0.0,0.0,0.0,0.0,0.0,0.0,0.0,0.0,0.0,0.0,0.0,0.0,0.0,0.0,0.0,0.0,0.0,0.0,0.0,0.0,0.0,0.0,0.0,0.0,0.0,0.0,0.0,0.0,0.0,0.0,0.0,0.0,0.0,0.0,0.0,0.0,0.0,0.0,0.0,0.0,0.0,0.0,0.0,0.0,0.0,0.0,0.0,0.0,0.0,0.0,0.0,0.0,0.0,0.0,0.0,0.0,0.0,0.0,0.0,0.0,0.0,0.0,0.0,0.0,0.0,0.0,0.0,0.0,0.0,0.0,0.0,0.0,0.0,0.0,0.0,0.0,0.0,0.0,0.0,0.0,0.0,0.0,0.0,-1.1572,-1.1868,-1.1497,-1.0418,-1.0438,-1.0181,0.0,0.0,0.0,0.0,0.0,0.0,0.0,0.0,0.0,0.0,0.0,0.0,0.0,0.0,0.0,0.0,0.0,0.0,0.0,0.0,0.0,0.0,0.0,0.0,0.0,0.0,0.0,0.0,0.0,0.0,0.0,0.0,0.0,0.0,0.0,0.0,0.0,0.0,0.0,0.0,0.0,0.0,0.0,0.0,0.0,0.0,0.0,0.0,0.0,0.0,0.0,0.0,0.0,0.0,0.0,0.0,0.0,0.0,0.0,0.0,0.0,0.0,0.0,0.0,0.0,0.0,0.0,0.0,0.0,0.0,0.0,0.0,0.0,0.0,0.0,0.0,0.0,0.0,0.0,0.0,0.0,0.0,0.0,0.0,0.0,0.0,0.0,0.0,0.0,0.0,0.0,0.0,0.0,0.0,0.0,0.0,0.0,0.0,0.0,0.0,0.0,0.0,0.0,0.0,0.0,0.0,0.0,0.0,-1.2006,-1.2185,-1.2595,-1.2334,-1.1477,-1.1282,-1.0873,0.0,0.0,0.0,0.0,0.0,0.0,0.0,0.0,0.0,0.0,0.0,0.0,0.0,0.0,0.0,0.0,0.0,0.0,0.0,0.0,0.0,0.0,0.0,0.0,0.0,0.0,0.0,0.0,0.0,0.0,0.0,0.0,0.0,0.0,0.0,0.0,0.0,0.0,0.0,0.0,0.0,0.0,0.0,0.0,0.0,0.0,0.0,0.0,0.0,0.0,0.0,0.0,0.0,0.0,0.0,0.0,0.0,0.0,0.0,0.0,0.0,0.0,0.0,0.0,0.0,0.0,0.0,0.0,0.0,0.0,0.0,0.0,0.0,0.0,0.0,0.0,0.0,0.0,0.0,0.0,0.0,0.0,0.0,0.0,0.0,0.0,0.0,0.0,0.0,0.0,0.0,0.0,0.0,0.0,0.0,0.0,0.0,0.0,0.0,0.0,0.0,0.0,0.0,0.0,0.0,0.0,0.0,0.0,-1.2271,-1.2725,-1.2843,-1.2858,-1.275,-1.2112,-1.1423,0.0,0.0,0.0,0.0,0.0,0.0,0.0,0.0,0.0,0.0,0.0,0.0,0.0,0.0,0.0,0.0,0.0,0.0,0.0,0.0,0.0,0.0,0.0,0.0,0.0,0.0,0.0,0.0,0.0,0.0,0.0,0.0,0.0,0.0,0.0,0.0,0.0,0.0,0.0,0.0,0.0,0.0,0.0,0.0,0.0,0.0,0.0,0.0,0.0,0.0,0.0,0.0,0.0,0.0,0.0,0.0,0.0,0.0,0.0,0.0,0.0,0.0,0.0,0.0,0.0,0.0,0.0,0.0,0.0,0.0,0.0,0.0,0.0,0.0,0.0,0.0,0.0,0.0,0.0,0.0,0.0,0.0,0.0,0.0,0.0,0.0,0.0,0.0,0.0,0.0,0.0,0.0,0.0,0.0,0.0,0.0,0.0,0.0,0.0,0.0,0.0,0.0,0.0,0.0,0.0,0.0,0.0,0.0,-1.3885,-1.3685,-1.3908,-1.38,-1.3309,-1.251,-1.2052,0.0,0.0,0.0,0.0,0.0,0.0,0.0,0.0,0.0,0.0,0.0,0.0,0.0,0.0,0.0,0.0,0.0,0.0,0.0,0.0,0.0,0.0,0.0,0.0,0.0,0.0,0.0,0.0,0.0,0.0,0.0,0.0,0.0,0.0,0.0,0.0,0.0,0.0,0.0,0.0,0.0,0.0,0.0,0.0,0.0,0.0,0.0,0.0,-1.4245,0.0,0.0,0.0,0.0,0.0,0.0,0.0,0.0,0.0,0.0,0.0,0.0,0.0,0.0,0.0,0.0,0.0,0.0,0.0,0.0,0.0,0.0,0.0,0.0,0.0,0.0,0.0,0.0,0.0,0.0,0.0,0.0,0.0,0.0,0.0,0.0,0.0,0.0,0.0,0.0,0.0,0.0,0.0,0.0,0.0,0.0,0.0,0.0,0.0,0.0,0.0,0.0,0.0,0.0,0.0,0.0,0.0,0.0,0.0,-1.4109,-1.4035,-1.4068,-1.3893,-1.3548,-1.3001,-1.2616,0.0,0.0,0.0,0.0,0.0,0.0,0.0,0.0,0.0,0.0,0.0,0.0,0.0,0.0,0.0,0.0,0.0,0.0,0.0,0.0,0.0,0.0,0.0,0.0,0.0,0.0,0.0,0.0,0.0,0.0,0.0,0.0,0.0,0.0,0.0,0.0,0.0,0.0,0.0,0.0,0.0,0.0,0.0,0.0,0.0,0.0,0.0,0.0,0.0,0.0,0.0,0.0,0.0,0.0,0.0,0.0,0.0,0.0,0.0,0.0,0.0,0.0,0.0,0.0,0.0,0.0,0.0,0.0,0.0,0.0,0.0,0.0,0.0,0.0,0.0,0.0,0.0,0.0,0.0,0.0,0.0,0.0,0.0,0.0,0.0,0.0,0.0,0.0,0.0,0.0,0.0,0.0,0.0,0.0,0.0,0.0,0.0,0.0,0.0,0.0,0.0,0.0,0.0,0.0,0.0,0.0,0.0,-1.3866,-1.408,-1.4392,-1.3979,-1.3763,-1.3796,-1.3566,-1.3106,-1.2621,0.0,0.0,0.0,0.0,0.0,0.0,0.0,0.0,0.0,0.0,0.0,0.0,0.0,0.0,0.0,0.0,0.0,0.0,0.0,0.0,0.0,0.0,0.0,0.0,0.0,0.0,0.0,0.0,0.0,0.0,0.0,0.0,0.0,0.0,0.0,0.0,0.0,0.0,-1.2883,-1.3975,0.0,0.0,0.0,0.0,0.0,0.0,0.0,0.0,-1.6848,0.0,0.0,0.0,0.0,0.0,0.0,0.0,0.0,0.0,0.0,0.0,0.0,0.0,0.0,0.0,0.0,0.0,0.0,0.0,0.0,0.0,0.0,0.0,0.0,0.0,0.0,0.0,0.0,0.0,0.0,0.0,0.0,0.0,0.0,0.0,0.0,0.0,0.0,0.0,0.0,0.0,0.0,0.0,0.0,0.0,0.0,0.0,0.0,0.0,0.0,0.0,0.0,0.0,0.0,0.0,0.0,-1.5227,-1.4699,-1.5087,-1.6357,-1.4881,-1.4117,-1.4329,-1.4011,-1.3595,-1.3194,0.0,0.0,0.0,0.0,0.0,0.0,0.0,0.0,0.0,0.0,0.0,0.0,0.0,0.0,0.0,0.0,0.0,0.0,0.0,0.0,0.0,0.0,0.0,0.0,0.0,0.0,0.0,0.0,0.0,0.0,0.0,0.0,0.0,0.0,0.0,0.0,0.0,0.0,0.0,-1.5096,-1.6078,0.0,0.0,0.0,0.0,0.0,0.0,0.0,0.0,-1.7979,0.0,0.0,0.0,0.0,0.0,0.0,0.0,0.0,0.0,0.0,0.0,0.0,0.0,0.0,0.0,0.0,0.0,0.0,0.0,0.0,0.0,0.0,0.0,0.0,0.0,0.0,0.0,0.0,0.0,0.0,0.0,0.0,0.0,0.0,0.0,0.0,0.0,0.0,0.0,0.0,0.0,0.0,0.0,0.0,0.0,0.0,0.0,0.0,0.0,0.0,0.0,0.0,0.0,0.0,0.0,-1.5906,-1.5838,-1.637,-1.7535,-1.6227,-1.5632,-1.5926,-1.5248,-1.4613,0.0,0.0,0.0,0.0,0.0,0.0,0.0,0.0,0.0,0.0,0.0,0.0,0.0,0.0,0.0,0.0,0.0,0.0,0.0,0.0,0.0,0.0,0.0,0.0,0.0,0.0,0.0,0.0,0.0,0.0,0.0,0.0,0.0,0.0,0.0,0.0,0.0,0.0,0.0,0.0,-1.6384,-1.7747,-1.8965,0.0,0.0,0.0,0.0,0.0,0.0,-2.0138,-1.9385,0.0,0.0,0.0,0.0,0.0,0.0,0.0,0.0,0.0,0.0,0.0,0.0,0.0,0.0,0.0,0.0,0.0,0.0,0.0,0.0,0.0,0.0,0.0,0.0,0.0,0.0,0.0,0.0,0.0,0.0,0.0,0.0,0.0,0.0,0.0,0.0,0.0,0.0,0.0,0.0,0.0,0.0,0.0,0.0,0.0,0.0,0.0,0.0,0.0,0.0,0.0,0.0,0.0,0.0,0.0,-1.6767,-1.6896,-1.7549,-1.8604,-1.7363,-1.6897,-1.7363,-1.6338,-1.5534,0.0,0.0,0.0,0.0,0.0,0.0,0.0,0.0,0.0,0.0,0.0,0.0,0.0,0.0,0.0,0.0,0.0,0.0,0.0,0.0,0.0,0.0,0.0,0.0,0.0,0.0,0.0,0.0,0.0,0.0,0.0,0.0,0.0,0.0,0.0,0.0,0.0,0.0,0.0,0.0,0.0,-1.933,-2.0549,-2.0597,0.0,0.0,0.0,0.0,-2.1857,-2.1496,0.0,0.0,0.0,0.0,0.0,0.0,0.0,0.0,0.0,0.0,0.0,0.0,0.0,0.0,0.0,0.0,0.0,0.0,0.0,0.0,0.0,0.0,0.0,0.0,0.0,0.0,0.0,0.0,0.0,0.0,0.0,0.0,0.0,0.0,0.0,0.0,0.0,0.0,0.0,0.0,0.0,0.0,0.0,0.0,0.0,0.0,0.0,0.0,0.0,0.0,0.0,0.0,0.0,0.0,0.0,0.0,-1.8177,-1.7845,-1.8423,-1.9855,-1.7823,-1.7016,-1.7644,-1.6477,-1.5656,0.0,0.0,0.0,0.0,0.0,0.0,0.0,0.0,0.0,0.0,0.0,0.0,0.0,0.0,0.0,0.0,0.0,0.0,0.0,0.0,0.0,0.0,0.0,0.0,0.0,0.0,0.0,0.0,0.0,0.0,0.0,0.0,0.0,0.0,0.0,0.0,0.0,0.0,0.0,0.0,0.0,-2.0259,-2.1548,-2.1885,-2.1962,0.0,0.0,-2.3039,-2.2767,-2.2781,0.0,0.0,0.0,0.0,0.0,0.0,0.0,0.0,0.0,0.0,0.0,0.0,0.0,0.0,0.0,0.0,0.0,0.0,0.0,0.0,0.0,0.0,0.0,0.0,0.0,0.0,0.0,0.0,0.0,0.0,0.0,0.0,0.0,0.0,0.0,0.0,0.0,0.0,0.0,0.0,0.0,0.0,0.0,0.0,0.0,0.0,0.0,0.0,0.0,0.0,0.0,0.0,0.0,0.0,0.0,-1.6788,-1.8583,-1.8851,-1.9658,-2.0989,-1.9423,-1.8763,-1.929,-1.8028,-1.6992,0.0,0.0,0.0,0.0,0.0,0.0,0.0,0.0,0.0,0.0,0.0,0.0,0.0,0.0,0.0,0.0,0.0,0.0,0.0,0.0,0.0,0.0,0.0,0.0,0.0,0.0,0.0,0.0,0.0,0.0,0.0,0.0,0.0,0.0,0.0,0.0,0.0,0.0,0.0,0.0,0.0,0.0,-2.2073,-2.2611,0.0,0.0,0.0,-2.327,-2.3762,0.0,0.0,0.0,0.0,0.0,0.0,0.0,0.0,0.0,0.0,0.0,0.0,0.0,0.0,0.0,0.0,0.0,0.0,0.0,0.0,0.0,0.0,0.0,0.0,0.0,0.0,0.0,0.0,0.0,0.0,0.0,0.0,0.0,0.0,0.0,0.0,0.0,0.0,0.0,0.0,0.0,0.0,0.0,0.0,0.0,0.0,0.0,0.0,0.0,0.0,0.0,0.0,0.0,0.0,0.0,0.0,0.0,-1.8834,-1.967,-2.0629,-2.1667,-2.0668,-2.0228,-2.0484,-1.937,0.0,0.0,0.0,0.0,0.0,0.0,0.0,0.0,0.0,0.0,0.0,0.0,0.0,0.0,0.0,0.0,0.0,0.0,0.0,0.0,0.0,0.0,0.0,0.0,0.0,0.0,0.0,-1.0767,0.0,0.0,0.0,0.0,0.0,0.0,0.0,0.0,0.0,0.0,0.0,0.0,0.0,0.0,-2.1795,-2.2449,-2.3351,-2.3989,0.0,0.0,-2.3818,-2.465,-2.422,-2.3479,0.0,0.0,0.0,0.0,0.0,0.0,0.0,0.0,0.0,0.0,0.0,0.0,0.0,0.0,0.0,0.0,0.0,0.0,0.0,0.0,0.0,0.0,0.0,0.0,0.0,0.0,0.0,0.0,0.0,0.0,0.0,0.0,0.0,0.0,0.0,0.0,0.0,0.0,0.0,0.0,0.0,0.0,0.0,0.0,0.0,0.0,0.0,0.0,0.0,0.0,0.0,0.0,0.0,0.0,-1.8027,-1.9246,-2.0309,-2.114,-2.1695,-2.1142,-2.0717,-2.0512,-1.9989,-1.903,0.0,0.0,0.0,0.0,0.0,0.0,0.0,0.0,0.0,0.0,0.0,0.0,0.0,0.0,0.0,0.0,0.0,0.0,0.0,0.0,0.0,0.0,0.0,0.0,0.0,0.0,0.0,0.0,0.0,0.0,0.0,0.0,0.0,0.0,0.0,0.0,0.0,0.0,0.0,0.0,0.0,-2.2503,-2.2682,-2.4247,-2.5351,0.0,-2.5385,-2.5478,-2.5326,-2.516,-2.4635,-2.366,0.0,0.0,0.0,0.0,0.0,0.0,0.0,0.0,0.0,0.0,0.0,0.0,0.0,0.0,0.0,0.0,0.0,0.0,0.0,0.0,0.0,0.0,0.0,0.0,0.0,0.0,0.0,0.0,0.0,0.0,0.0,0.0,0.0,0.0,0.0,0.0,0.0,0.0,0.0,0.0,0.0,0.0,0.0,0.0,0.0,0.0,0.0,0.0,0.0,0.0,0.0,0.0,0.0,-1.8485,-1.9677,-2.0775,-2.1587,-2.2043,-2.13,-2.1007,-2.1264,-2.0631,-1.976,0.0,0.0,0.0,0.0,0.0,0.0,0.0,0.0,0.0,0.0,0.0,0.0,0.0,0.0,0.0,0.0,0.0,0.0,0.0,0.0,0.0,0.0,0.0,0.0,0.0,0.0,0.0,0.0,-1.8065,-1.8715,-1.8733,0.0,0.0,0.0,0.0,0.0,0.0,0.0,0.0,0.0,0.0,-2.2904,-2.4014,-2.5015,0.0,0.0,-2.6025,-2.5962,-2.605,-2.5938,-2.5543,-2.4853,-2.3852,0.0,0.0,0.0,0.0,0.0,0.0,0.0,0.0,0.0,0.0,0.0,0.0,0.0,0.0,0.0,0.0,0.0,0.0,0.0,0.0,0.0,0.0,0.0,0.0,0.0,0.0,0.0,0.0,0.0,0.0,0.0,0.0,0.0,0.0,0.0,0.0,0.0,0.0,0.0,0.0,0.0,0.0,0.0,0.0,0.0,0.0,0.0,0.0,0.0,0.0,0.0,0.0,-1.8962,-1.9934,-2.1122,-2.1925,-2.2309,-2.1774,-2.1553,-2.1704,-2.1062,-2.0319,0.0,0.0,0.0,0.0,0.0,0.0,0.0,0.0,0.0,0.0,0.0,0.0,0.0,0.0,0.0,0.0,0.0,0.0,0.0,0.0,0.0,0.0,0.0,0.0,0.0,0.0,0.0,0.0,-1.9687,-2.0004,-1.9481,0.0,0.0,0.0,0.0,0.0,0.0,0.0,0.0,0.0,0.0,-2.3893,-2.4992,-2.5787,-2.6356,-2.6712,-2.6476,-2.6352,-2.6759,-2.6394,-2.6075,-2.595,0.0,0.0,0.0,0.0,0.0,0.0,0.0,0.0,0.0,0.0,0.0,0.0,0.0,0.0,0.0,0.0,0.0,0.0,0.0,0.0,0.0,0.0,0.0,0.0,0.0,0.0,0.0,-0.4473,0.0,0.0,-0.3334,0.0,0.0,0.0,0.0,0.0,0.0,0.0,0.0,0.0,0.0,0.0,0.0,0.0,0.0,0.0,0.0,0.0,0.0,0.0,0.0,0.0,0.0,-1.9485,-1.9943,-2.1067,-2.187,-2.2327,-2.264,-2.2452,-2.1759,-2.1328,-2.0732,-1.9943,0.0,0.0,0.0,0.0,0.0,0.0,0.0,0.0,0.0,0.0,0.0,0.0,0.0,0.0,0.0,0.0,0.0,0.0,0.0,0.0,0.0,0.0,0.0,0.0,0.0,0.0,-1.9157,-2.0064,-2.0456,0.0,0.0,0.0,0.0,0.0,0.0,0.0,0.0,0.0,-2.2849,-2.4637,-2.5692,-2.5405,-2.6488,-2.7281,-2.7172,-2.679,-2.6794,-2.7452,-2.6564,-2.6141,0.0,0.0,0.0,0.0,0.0,0.0,0.0,0.0,0.0,0.0,0.0,0.0,0.0,0.0,0.0,0.0,0.0,0.0,0.0,0.0,0.0,0.0,0.0,0.0,0.0,0.0,0.0,-0.7596,-0.5512,0.0,0.0,0.0,0.0,0.0,0.0,0.0,0.0,0.0,0.0,0.0,-1.5227,-1.6074,0.0,0.0,0.0,0.0,0.0,0.0,0.0,0.0,0.0,0.0,0.0,0.0,-1.9632,-2.0347,-2.1765,-2.2585,-2.2731,-2.3414,-2.3347,-2.2538,-2.2135,-2.142,-2.0347,0.0,0.0,0.0,0.0,0.0,0.0,0.0,0.0,0.0,0.0,0.0,0.0,0.0,0.0,0.0,0.0,0.0,0.0,0.0,0.0,0.0,0.0,0.0,0.0,0.0,-2.0115,0.0,0.0,0.0,0.0,0.0,0.0,0.0,0.0,0.0,0.0,0.0,-2.3682,-2.4767,-2.5504,-2.628,-2.7252,-2.7849,-2.8327,0.0,0.0,0.0,0.0,0.0,0.0,0.0,0.0,0.0,0.0,0.0,0.0,0.0,0.0,-2.4014,-2.3269,-2.3206,-2.3391,-2.3689,0.0,0.0,0.0,0.0,0.0,0.0,0.0,0.0,0.0,0.0,0.0,0.0,0.0,0.0,-0.9519,0.0,-0.7668,0.0,0.0,0.0,0.0,0.0,0.0,0.0,0.0,-1.4049,-1.5777,-1.6951,-1.7961,-1.8515,0.0,-1.8536,-1.7511,0.0,0.0,0.0,0.0,0.0,0.0,0.0,0.0,-2.0118,-2.0952,-2.2342,-2.3103,-2.3134,-2.3617,-2.3607,-2.3143,-2.2621,-2.1896,-2.097,-2.0329,-1.9409,0.0,0.0,0.0,0.0,0.0,0.0,0.0,0.0,0.0,0.0,0.0,0.0,0.0,0.0,0.0,0.0,0.0,0.0,0.0,0.0,0.0,0.0,0.0,-2.2149,0.0,0.0,0.0,0.0,0.0,0.0,0.0,0.0,0.0,-2.2605,-2.4108,-2.568,-2.6864,-2.7227,-2.7807,-2.8919,0.0,0.0,0.0,0.0,0.0,0.0,0.0,-2.9948,-2.9851,-2.9425,-2.9166,-2.932,-2.9153,-2.8797,-2.8676,0.0,0.0,-2.6726,-2.642,-2.6663,-2.7606,-2.8428,-2.8966,-2.9171,-2.9891,-3.0697,0.0,0.0,0.0,0.0,0.0,0.0,0.0,0.0,-1.268,-1.0986,0.0,-1.0455,0.0,0.0,0.0,0.0,0.0,-1.0229,0.0,0.0,-1.8532,-1.9594,-1.8244,-1.9524,-2.0256,-2.0187,-1.9471,-1.9451,-2.0043,-1.891,0.0,0.0,0.0,0.0,0.0,0.0,-2.0934,-2.1741,-2.2797,-2.3416,-2.3538,-2.3444,-2.3426,-2.351,-2.2758,-2.2262,-2.1768,-2.117,-2.0625,-2.0351,-1.8637,0.0,0.0,0.0,0.0,0.0,0.0,0.0,0.0,0.0,0.0,0.0,0.0,0.0,0.0,0.0,0.0,0.0,0.0,0.0,0.0,-2.2942,0.0,0.0,0.0,0.0,0.0,0.0,0.0,0.0,0.0,0.0,-2.494,-2.6411,-2.7973,-2.8939,0.0,0.0,0.0,0.0,-3.0362,-3.0927,-3.0826,-3.0688,-3.0775,-3.0477,-3.0477,-3.0652,0.0,0.0,-3.0206,-3.0756,-3.1005,-3.0422,-3.122,-3.1597,-3.0375,-2.9606,-2.991,-3.241,-3.2537,-3.2478,-3.2782,-3.2831,-3.3122,-1.6664,0.0,0.0,0.0,0.0,-1.5872,-1.6231,-1.6871,-1.6871,-1.5724,-1.3774,-1.4559,0.0,0.0,0.0,0.0,0.0,0.0,-1.3799,-1.6294,-1.7919,-1.9281,-2.0501,-2.1068,-2.1399,-2.1532,-2.1165,-2.1081,-2.1259,-2.1428,-2.048,-1.8641,0.0,0.0,0.0,0.0,-2.1337,-2.2153,-2.3335,-2.3948,-2.3969,-2.4361,-2.4309,-2.3836,-2.4028,-2.3948,-2.376,-2.427,-2.4209,-2.3114,-2.1734,0.0,0.0,0.0,0.0,0.0,0.0,0.0,0.0,0.0,0.0,0.0,0.0,0.0,0.0,0.0,0.0,0.0,0.0,0.0,-2.3016,-2.4339,-2.4795,0.0,0.0,0.0,0.0,0.0,0.0,0.0,0.0,0.0,-2.9399,-2.983,-3.0001,0.0,0.0,-3.136,-3.1745,-3.1805,-3.2118,-3.3008,-3.3059,0.0,-3.3047,-3.2942,-3.2823,-3.258,-3.2388,-3.2461,-3.2975,-3.2885,-3.2975,-3.3734,-3.3784,-3.401,-3.4878,-3.3166,-3.2185,-3.3289,-3.377,-3.4149,-3.4738,-3.517,-3.5818,-1.9487,-1.8701,-1.7606,-1.7238,-1.7403,-1.755,-1.8128,-1.8962,-1.9127,-1.8719,-1.8056,-1.8143,-1.6396,-1.3055,-1.2156,0.0,0.0,0.0,-1.5873,-1.8555,-1.8924,-1.9869,-2.129,-2.1976,-2.2524,-2.3038,-2.3028,-2.3213,-2.3467,-2.3212,-2.2436,-2.1259,0.0,0.0,-2.0888,-2.1355,-2.1988,-2.2795,-2.3712,-2.4165,-2.4242,-2.481,-2.507,-2.4929,-2.5145,-2.5195,-2.5113,-2.5581,-2.5497,-2.4703,-2.3912,-2.3217,0.0,0.0,0.0,0.0,0.0,0.0,0.0,0.0,0.0,0.0,0.0,-1.6953,-1.7769,0.0,0.0,0.0,-2.2515,-2.3756,-2.546,-2.5879,0.0,0.0,0.0,0.0,0.0,0.0,0.0,-2.7364,-2.8631,-3.0089,-3.2079,-3.298,-3.3242,-3.2678,-3.3118,-3.3399,-3.338,0.0,-3.408,-3.4535,-3.4957,-3.5137,-3.5137,-3.5424,-3.5417,-3.4991,-3.4916,-3.5096,-3.5747,-3.568,-3.5941,-3.6606,-3.6916,-3.7278,-3.8173,-3.6878,-3.5836,-3.6227,-3.6333,-3.6711,-3.7672,-3.8122,-3.8681,-2.1951,-2.2025,-1.9109,-1.8119,-1.8485,-1.8843,-1.9191,-1.9522,-1.9943,-2.0389,-2.0983,-2.1103,-1.9085,-1.5494,-1.3518,0.0,-1.7147,-1.7239,-1.8709,-2.1286,-2.1373,-2.1392,-2.1506,-2.2798,-2.3774,-2.4495,-2.4773,-2.5358,-2.5945,-2.4476,-2.3909,-2.4224,-2.359,-2.2938,-2.2493,-2.2539,-2.2962,-2.3772,-2.4295,-2.4498,-2.4498,-2.5026,-2.5781,-2.6363,-2.6229,-2.6007,-2.5987,-2.5751,-2.5497,-2.5445,-2.5402,-2.5861,-2.6703,0.0,0.0,0.0,0.0,0.0,0.0,0.0,0.0,0.0,0.0,0.0,0.0,0.0,0.0,-2.4212,-2.5663,0.0,-2.8016,-2.747,0.0,0.0,0.0,-2.6258,-2.781,-2.729,-2.7616,-2.9833,0.0,0.0,-3.3538,-3.5737,-3.6777,-3.5656,-3.5899,-3.5899,-3.515,-3.5694,-3.6109,-3.6135,-3.669,-3.718,-3.7317,-3.7851,-3.8031,-3.7557,-3.7552,-3.7689,-3.8221,-3.8799,-3.9197,-3.9219,-4.0219,-4.0741,-4.0252,-4.0361,-4.0689,-4.0412,-3.988,-3.9825,-4.0773,-4.111,-4.1286,-2.1786,-2.1832,-2.1374,-2.1236,-2.1337,-2.1429,-2.1346,-2.12,-2.1575,-2.1653,-2.1482,-2.1507,-2.1149,-2.0567,-2.0295,-2.0543,-2.0959,-2.1581,-2.2205,-2.2914,-2.3526,-2.4058,-2.4486,-2.4675,-2.5005,-2.5276,-2.4646,-2.4716,-2.547,-2.5421,-2.5535,-2.6049,-2.6656,-2.5864,-2.3748,-2.4402,-2.5373,-2.6232,-2.6647,-2.6756,-2.6446,-2.6318,-2.6164,-2.598,-2.6823,-2.7283,-2.712,-2.7904,-2.8109,-2.737,-2.7561,-2.7778,-2.8081,-2.7345,0.0,0.0,0.0,0.0,0.0,0.0,0.0,0.0,0.0,-2.1241,-2.2383,0.0,-2.5026,0.0,-2.7633,-2.8345,-2.78,-2.8186,0.0,0.0,-2.8222,-2.8633,-2.9093,-2.9697,-3.07,-3.1972,-3.278,-3.4114,-3.6572,-3.6895,-3.732,-3.8371,-3.7764,-3.7208,-3.6912,-3.7109,-3.7742,-3.8982,-3.9486,-3.9777,-4.021,-4.0119,-3.9986,-3.987,-3.9831,-3.9895,-4.0037,-4.015,-4.04,-4.1038,-4.1367,-4.1683,-4.2128,-4.2293,-4.2565,-4.2763,-4.2054,-4.1416,-4.2316,-4.248,-4.2656,-2.2538,-2.2547,-2.2593,-2.2703,-2.2841,-2.2483,-2.2098,-2.1777,-2.2153,-2.2199,-2.1998,-2.2354,-2.2767,-2.3143,-2.3382,-2.3354,-2.3229,-2.3775,-2.405,-2.405,-2.4585,-2.53,-2.6011,-2.6311,-2.662,-2.7096,-2.6907,-2.7002,-2.7495,-2.7345,-2.7507,-2.7765,-2.8582,-2.8161,-2.6584,-2.6636,-2.6903,-2.75,-2.7516,-2.7698,-2.827,-2.7563,-2.7045,-2.7079,-2.8026,-2.8406,-2.814,-2.9117,-2.9306,-2.8695,-2.8184,-2.8138,-2.8504,-2.8104,-2.6784,0.0,0.0,0.0,0.0,0.0,0.0,0.0,0.0,0.0,0.0,0.0,-2.7359,-2.771,-2.8614,-2.8927,-2.8315,-2.8834,-2.9189,-2.9225,-2.9664,-3.0197,-3.0771,-3.1633,-3.2596,-3.3636,-3.4518,-3.5655,-3.7418,-3.7867,-3.8466,-3.9638,-3.9487,-3.9082,-3.8878,-3.9272,-4.0209,-4.1132,-4.1582,-4.2095,-4.2782,-4.2571,-4.2449,-4.2449,-4.2449,-4.2528,-4.2778,-4.2844,-4.3128,-4.3686,-4.3868,-4.3969,-4.4374,-4.4474,-4.461,-4.4814,-4.4401,-4.399,-4.4049,-4.4094,-4.4257,-2.3657,-2.3675,-2.3327,-2.3409,-2.3721,-2.3015,-2.2428,-2.1997,-2.2392,-2.2557,-2.2612,-2.3428,-2.395,-2.4235,-2.429,-2.428,-2.4316,-2.488,-2.5082,-2.5005,-2.5651,-2.6288,-2.6927,-2.7693,-2.8422,-2.9094,-2.9719,-3.0123,-3.022,-2.953,-2.9284,-2.9426,-2.9992,-3.0356,-3.0182,-2.9229,-2.8635,-2.834,-2.8093,-2.8552,-2.9717,-2.8623,-2.8359,-2.8824,-2.9322,-2.9495,-2.93,-2.9642,-2.9716,-2.9372,-2.8202,-2.7836,-2.8471,-2.8115,-2.6925,0.0,-2.4066,0.0,0.0,0.0,0.0,0.0,0.0,0.0,0.0,-2.8088,-2.9342,-2.9237,-2.9237,-2.9261,-2.9332,-2.9581,-3.0067,-3.1023,-3.0993,-3.146,-3.2671,-3.326,-3.3982,-3.5016,-3.6088,-3.6985,-3.763,-3.8816,-3.9829,-4.0325,-4.1116,-4.1337,-4.0929,-4.1802,-4.2574,-4.2578,-4.3375,-4.409,-4.4657,-4.4848,-4.482,-4.4936,-4.482,-4.5112,-4.5457,-4.5538,-4.5831,-4.6265,-4.6292,-4.636,-4.6469,-4.6414,-4.6414,-4.6333,-4.6292,-4.613,-4.5736,-4.56,-4.5872,-2.4235,-2.4537,-2.4473,-2.4656,-2.5005,-2.4858,-2.4189,-2.3226,-2.3639,-2.3804,-2.3877,-2.4923,-2.5145,-2.4693,-2.5005,-2.4968,-2.4776,-2.6494,-2.7013,-2.6791,-2.8452,-2.8955,-2.8505,-2.9331,-2.9417,-2.8974,-2.9204,-2.9621,-3.022,-3.0178,-3.053,-3.1175,-3.2542,-3.3238,-3.3199,0.0,0.0,0.0,-3.1732,-3.1537,-3.0068,-3.0128,-3.0158,-2.9839,-2.9788,0.0,-3.0472,-3.0121,-2.9795,-2.9465,-2.9161,0.0,0.0,0.0,0.0,0.0,0.0,0.0,0.0,0.0,0.0,0.0,-2.7411,-2.8072,-2.7787,-2.9126,-3.0122,-3.053,-3.0567,-3.0747,-3.1168,-3.1213,-3.15,-3.2142,-3.2575,-3.3248,-3.4258,-3.4847,-3.5581,-3.6615,-3.6934,-3.7691,-3.9192,-3.9835,-4.0492,-4.1639,-4.2502,-4.3218,-4.3415,-4.3414,-4.3698,-4.4774,-4.5425,-4.5867,-4.6143,-4.6089,-4.6021,-4.6143,-4.6143,-4.6157,-4.6238,-4.6279,-4.6292,-4.6482,-4.6482,-4.6482,-4.6482,-4.6482,-4.6482,-4.6482,-4.6482,-4.6442,-4.6333,-4.6306,-4.6333,-2.4876,-2.5172,-2.5563,-2.5582,0.0,-2.5863,-2.5526,-2.473,-2.4748,-2.4867,-2.5172,-2.5623,-2.5798,-2.5683,-2.6281,-2.6473,-2.6371,-2.8004,-2.8401,-2.7895,-2.8985,-2.921,-2.8716,-2.9542,-2.987,-2.9667,-3.0375,-3.1007,-3.1672,-3.1738,-3.2295,-3.3171,-3.391,-3.4505,-3.4801,-3.5264,-3.4719,-3.2976,-3.2954,-3.2515,-3.1625,-3.1421,-3.1218,-3.0893,-3.0987,0.0,0.0,0.0,0.0,0.0,0.0,0.0,0.0,0.0,0.0,-2.8987,-2.7806,-2.7266,-2.7581,-2.7696,-2.7802,-2.8167,-2.9535,-3.0157,-2.9547,-3.017,-3.0699,-3.1216,-3.1517,-3.1781,-3.2046,-3.231,-3.2671,-3.3212,-3.3729,-3.4366,-3.5136,-3.5918,-3.6699,-3.7433,-3.7817,-3.8618,-4.0219,-4.0426,-4.1279,-4.285,-4.3599,-4.4241,-4.5152,-4.4845,-4.4931,-4.5912,-4.6252,-4.6469,-4.6482,-4.6482,-4.6482,-4.6482,-4.6482,-4.6482,-4.6482,-4.6482,-4.6482,-4.6482,-4.6482,-4.6482,-4.6482,-4.6482,-4.6482,-4.6482,-4.6482,-4.6482,-4.6482,-4.6482,-4.6482,-2.5711,-2.5975,-2.6464,-2.6305,-2.5888,-2.638,-2.637,-2.605,0.0,0.0,0.0,-2.6166,-2.6467,-2.6899,-2.752,-2.7931,-2.8116,-2.9249,-2.9404,-2.8548,-2.9091,-2.9123,-2.8558,-2.9599,-3.0261,-3.0694,-3.1841,-3.2699,-3.3283,-3.3291,-3.3758,-3.469,-3.4871,-3.5216,-3.5753,-3.6156,-3.5854,-3.4818,-3.355,-3.2944,-3.2985,-3.2436,-3.2158,-3.2137,-3.2469,-3.2617,-3.2601,-3.2688,-3.2571,-3.2126,-3.1171,-3.0524,-3.042,-3.1324,-3.1492,-3.0711,-2.9737,-2.9308,-2.9463,-2.9547,-2.9917,-3.0615,-3.1372,-3.1673,-3.1324,-3.13,-3.148,-3.1913,-3.2454,-3.2815,-3.2911,-3.3392,-3.3897,-3.4402,-3.4931,-3.5437,-3.5893,-3.6735,-3.7517,-3.8058,-3.8705,-3.9575,-4.0898,-4.1404,-4.2144,-4.3913,-4.4612,-4.5101,-4.6161,-4.6035,-4.5899,-4.6319,-4.6455,-4.6482,-4.6482,-4.6482,-4.6482,-4.6482,-4.6482,-4.6482,-4.6482,-4.6482,-4.6482,-4.6482,-4.6482,-4.6482,-4.6482,-4.6482,-4.6482,-4.6482,-4.6482,-4.6482,-4.6482,-4.6482,-4.6482,-2.7085,-2.8048,-2.7425,-2.7218,-2.7447,-2.6831,-2.6553,-2.6499,-2.6741,-2.6643,-2.6499,-2.6806,-2.7149,-2.7618,-2.7716,-2.8242,-2.8976,-2.9891,-2.986,-2.9096,-3.0501,-3.0409,-2.9096,-3.0575,-3.1451,-3.1769,-3.2147,-3.2933,-3.3821,-3.3818,-3.4073,-3.4724,-3.5597,-3.6368,-3.6811,-3.6449,-3.6013,-3.5277,-3.4814,-3.3946,-3.2789,-3.3151,-3.3685,-3.4349,-3.3647,-3.3933,-3.5279,-3.3686,-3.3089,-3.3719,-3.2571,-3.1583,-3.0953,-3.1979,-3.2659,-3.2767,-3.1889,-3.1336,-3.1336,-3.1769,-3.2274,-3.2755,-3.2563,-3.2539,-3.2923,-3.2947,-3.2971,-3.308,-3.3513,-3.4006,-3.4451,-3.4944,-3.5425,-3.5978,-3.6519,-3.6892,-3.6952,-3.7597,-3.8188,-3.8719,-3.9365,-4.0368,-4.1563,-4.2823,-4.3992,-4.4837,-4.5581,-4.6242,-4.6414,-4.6414,-4.6387,-4.6455,-4.6482,-4.6482,-4.6482,-4.6482,-4.6482,-4.6482,-4.6482,-4.6482,-4.6482,-4.6482,-4.6482,-4.6482,-4.6482,-4.6482,-4.6482,-4.6482,-4.6482,-4.6482,-4.6482,-4.6482,-4.6587,-4.6574,-4.6574,-2.8277,-2.9197,-2.8988,-2.868,-2.8116,-2.7196,-2.6791,-2.6899,-2.7323,-2.7107,-2.6691,-2.7323,-2.7736,-2.7941,-2.8794,-2.9428,-2.9848,-3.0692,-3.0578,-2.9848,-3.0599,-3.0266,-2.9323,-3.0611,-3.1578,-3.2003,-3.2834,-3.3738,-3.4706,-3.4764,-3.512,-3.6018,-3.6799,-3.7239,-3.7024,-3.6592,-3.6048,-3.5367,-3.4936,-3.439,-3.3717,-3.3952,-3.43,-3.4714,-3.4172,-3.4505,-3.5574,-3.4781,-3.4337,-3.4498,-3.3896,-3.3183,-3.2361,-3.2927,-3.3537,-3.4042,-3.3128,-3.2551,-3.2551,-3.2779,-3.3152,-3.3633,-3.3477,-3.3561,-3.409,-3.3765,-3.3585,-3.3717,-3.4487,-3.5088,-3.5256,-3.5737,-3.6254,-3.6783,-3.706,-3.7508,-3.824,-3.8822,-3.9562,-4.0413,-4.1178,-4.2195,-4.3431,-4.4291,-4.501,-4.5768,-4.6245,-4.6482,-4.6482,-4.6482,-4.6482,-4.6482,-4.6482,-4.6482,-4.6482,-4.6482,-4.6482,-4.6482,-4.6482,-4.6482,-4.6482,-4.6482,-4.6482,-4.6482,-4.6482,-4.6482,-4.6482,-4.6482,-4.6482,-4.6482,-4.6482,-4.6587,-4.6783,-4.7184,-4.7274,-2.9891,-3.065,-3.0639,-2.9891,-2.8628,-2.7501,-2.7196,-2.752,-2.8048,-2.795,-2.753,-2.8077,-2.8271,-2.8252,-2.9754,-3.0495,-3.0703,-3.1311,-3.1105,-3.0495,-3.0599,-3.0318,-2.9887,-3.099,-3.1995,-3.2751,-3.3688,-3.4656,-3.5611,-3.5562,-3.5983,-3.7096,-3.7655,-3.7667,-3.7131,-3.6592,-3.6048,-3.5378,-3.4847,-3.4524,-3.4736,-3.4736,-3.4736,-3.4847,-3.4736,-3.5058,-3.5674,-3.5772,-3.5573,-3.5294,-3.5155,-3.4595,-3.3729,-3.3873,-3.4258,-3.4691,-3.409,-3.3633,-3.3633,-3.3633,-3.3801,-3.4174,-3.4318,-3.4571,-3.4895,-3.4402,-3.4066,-3.4318,-3.5196,-3.5809,-3.5881,-3.6398,-3.6928,-3.7324,-3.7613,-3.8206,-3.921,-3.9991,-4.0965,-4.2072,-4.2922,-4.3682,-4.4754,-4.5261,-4.5688,-4.6231,-4.6482,-4.6482,-4.6482,-4.6482,-4.6482,-4.6482,-4.6482,-4.6482,-4.6482,-4.6482,-4.6482,-4.6482,-4.6482,-4.6482,-4.6482,-4.6482,-4.6482,-4.6482,-4.6482,-4.6482,-4.6482,-4.6482,-4.6482,-4.6482,-4.6482,-4.6678,-4.7198,-4.7787,-4.8078,-3.2083,-3.2723,-3.2095,-3.0732,-2.8976,-2.7618,-2.7726,-2.888,-2.9177,-2.9493,-2.9408,-2.8996,-2.8784,-2.9092,-2.9963,-3.0795,-3.1414,-3.1527,-3.1208,-3.0599,-3.1105,-3.1527,-3.1675,-3.2619,-3.3724,-3.4892,-3.4775,-3.5165,-3.6128,-3.5715,-3.5979,-3.7012,-3.7655,-3.7667,-3.7131,-3.6603,-3.5938,-3.5367,-3.4847,-3.4736,-3.5268,-3.5268,-3.5609,-3.6157,-3.5609,-3.5806,-3.6796,-3.6532,-3.6425,-3.6884,-3.6086,-3.528,-3.4751,-3.4715,-3.4763,-3.4811,-3.4715,-3.4691,-3.4667,-3.4691,-3.4691,-3.4787,-3.522,-3.5497,-3.5545,-3.5064,-3.4751,-3.4931,-3.5473,-3.6002,-3.635,-3.7216,-3.7805,-3.7938,-3.8803,-3.954,-4.0058,-4.0993,-4.186,-4.2767,-4.3794,-4.4467,-4.5129,-4.5808,-4.6364,-4.6469,-4.6482,-4.6482,-4.6482,-4.6482,-4.6482,-4.6482,-4.6482,-4.6482,-4.6482,-4.6482,-4.6482,-4.6482,-4.6482,-4.6482,-4.6482,-4.6482,-4.6482,-4.6482,-4.6482,-4.6482,-4.6482,-4.6482,-4.6482,-4.6574,-4.6574,-4.6678,-4.7301,-4.8106,-4.8495,-3.2376,-3.3645,-3.3001,-3.1746,-3.0193,-2.8956,-2.9167,-3.0193,-2.9911,-2.9922,-3.012,-3.0359,-3.0266,-2.9953,-3.0795,-3.1322,-3.1618,-3.1618,-3.1414,-3.1148,-3.1821,-3.2268,-3.2767,-3.3259,-3.4269,-3.5367,-3.4832,-3.5199,-3.6122,-3.6363,-3.6796,-3.7548,-3.756,-3.7239,-3.6592,-3.6036,-3.5488,-3.4947,-3.5279,-3.5719,-3.5817,-3.5598,-3.5708,-3.6157,-3.6036,-3.6254,-3.7,-3.692,-3.6885,-3.7204,-3.6771,-3.6026,-3.4895,-3.5124,-3.5148,-3.4871,-3.4823,-3.4823,-3.4835,-3.5112,-3.5292,-3.5292,-3.6074,-3.6555,-3.6531,-3.6278,-3.6122,-3.6218,-3.6218,-3.6362,-3.6892,-3.7841,-3.8479,-3.8671,-3.9564,-4.0557,-4.1216,-4.2464,-4.3594,-4.4401,-4.5128,-4.5606,-4.5953,-4.6245,-4.6469,-4.6482,-4.6482,-4.6482,-4.6482,-4.6482,-4.6482,-4.6482,-4.6482,-4.6482,-4.6482,-4.6482,-4.6482,-4.6482,-4.6482,-4.6482,-4.6482,-4.6482,-4.6482,-4.6482,-4.6482,-4.6482,-4.6482,-4.6482,-4.6482,-4.6678,-4.7171,-4.7582,-4.8092,-4.8881,-4.9178,-3.2867,-3.4028,-3.3411,-3.2566,-3.1531,-3.0099,-3.0296,-3.1429,-3.0639,-3.0432,-3.1165,-3.1607,-3.1505,-3.1105,-3.1618,-3.1823,-3.1823,-3.1823,-3.1797,-3.1859,-3.2219,-3.2911,-3.3817,-3.4162,-3.4825,-3.5738,-3.5527,-3.5719,-3.6483,-3.7131,-3.7548,-3.788,-3.756,-3.7036,-3.6483,-3.6036,-3.5609,-3.5179,-3.584,-3.6375,-3.6483,-3.6036,-3.6036,-3.6483,-3.6495,-3.67,-3.7131,-3.7239,-3.7382,-3.7433,-3.7276,-3.6747,-3.5797,-3.5797,-3.5665,-3.5316,-3.5256,-3.5256,-3.5268,-3.5617,-3.5893,-3.6086,-3.6795,-3.7252,-3.7385,-3.7493,-3.7565,-3.7589,-3.7336,-3.7312,-3.7433,-3.8262,-3.8827,-3.902,-4.0232,-4.1384,-4.2268,-4.3596,-4.4824,-4.5754,-4.6093,-4.6482,-4.6482,-4.6482,-4.6482,-4.6482,-4.6482,-4.6482,-4.6482,-4.6482,-4.6482,-4.6482,-4.6482,-4.6482,-4.6482,-4.6482,-4.6482,-4.6482,-4.6482,-4.6482,-4.6482,-4.6482,-4.6482,-4.6482,-4.6482,-4.6587,-4.6587,-4.6587,-4.6887,-4.7081,-4.7685,-4.8395,-4.8695,-4.9277,-4.9571,-3.4726,-3.4519,-3.3377,-3.2978,-3.2901,-3.0618,-3.0927,-3.2989,-3.1483,-3.1597,-3.2823,-3.251,-3.2308,-3.2319,-3.2409,-3.2319,-3.2319,-3.2342,-3.2394,-3.2389,-3.2509,-3.3487,-3.5382,-3.5474,-3.5952,-3.6788,-3.6762,-3.6808,-3.7012,-3.7667,-3.7986,-3.7974,-3.7868,-3.7548,-3.7131,-3.6904,-3.67,-3.6157,-3.6266,-3.6592,-3.7024,-3.7024,-3.7024,-3.7024,-3.7024,-3.7143,-3.7239,-3.7667,-3.7962,-3.795,-3.7481,-3.736,-3.7637,-3.6892,-3.6386,-3.629,-3.629,-3.6302,-3.6266,-3.6326,-3.6555,-3.7,-3.7252,-3.7469,-3.8116,-3.8683,-3.8852,-3.8755,-3.8767,-3.8587,-3.8214,-3.8659,-3.9128,-3.9647,-4.0881,-4.202,-4.2926,-4.4238,-4.5382,-4.6177,-4.6428,-4.6482,-4.6482,-4.6482,-4.6482,-4.6482,-4.6482,-4.6482,-4.6482,-4.6482,-4.6482,-4.6482,-4.6482,-4.6482,-4.6482,-4.6482,-4.6482,-4.6482,-4.6482,-4.6482,-4.6482,-4.6482,-4.6482,-4.6482,-4.6482,-4.6587,-4.6587,-4.6887,-4.7391,-4.7801,-4.8294,-4.8795,-4.9079,-4.9389,-4.9756,-3.4225,-3.4738,-3.4311,-3.4115,-3.4017,-3.2577,-3.2778,-3.4005,-3.2901,-3.2812,-3.3534,-3.3522,-3.3423,-3.3434,-3.3434,-3.3024,-3.2454,-3.2745,-3.29,-3.3042,-3.3515,-3.4634,-3.591,-3.6033,-3.6383,-3.7,-3.67,-3.6808,-3.7131,-3.7655,-3.7974,-3.7868,-3.7227,-3.6916,-3.6916,-3.6363,-3.6036,-3.6375,-3.6592,-3.6916,-3.7131,-3.7453,-3.7655,-3.7667,-3.7667,-3.7655,-3.7655,-3.788,-3.7974,-3.7974,-3.7793,-3.7781,-3.7914,-3.7625,-3.7096,-3.6495,-3.6411,-3.6411,-3.6447,-3.6723,-3.7182,-3.7927,-3.8497,-3.8947,-3.9575,-3.9867,-3.9898,-3.9789,-3.9525,-3.9381,-3.9573,-3.9729,-4.0096,-4.0967,-4.2173,-4.3367,-4.4301,-4.5342,-4.6139,-4.6469,-4.6482,-4.6482,-4.6482,-4.6482,-4.6482,-4.6482,-4.6482,-4.6482,-4.6482,-4.6482,-4.6482,-4.6482,-4.6482,-4.6482,-4.6482,-4.6482,-4.6482,-4.6482,-4.6482,-4.6482,-4.6482,-4.6482,-4.6482,-4.6482,-4.6482,-4.6678,-4.6887,-4.7198,-4.7699,-4.8495,-4.8895,-4.9093,-4.9375,-4.9672,-4.9973,-3.4115,-3.4726,-3.4823,-3.4823,-3.4628,-3.361,-3.3808,-3.4628,-3.3511,-3.3323,-3.3843,-3.3843,-3.3936,-3.4176,-3.4287,-3.3981,-3.339,-3.3538,-3.3558,-3.3675,-3.4358,-3.5386,-3.6425,-3.6537,-3.6808,-3.7239,-3.7024,-3.7012,-3.7346,-3.7773,-3.7974,-3.7974,-3.7239,-3.6916,-3.7024,-3.6472,-3.6352,-3.67,-3.712,-3.7346,-3.7453,-3.7773,-3.7974,-3.7974,-3.7974,-3.7974,-3.7974,-3.7974,-3.7974,-3.7974,-3.7974,-3.7974,-3.7974,-3.7974,-3.7673,-3.7012,-3.6916,-3.6904,-3.6976,-3.7421,-3.8012,-3.8765,-3.9343,-3.9916,-4.0669,-4.0366,-4.0286,-4.0246,-4.0425,-4.05,-4.105,-4.1284,-4.162,-4.2077,-4.325,-4.4357,-4.502,-4.5914,-4.6364,-4.6482,-4.6482,-4.6482,-4.6482,-4.6482,-4.6482,-4.6482,-4.6482,-4.6482,-4.6482,-4.6482,-4.6482,-4.6482,-4.6482,-4.6482,-4.6482,-4.6482,-4.6482,-4.6482,-4.6482,-4.6482,-4.6482,-4.6482,-4.6482,-4.6587,-4.6678,-4.6887,-4.7198,-4.7596,-4.8193,-4.8881,-4.9192,-4.9389,-4.9672,-4.9915,-5.022,-3.4738,-3.4823,-3.4823,-3.4823,-3.4628,-3.3808,-3.3819,-3.4433,-3.3224,-3.3247,-3.4134,-3.3603,-3.4093,-3.4734,-3.4917,-3.5074,-3.5175,-3.4531,-3.4393,-3.4708,-3.4888,-3.5699,-3.7049,-3.7108,-3.7346,-3.7868,-3.7986,-3.7974,-3.7974,-3.7974,-3.7974,-3.7986,-3.788,-3.7548,-3.7131,-3.7441,-3.7548,-3.7334,-3.7667,-3.7986,-3.7974,-3.7974,-3.801,-3.8034,-3.8046,-3.807,-3.8058,-3.801,-3.7974,-3.7974,-3.7974,-3.7974,-3.7986,-3.807,-3.801,-3.7902,-3.7926,-3.808,-3.801,-3.8514,-3.916,-3.9934,-3.9831,-4.0221,-4.0985,-4.0428,-4.0142,-4.0604,-4.12,-4.1793,-4.2339,-4.3083,-4.3403,-4.2824,-4.4029,-4.4925,-4.5368,-4.5928,-4.6482,-4.6482,-4.6482,-4.6482,-4.6482,-4.6482,-4.6482,-4.6482,-4.6482,-4.6482,-4.6482,-4.6482,-4.6482,-4.6482,-4.6482,-4.6482,-4.6482,-4.6482,-4.6482,-4.6482,-4.6482,-4.6482,-4.6482,-4.6482,-4.6482,-4.6587,-4.6887,-4.7198,-4.799,-4.8395,-4.8695,-4.9291,-4.9488,-4.9672,-5.0002,-5.0235,-5.0612,-3.4823,-3.4823,-3.4823,-3.4823,-3.4726,-3.4421,-3.4519,-3.4738,-3.4213,-3.4426,-3.502,-3.4968,-3.5265,-3.5759,-3.5854,-3.5936,-3.6074,-3.5736,-3.5748,-3.585,-3.6186,-3.6741,-3.7524,-3.7655,-3.7773,-3.7974,-3.7974,-3.7974,-3.7974,-3.7974,-3.7974,-3.7974,-3.756,-3.756,-3.7667,-3.7548,-3.7453,-3.7773,-3.788,-3.7974,-3.7974,-3.7974,-3.8154,-3.8515,-3.8563,-3.8719,-3.9032,-3.8383,-3.7998,-3.801,-3.7974,-3.7974,-3.8094,-3.8683,-3.8731,-3.8224,-3.8855,-3.905,-3.8671,-3.9233,-4.0145,-4.1122,-4.1205,-4.1806,-4.2733,-4.2086,-4.1694,-4.1803,-4.2152,-4.2364,-4.2687,-4.3835,-4.4479,-4.4274,-4.4817,-4.5368,-4.5914,-4.6258,-4.6482,-4.6482,-4.6482,-4.6482,-4.6482,-4.6482,-4.6482,-4.6482,-4.6482,-4.6482,-4.6482,-4.6482,-4.6482,-4.6482,-4.6482,-4.6482,-4.6482,-4.6482,-4.6482,-4.6482,-4.6482,-4.6482,-4.6482,-4.6482,-4.6482,-4.6783,-4.7198,-4.7699,-4.8595,-4.9093,-4.9291,-4.9488,-4.9585,-4.9915,-5.0278,-5.0627,-5.0975,-3.4823,-3.4823,-3.4823,-3.4823,-3.4859,-3.5016,-3.5124,-3.516,-3.534,-3.5605,-3.5881,-3.5905,-3.6194,-3.6627,-3.6699,-3.6793,-3.692,-3.6955,-3.6955,-3.6991,-3.6943,-3.7441,-3.7974,-3.7974,-3.7974,-3.7974,-3.7974,-3.7974,-3.7974,-3.7974,-3.7974,-3.7868,-3.7655,-3.7655,-3.7986,-3.7667,-3.7667,-3.7974,-3.7974,-3.7974,-3.7974,-3.7974,-3.825,-3.8731,-3.8815,-3.908,-3.9489,-3.8924,-3.8575,-3.8503,-3.8238,-3.8106,-3.8407,-3.914,-3.9552,-3.9621,-3.9882,-4.0137,-3.9731,-4.0252,-4.0971,-4.1915,-4.2091,-4.26,-4.3656,-4.3174,-4.2613,-4.2961,-4.3048,-4.3172,-4.3615,-4.4709,-4.5582,-4.5582,-4.5582,-4.5914,-4.6364,-4.6482,-4.6482,-4.6482,-4.6482,-4.6482,-4.6482,-4.6482,-4.6482,-4.6482,-4.6482,-4.6482,-4.6482,-4.6482,-4.6482,-4.6482,-4.6482,-4.6482,-4.6482,-4.6482,-4.6482,-4.6482,-4.6482,-4.6482,-4.6482,-4.6482,-4.6587,-4.7288,-4.7787,-4.838,-4.9178,-4.9277,-4.9488,-4.9585,-4.9712,-5.0002,-5.0351,-5.0888,-5.1338,-3.4823,-3.4823,-3.4823,-3.4859,-3.4968,-3.5376,-3.5605,-3.5725,-3.6122,-3.635,-3.6435,-3.6447,-3.6747,-3.7156,-3.7228,-3.7481,-3.7902,-3.7796,-3.7784,-3.769,-3.7548,-3.756,-3.7974,-3.7974,-3.7974,-3.7974,-3.7974,-3.7974,-3.7974,-3.7974,-3.7974,-3.7974,-3.7974,-3.7974,-3.7974,-3.7974,-3.7974,-3.7974,-3.7974,-3.7974,-3.7974,-3.7974,-3.8298,-3.8864,-3.8936,-3.92,-3.9729,-3.9741,-3.9645,-3.9477,-3.8647,-3.8479,-3.8996,-3.9453,-4.0428,-4.1426,-4.1251,-4.1043,-4.1106,-4.1547,-4.2061,-4.2289,-4.2759,-4.3068,-4.4227,-4.365,-4.3283,-4.3823,-4.3823,-4.4152,-4.4925,-4.5795,-4.6364,-4.6469,-4.6364,-4.6364,-4.6469,-4.6482,-4.6482,-4.6482,-4.6482,-4.6482,-4.6482,-4.6482,-4.6482,-4.6482,-4.6482,-4.6482,-4.6482,-4.6482,-4.6482,-4.6482,-4.6482,-4.6482,-4.6482,-4.6482,-4.6482,-4.6482,-4.6482,-4.6574,-4.6469,-4.6574,-4.6887,-4.7582,-4.828,-4.8881,-4.9375,-4.9473,-4.9585,-4.9683,-4.9828,-5.0061,-5.054,-5.1149,-5.1759,-3.4823,-3.4823,-3.4823,-3.5052,-3.5388,-3.5581,-3.5857,-3.6182,-3.6338,-3.6687,-3.6904,-3.6988,-3.7264,-3.7733,-3.7757,-3.7866,-3.795,-3.7974,-3.7974,-3.7974,-3.788,-3.788,-3.7974,-3.7974,-3.7974,-3.7974,-3.7974,-3.7974,-3.7974,-3.7974,-3.7974,-3.7974,-3.7974,-3.7974,-3.7974,-3.7974,-3.7974,-3.7974,-3.7974,-3.7974,-3.7974,-3.7974,-3.8455,-3.9308,-3.9381,-3.985,-4.0631,-4.0763,-4.0355,-3.9657,-3.9369,-3.9116,-3.9248,-4.0114,-4.1074,-4.1823,-4.222,-4.2099,-4.1907,-4.2767,-4.3377,-4.3457,-4.3919,-4.4846,-4.5713,-4.4928,-4.46,-4.4804,-4.4804,-4.4804,-4.5248,-4.5914,-4.6469,-4.6482,-4.6482,-4.6482,-4.6482,-4.6482,-4.6482,-4.6482,-4.6482,-4.6482,-4.6482,-4.6482,-4.6482,-4.6482,-4.6482,-4.6482,-4.6482,-4.6482,-4.6482,-4.6482,-4.6482,-4.6482,-4.6482,-4.6482,-4.6482,-4.6482,-4.6574,-4.6574,-4.6574,-4.6574,-4.7081,-4.7787,-4.8179,-4.8781,-4.9277,-4.9683,-4.9683,-4.9683,-4.9756,-4.9959,-5.0873,-5.1585,-5.2165,-3.4823,-3.4859,-3.5064,-3.534,-3.5665,-3.6074,-3.6459,-3.6747,-3.6988,-3.7228,-3.7493,-3.7529,-3.7697,-3.7974,-3.7974,-3.7974,-3.7974,-3.7974,-3.7974,-3.7974,-3.7974,-3.7974,-3.7974,-3.7974,-3.7974,-3.7974,-3.7974,-3.7974,-3.7974,-3.7974,-3.7974,-3.7974,-3.7974,-3.7974,-3.7974,-3.7974,-3.7974,-3.7974,-3.7974,-3.7974,-3.7974,-3.7974,-3.8407,-3.9164,-3.9477,-4.0102,-4.1016,-4.1172,-4.086,-4.0403,-4.027,-4.0162,-4.0054,-4.0691,-4.1638,-4.2515,-4.3054,-4.3214,-4.3323,-4.4079,-4.4437,-4.4496,-4.4912,-4.5475,-4.602,-4.5688,-4.514,-4.5582,-4.5368,-4.5368,-4.5702,-4.6245,-4.6469,-4.6482,-4.6482,-4.6482,-4.6482,-4.6482,-4.6482,-4.6482,-4.6482,-4.6482,-4.6482,-4.6482,-4.6482,-4.6482,-4.6482,-4.6482,-4.6482,-4.6482,-4.6482,-4.6482,-4.6482,-4.6482,-4.6482,-4.6482,-4.6678,-4.6678,-4.6977,-4.6977,-4.6769,-4.6769,-4.7274,-4.7889,-4.8179,-4.8581,-4.9277,-4.9683,-4.9683,-4.9683,-4.9683,-5.0119,-5.1019,-5.1643,-5.2281,-3.4823,-3.4883,-3.5388,-3.5653,-3.5857,-3.6747,-3.7156,-3.736,-3.7697,-3.789,-3.7926,-3.795,-3.7926,-3.7974,-3.7974,-3.7974,-3.7974,-3.7974,-3.7974,-3.7974,-3.7974,-3.7974,-3.7974,-3.7974,-3.7974,-3.7974,-3.7974,-3.7974,-3.7974,-3.7974,-3.7974,-3.7974,-3.7974,-3.7974,-3.7974,-3.7974,-3.7974,-3.7974,-3.7974,-3.7974,-3.7974,-3.7998,-3.831,-3.8876,-3.9537,-4.0126,-4.0836,-4.1124,-4.1124,-4.116,-4.1184,-4.1064,-4.11,-4.1275,-4.215,-4.3415,-4.3817,-4.4292,-4.4886,-4.5061,-4.5208,-4.514,-4.514,-4.5582,-4.6153,-4.5808,-4.5688,-4.6245,-4.5702,-4.5808,-4.6258,-4.6482,-4.6482,-4.6482,-4.6482,-4.6482,-4.6482,-4.6482,-4.6482,-4.6482,-4.6482,-4.6482,-4.6482,-4.6482,-4.6482,-4.6482,-4.6482,-4.6482,-4.6482,-4.6482,-4.6482,-4.6482,-4.6482,-4.6482,-4.6482,-4.6482,-4.6783,-4.7095,-4.7582,-4.7582,-4.7171,-4.7171,-4.7582,-4.799,-4.828,-4.8781,-4.9488,-4.9683,-4.9683,-4.9683,-4.9683,-5.0336,-5.1106,-5.1483,-5.2006,-3.4823,-3.4871,-3.54,-3.5857,-3.6314,-3.6928,-3.7433,-3.7805,-3.7926,-3.7974,-3.7974,-3.7974,-3.7974,-3.7974,-3.7974,-3.7974,-3.7974,-3.7974,-3.7974,-3.7974,-3.7974,-3.7974,-3.7974,-3.7974,-3.7974,-3.7974,-3.7974,-3.7974,-3.7974,-3.7974,-3.7974,-3.7974,-3.7974,-3.7974,-3.7974,-3.7974,-3.7974,-3.7974,-3.7974,-3.7974,-3.7974,-3.7986,-3.825,-3.8827,-3.9645,-4.0234,-4.0571,-4.0968,-4.1172,-4.1184,-4.1184,-4.1184,-4.1402,-4.2388,-4.3368,-4.392,-4.4479,-4.4925,-4.514,-4.5702,-4.5808,-4.5355,-4.5808,-4.6258,-4.6469,-4.6364,-4.6245,-4.6469,-4.6364,-4.6245,-4.6469,-4.6482,-4.6482,-4.6482,-4.6482,-4.6482,-4.6482,-4.6482,-4.6482,-4.6482,-4.6482,-4.6482,-4.6482,-4.6482,-4.6482,-4.6482,-4.6482,-4.6482,-4.6482,-4.6482,-4.6482,-4.6482,-4.6482,-4.6482,-4.6574,-4.6678,-4.7081,-4.7494,-4.8092,-4.838,-4.7976,-4.7582,-4.799,-4.8193,-4.8395,-4.8895,-4.9585,-4.9683,-4.9683,-4.9683,-4.9727,-5.0264,-5.0786,-5.1222,-5.1817,-3.4823,-3.4907,-3.5653,-3.6146,-3.6507,-3.7216,-3.7721,-3.7938,-3.7974,-3.7974,-3.7974,-3.7974,-3.7974,-3.7974,-3.7974,-3.7974,-3.7974,-3.7974,-3.7974,-3.7974,-3.7974,-3.7974,-3.7974,-3.7974,-3.7974,-3.7974,-3.7974,-3.7974,-3.7974,-3.7974,-3.7974,-3.7974,-3.7974,-3.7974,-3.7974,-3.7974,-3.7974,-3.7974,-3.7974,-3.7974,-3.7974,-3.7986,-3.825,-3.8731,-3.9393,-3.9838,-4.0391,-4.0643,-4.0932,-4.1112,-4.1184,-4.1184,-4.1516,-4.2824,-4.4042,-4.5033,-4.4925,-4.5368,-4.5808,-4.6139,-4.6245,-4.5808,-4.6245,-4.6364,-4.6482,-4.6482,-4.6482,-4.6482,-4.6482,-4.6482,-4.6482,-4.6482,-4.6482,-4.6482,-4.6482,-4.6482,-4.6482,-4.6482,-4.6482,-4.6482,-4.6482,-4.6482,-4.6482,-4.6482,-4.6482,-4.6482,-4.6482,-4.6482,-4.6482,-4.6482,-4.6482,-4.6482,-4.6482,-4.6574,-4.6678,-4.6977,-4.7466,-4.7976,-4.8581,-4.8881,-4.8881,-4.8595,-4.8308,-4.8495,-4.8695,-4.8994,-4.9488,-4.9585,-4.9683,-4.9683,-4.9799,-5.0104,-5.0438,-5.0888,-5.1599,-3.4823,-3.4907,-3.5881,-3.6278,-3.6459,-3.7372,-3.7817,-3.7841,-3.795,-3.7974,-3.7974,-3.7974,-3.7974,-3.7974,-3.7974,-3.7974,-3.7974,-3.7974,-3.7974,-3.7974,-3.7974,-3.7974,-3.7974,-3.7974,-3.7974,-3.7974,-3.7974,-3.7974,-3.7974,-3.7974,-3.7974,-3.7974,-3.7974,-3.7974,-3.7974,-3.7974,-3.7974,-3.7974,-3.7974,-3.7974,-3.7974,-3.7974,-3.8238,-3.8539,-3.8876,-3.9284,-3.9874,-4.0198,-4.0499,-4.1004,-4.1136,-4.1184,-4.1631,-4.3159,-4.4817,-4.6364,-4.5808,-4.5808,-4.6139,-4.6469,-4.6469,-4.6482,-4.6469,-4.6469,-4.6482,-4.6482,-4.6482,-4.6482,-4.6482,-4.6482,-4.6482,-4.6482,-4.6482,-4.6482,-4.6482,-4.6482,-4.6482,-4.6482,-4.6482,-4.6482,-4.6482,-4.6482,-4.6482,-4.6482,-4.6482,-4.6482,-4.6482,-4.6482,-4.6482,-4.6587,-4.6692,-4.6678,-4.6678,-4.6587,-4.6678,-4.7081,-4.7582,-4.8179,-4.8881,-4.9178,-4.9488,-4.9291,-4.8895,-4.8895,-4.9093,-4.9291,-4.9488,-4.9683,-4.9683,-4.9683,-4.9756,-4.993,-5.022,-5.0569,-5.1265,-3.4823,-3.4871,-3.5485,-3.5749,-3.5918,-3.6879,-3.7336,-3.7409,-3.7781,-3.7974,-3.7974,-3.7974,-3.7974,-3.7974,-3.7974,-3.7974,-3.7974,-3.7974,-3.7974,-3.7974,-3.7974,-3.7974,-3.7974,-3.7974,-3.7974,-3.7974,-3.7974,-3.7974,-3.7974,-3.7974,-3.7974,-3.7974,-3.7974,-3.7974,-3.7974,-3.7974,-3.7974,-3.7974,-3.7974,-3.7974,-3.7974,-3.7986,-3.8022,-3.8238,-3.8527,-3.8888,-3.914,-3.9549,-3.9982,-4.0499,-4.0944,-4.1136,-4.1732,-4.4042,-4.5702,-4.6258,-4.6245,-4.6258,-4.6469,-4.6482,-4.6482,-4.6482,-4.6482,-4.6482,-4.6482,-4.6482,-4.6482,-4.6482,-4.6482,-4.6482,-4.6482,-4.6482,-4.6482,-4.6482,-4.6482,-4.6482,-4.6482,-4.6482,-4.6482,-4.6482,-4.6482,-4.6482,-4.6482,-4.6482,-4.6482,-4.6482,-4.6482,-4.6482,-4.6482,-4.6678,-4.6991,-4.6887,-4.6873,-4.6783,-4.6574,-4.7081,-4.7685,-4.8179,-4.8781,-4.9291,-4.9488,-4.9585,-4.9585,-4.9389,-4.9291,-4.9291,-4.9488,-4.9683,-4.9683,-4.9683,-4.9698,-4.9712,-4.9973,-5.0264,-5.0583,-3.4823,-3.4871,-3.54,-3.5617,-3.5749,-3.6447,-3.694,-3.7216,-3.7481,-3.7733,-3.7914,-3.7974,-3.7974,-3.7974,-3.7974,-3.7974,-3.7974,-3.7974,-3.7974,-3.7974,-3.7974,-3.7974,-3.7974,-3.7974,-3.7974,-3.7974,-3.7974,-3.7974,-3.7974,-3.7974,-3.7974,-3.7974,-3.7974,-3.7974,-3.7974,-3.7974,-3.7974,-3.7974,-3.7974,-3.7974,-3.7974,-3.7974,-3.7974,-3.807,-3.8238,-3.8503,-3.8839,-3.9008,-3.9453,-4.0006,-4.0739,-4.1088,-4.196,-4.3492,-4.5582,-4.6258,-4.6482,-4.6482,-4.6482,-4.6482,-4.6482,-4.6482,-4.6482,-4.6482,-4.6482,-4.6482,-4.6482,-4.6482,-4.6482,-4.6482,-4.6482,-4.6482,-4.6482,-4.6482,-4.6482,-4.6482,-4.6482,-4.6482,-4.6482,-4.6482,-4.6482,-4.6482,-4.6482,-4.6482,-4.6482,-4.6482,-4.6482,-4.6482,-4.6482,-4.6887,-4.7301,-4.7391,-4.7377,-4.7274,-4.7184,-4.7494,-4.7903,-4.8294,-4.8781,-4.9192,-4.9488,-4.9683,-4.9683,-4.9585,-4.9488,-4.9389,-4.9488,-4.9683,-4.9683,-4.9683,-4.9698,-4.9712,-4.9756,-4.9944,-5.0264,-3.4823,-3.4871,-3.528,-3.5461,-3.5545,-3.6014,-3.6471,-3.6843,-3.6988,-3.7324,-3.7781,-3.7817,-3.7866,-3.7962,-3.7974,-3.7974,-3.7974,-3.7974,-3.7974,-3.7974,-3.7974,-3.7974,-3.7974,-3.7974,-3.7974,-3.7974,-3.7974,-3.7974,-3.7974,-3.7974,-3.7974,-3.7974,-3.7974,-3.7974,-3.7974,-3.7974,-3.7974,-3.7974,-3.7974,-3.7974,-3.7974,-3.7974,-3.7974,-3.7974,-3.7974,-3.8214,-3.8539,-3.8623,-3.8936,-3.9429,-4.0042,-4.0655,-4.1419,-4.2837,-4.4587,-4.6139,-4.6482,-4.6482,-4.6482,-4.6482,-4.6482,-4.6482,-4.6482,-4.6482,-4.6482,-4.6482,-4.6482,-4.6482,-4.6482,-4.6482,-4.6482,-4.6482,-4.6482,-4.6482,-4.6482,-4.6482,-4.6482,-4.6482,-4.6482,-4.6482,-4.6482,-4.6482,-4.6587,-4.6482,-4.6482,-4.6482,-4.6482,-4.6482,-4.6574,-4.7288,-4.7582,-4.7787,-4.7875,-4.7976,-4.7976,-4.799,-4.8294,-4.8595,-4.8895,-4.9291,-4.9488,-4.9683,-4.9683,-4.9683,-4.9683,-4.9585,-4.9683,-4.9683,-4.9683,-4.9683,-4.9683,-4.9698,-4.9727,-4.9756,-4.9944,-3.4823,-3.4835,-3.4895,-3.4931,-3.5028,-3.5497,-3.5749,-3.5893,-3.6326,-3.6783,-3.7288,-3.7336,-3.7577,-3.789,-3.7974,-3.7974,-3.7974,-3.7974,-3.7974,-3.7974,-3.7974,-3.7974,-3.7974,-3.7974,-3.7974,-3.7974,-3.7974,-3.7974,-3.7974,-3.7974,-3.7974,-3.7974,-3.7974,-3.7974,-3.7974,-3.7974,-3.7974,-3.7974,-3.7974,-3.7974,-3.7974,-3.7974,-3.7974,-3.7974,-3.7986,-3.8034,-3.8166,-3.8202,-3.8419,-3.89,-3.8575,-3.9381,-4.108,-4.2837,-4.4587,-4.5914,-4.6482,-4.6482,-4.6482,-4.6482,-4.6482,-4.6482,-4.6482,-4.6482,-4.6482,-4.6587,-4.6587,-4.6482,-4.6587,-4.6469,-4.6469,-4.6482,-4.6482,-4.6482,-4.6482,-4.6482,-4.6482,-4.6482,-4.6482,-4.6574,-4.6574,-4.6574,-4.6587,-4.6587,-4.6482,-4.6482,-4.6482,-4.6482,-4.6783,-4.7391,-4.8193,-4.838,-4.8481,-4.8467,-4.8567,-4.8681,-4.8795,-4.9009,-4.9192,-4.9389,-4.9488,-4.9683,-4.9683,-4.9683,-4.9683,-4.9683,-4.9683,-4.9683,-4.9683,-4.9683,-4.9683,-4.9683,-4.9698,-4.9712,-4.9741,-3.4213,-3.4823,-3.4823,-3.4823,-3.4847,-3.5088,-3.534,-3.5617,-3.5857,-3.6254,-3.6747,-3.7084,-3.7481,-3.7878,-3.7974,-3.7974,-3.7974,-3.7974,-3.7974,-3.7974,-3.7974,-3.7974,-3.7974,-3.7974,-3.7974,-3.7974,-3.7974,-3.7974,-3.7974,-3.7974,-3.7974,-3.7974,-3.7974,-3.7974,-3.7974,-3.7974,-3.7974,-3.7974,-3.7974,-3.7974,-3.7974,-3.7974,-3.7974,-3.7974,-3.7974,-3.7974,-3.7974,-3.7986,-3.8376,-3.8725,-3.8376,-3.8683,-4.0476,-4.2411,-4.4574,-4.6245,-4.6482,-4.6482,-4.6482,-4.6482,-4.6482,-4.6482,-4.6482,-4.6482,-4.6587,-4.6783,-4.6783,-4.6482,-4.6783,-4.6783,-4.6574,-4.6482,-4.6482,-4.6482,-4.6482,-4.6482,-4.6482,-4.6482,-4.6574,-4.6574,-4.6769,-4.6783,-4.6783,-4.6783,-4.6783,-4.6678,-4.6678,-4.6587,-4.6887,-4.748,-4.8395,-4.9192,-4.9178,-4.9178,-4.9164,-4.9277,-4.9291,-4.9389,-4.9389,-4.9585,-4.9585,-4.9683,-4.9683,-4.9683,-4.9683,-4.9683,-4.9683,-4.9683,-4.9683,-4.9683,-4.9683,-4.9683,-4.9683,-4.9698,-4.9712,-3.3511,-3.4421,-3.4738,-3.4823,-3.4823,-3.4823,-3.5052,-3.5388,-3.5412,-3.5713,-3.629,-3.6879,-3.7421,-3.7757,-3.789,-3.7974,-3.7974,-3.7974,-3.7974,-3.7974,-3.7974,-3.7974,-3.7974,-3.7974,-3.7974,-3.7974,-3.7974,-3.7974,-3.7974,-3.7974,-3.7974,-3.7974,-3.7974,-3.7974,-3.7974,-3.7974,-3.7974,-3.7974,-3.7974,-3.7974,-3.7974,-3.7974,-3.7974,-3.7974,-3.7974,-3.7974,-3.7974,-3.7974,-3.8409,-3.8933,-3.9037,-3.9153,-3.9637,-4.2023,-4.4483,-4.602,-4.6482,-4.6482,-4.6482,-4.6482,-4.6482,-4.6482,-4.6482,-4.6482,-4.6587,-4.6991,-4.7095,-4.6587,-4.7184,-4.7081,-4.6678,-4.6587,-4.6678,-4.6587,-4.6482,-4.6482,-4.6482,-4.6469,-4.6574,-4.6574,-4.6769,-4.7095,-4.7095,-4.7081,-4.6977,-4.6977,-4.6887,-4.6678,-4.7081,-4.7685,-4.8395,-4.9291,-4.9488,-4.9473,-4.9473,-4.9571,-4.9683,-4.9683,-4.9683,-4.9683,-4.9683,-4.9683,-4.9683,-4.9683,-4.9683,-4.9683,-4.9683,-4.9683,-4.9683,-4.9683,-4.9683,-4.9683,-4.9683,-4.9683,-4.9683,-3.2588,-3.34,-3.4409,-3.4811,-3.4823,-3.4823,-3.4859,-3.4956,-3.4919,-3.5232,-3.5845,-3.6639,-3.7108,-3.7372,-3.7709,-3.7914,-3.7974,-3.7974,-3.7974,-3.7974,-3.7974,-3.7974,-3.7974,-3.7974,-3.7974,-3.7974,-3.7974,-3.7974,-3.7974,-3.7974,-3.7974,-3.7974,-3.7974,-3.7974,-3.7974,-3.7974,-3.7974,-3.7974,-3.7974,-3.7974,-3.7974,-3.7974,-3.7974,-3.7974,-3.7974,-3.7974,-3.7974,-3.7974,-3.8489,-3.9312,-3.9725,-3.9725,-3.9972,-4.2042,-4.4467,-4.6058,-4.636,-4.6374,-4.6442,-4.6482,-4.6482,-4.6482,-4.6482,-4.6482,-4.6587,-4.6991,-4.6991,-4.6783,-4.748,-4.7466,-4.7081,-4.6887,-4.6991,-4.6873,-4.6873,-4.6678,-4.6678,-4.6469,-4.6574,-4.656,-4.6873,-4.7198,-4.7699,-4.7582,-4.7582,-4.748,-4.7391,-4.7288,-4.7494,-4.799,-4.8395,-4.8994,-4.9473,-4.9571,-4.9683,-4.9683,-4.9683,-4.9683,-4.9683,-4.9683,-4.9683,-4.9683,-4.9683,-4.9683,-4.9683,-4.9683,-4.9683,-4.9683,-4.9683,-4.9683,-4.9683,-4.9683,-4.9683,-4.9683,-4.9683,-3.2454,-3.3145,-3.4138,-3.4631,-3.4823,-3.503,-3.4932,-3.4823,-3.4823,-3.5124,-3.5629,-3.6062,-3.6591,-3.7096,-3.736,-3.7697,-3.7938,-3.7974,-3.7974,-3.7974,-3.7974,-3.7974,-3.7974,-3.7974,-3.7974,-3.7974,-3.7974,-3.7974,-3.7974,-3.7974,-3.7974,-3.7974,-3.7974,-3.7974,-3.7974,-3.7974,-3.7974,-3.7974,-3.7974,-3.7974,-3.7974,-3.7974,-3.7974,-3.7974,-3.7974,-3.7974,-3.7974,-3.7974,-3.8792,-3.9609,-4.0224,-4.0427,-4.0769,-4.2588,-4.4183,-4.5958,-4.6048,-4.6157,-4.6387,-4.6455,-4.6482,-4.6482,-4.6482,-4.6482,-4.6574,-4.7288,-4.7391,-4.748,-4.799,-4.8078,-4.7671,-4.7685,-4.7685,-4.748,-4.7171,-4.6977,-4.6769,-4.6678,-4.6469,-4.6574,-4.6977,-4.7391,-4.7889,-4.828,-4.8179,-4.8092,-4.799,-4.7889,-4.799,-4.8294,-4.8695,-4.8994,-4.9473,-4.9669,-4.9683,-4.9683,-4.9683,-4.9683,-4.9683,-4.9683,-4.9683,-4.9683,-4.9683,-4.9683,-4.9683,-4.9683,-4.9683,-4.9683,-4.9683,-4.9683,-4.9683,-4.9683,-4.9683,-4.9683,-4.9683,-3.1903,-3.2321,-3.3482,-3.4293,-3.4787,-3.5126,-3.5114,-3.4823,-3.492,-3.5004,-3.54,-3.5557,-3.5978,-3.6627,-3.7132,-3.736,-3.7697,-3.7866,-3.795,-3.7974,-3.7974,-3.7974,-3.7974,-3.7974,-3.7974,-3.7974,-3.7974,-3.7974,-3.7974,-3.7974,-3.7974,-3.7974,-3.7974,-3.7974,-3.7974,-3.7974,-3.7974,-3.7974,-3.7974,-3.7974,-3.7974,-3.7974,-3.7974,-3.7974,-3.7974,-3.7974,-3.7974,-3.808,-3.8699,-3.9622,-4.0528,-4.1458,-4.2355,-4.328,-4.404,-4.4881,-4.56,-4.588,-4.6297,-4.6492,-4.6455,-4.6482,-4.6482,-4.6482,-4.6783,-4.7377,-4.7466,-4.7184,-4.8092,-4.8795,-4.8179,-4.7976,-4.8078,-4.7875,-4.7391,-4.7095,-4.6991,-4.6783,-4.6678,-4.6574,-4.6991,-4.7494,-4.8092,-4.8581,-4.8681,-4.8581,-4.8495,-4.8294,-4.8179,-4.8495,-4.8795,-4.9192,-4.9488,-4.9585,-4.9683,-4.9683,-4.9683,-4.9683,-4.9683,-4.9683,-4.9683,-4.9683,-4.9683,-4.9683,-4.9683,-4.9683,-4.9683,-4.9683,-4.9683,-4.9683,-4.9683,-4.9683,-4.9683,-4.9683,-4.9683,-3.1078,-3.0715,-3.2348,-3.3624,-3.4679,-3.5307,-3.5307,-3.492,-3.503,-3.5066,-3.498,-3.5352,-3.5605,-3.5954,-3.6639,-3.7175,-3.7489,-3.7826,-3.8031,-3.8068,-3.7974,-3.7974,-3.7974,-3.7974,-3.7974,-3.7974,-3.7974,-3.7974,-3.7974,-3.7974,-3.7974,-3.7974,-3.808,-3.808,-3.7974,-3.7974,-3.7974,-3.7974,-3.7974,-3.7974,-3.7974,-3.7974,-3.7974,-3.7974,-3.7974,-3.7974,-3.808,-3.808,-3.8712,-3.9634,-4.044,-4.1458,-4.2706,-4.3443,-4.3674,-4.3375,-4.4773,-4.5704,-4.633,-4.6455,-4.6624,-4.6678,-4.6769,-4.6678,-4.6678,-4.7067,-4.7363,-4.7081,-4.828,-4.8681,-4.8395,-4.8193,-4.838,-4.838,-4.7889,-4.7596,-4.7494,-4.7184,-4.7081,-4.6783,-4.7095,-4.7494,-4.8193,-4.8781,-4.9093,-4.9093,-4.8895,-4.8781,-4.8581,-4.8781,-4.9192,-4.9291,-4.9585,-4.9683,-4.9683,-4.9683,-4.9683,-4.9683,-4.9683,-4.9683,-4.9683,-4.9683,-4.9683,-4.9683,-4.9683,-4.9683,-4.9683,-4.9683,-4.9683,-4.9683,-4.9683,-4.9683,-4.9683,-4.9683,-4.9683,-3.0963,-3.0699,-3.1832,-3.2709,-3.3399,-3.4756,-3.5276,-3.5271,-3.5223,-3.503,-3.4847,-3.5052,-3.5328,-3.5677,-3.619,-3.6747,-3.7351,-3.76,-3.7867,-3.8173,-3.808,-3.7974,-3.7974,-3.7986,-3.7974,-3.7974,-3.7974,-3.7974,-3.7974,-3.7974,-3.7974,-3.7974,-3.8092,-3.8198,-3.808,-3.7974,-3.7974,-3.7974,-3.7974,-3.7974,-3.7974,-3.7974,-3.7974,-3.7974,-3.7974,-3.8185,-3.8291,-3.8396,-3.8921,-3.984,-4.0642,-4.1045,-4.2373,-4.3223,-4.3185,-4.3023,-4.4054,-4.5062,-4.6109,-4.6696,-4.726,-4.726,-4.7171,-4.7081,-4.7081,-4.726,-4.7274,-4.7288,-4.8193,-4.8495,-4.8595,-4.8994,-4.9178,-4.9178,-4.8881,-4.8595,-4.8294,-4.7889,-4.7582,-4.7288,-4.7301,-4.7582,-4.8078,-4.8695,-4.9093,-4.9389,-4.9291,-4.9291,-4.9178,-4.9277,-4.9488,-4.9585,-4.9669,-4.9683,-4.9683,-4.9683,-4.9683,-4.9683,-4.9683,-4.9683,-4.9683,-4.9683,-4.9683,-4.9683,-4.9683,-4.9698,-4.9886,-4.9988,-4.9756,-4.9683,-4.9799,-4.9756,-4.9683,-4.9683,-4.9683,-3.0717,-3.0479,-3.1122,-3.1804,-3.2626,-3.4293,-3.5208,-3.5408,-3.533,-3.5223,-3.503,-3.4945,-3.5101,-3.5415,-3.5803,-3.6244,-3.7095,-3.7612,-3.7795,-3.827,-3.836,-3.8279,-3.8198,-3.8092,-3.808,-3.808,-3.7974,-3.7974,-3.7974,-3.7974,-3.7974,-3.808,-3.8303,-3.8315,-3.8198,-3.8198,-3.8303,-3.8198,-3.8198,-3.8092,-3.808,-3.7974,-3.7974,-3.808,-3.8291,-3.8607,-3.8804,-3.9117,-3.9428,-4.0236,-4.0541,-4.0528,-4.1756,-4.2471,-4.2679,-4.2939,-4.3778,-4.4755,-4.5779,-4.7189,-4.7542,-4.7913,-4.7749,-4.7582,-4.7494,-4.7274,-4.7274,-4.7391,-4.8106,-4.8395,-4.8681,-4.9178,-4.9585,-4.9585,-4.9291,-4.8994,-4.8795,-4.838,-4.7976,-4.7699,-4.7405,-4.7685,-4.7875,-4.8495,-4.9009,-4.9291,-4.9585,-4.9585,-4.9683,-4.9683,-4.9683,-4.9683,-4.9683,-4.9683,-4.9683,-4.9683,-4.9683,-4.9683,-4.977,-4.9872,-4.9683,-4.9683,-4.9683,-4.977,-4.9959,-5.0148,-5.0307,-5.0322,-5.0104,-5.0046,-5.0133,-5.0002,-4.9756,-4.9683,-4.9683,-3.0091,-2.9886,-3.017,-3.1003,-3.2237,-3.3897,-3.4832,-3.5208,-3.5445,-3.5367,-3.5174,-3.5174,-3.5187,-3.5053,-3.566,-3.6038,-3.6368,-3.7388,-3.7706,-3.8025,-3.824,-3.8307,-3.8336,-3.8372,-3.8291,-3.8198,-3.8092,-3.8185,-3.808,-3.808,-3.808,-3.808,-3.8303,-3.8421,-3.8526,-3.8736,-3.8631,-3.8526,-3.8421,-3.8303,-3.8198,-3.8092,-3.8092,-3.8291,-3.8699,-3.9196,-3.9494,-3.9802,-4.0109,-4.0528,-4.0554,-4.044,-4.0844,-4.1558,-4.2275,-4.3133,-4.4028,-4.4745,-4.5664,-4.6884,-4.7573,-4.7785,-4.7957,-4.8068,-4.799,-4.748,-4.7391,-4.748,-4.799,-4.8078,-4.8366,-4.898,-4.9683,-4.9488,-4.9291,-4.9093,-4.8994,-4.8695,-4.8395,-4.799,-4.7699,-4.7699,-4.7787,-4.8193,-4.881,-4.8895,-4.9178,-4.9389,-4.9488,-4.9669,-4.9683,-4.9683,-4.9683,-4.9683,-4.9712,-4.9799,-4.9973,-5.0061,-5.0162,-5.0235,-4.9988,-4.9959,-5.022,-5.0423,-5.0481,-5.0627,-5.0844,-5.0743,-5.0481,-5.0438,-5.0322,-5.0032,-4.9727,-4.9698,-4.9683,-3.0531,-3.108,-3.1181,-3.1431,-3.1913,-3.3442,-3.427,-3.4624,-3.509,-3.5137,-3.4961,-3.5353,-3.5355,-3.544,-3.5793,-3.6063,-3.6407,-3.6862,-3.7208,-3.7614,-3.8107,-3.8086,-3.8282,-3.8387,-3.8546,-3.8607,-3.8502,-3.8514,-3.8526,-3.8409,-3.8303,-3.8303,-3.8514,-3.8736,-3.905,-3.9258,-3.905,-3.8841,-3.8736,-3.8631,-3.8526,-3.8514,-3.8409,-3.8502,-3.9104,-3.9609,-3.9994,-4.0692,-4.1206,-4.1927,-4.2333,-4.2319,-4.1159,-4.2639,-4.394,-4.3915,-4.4359,-4.4761,-4.544,-4.6222,-4.6866,-4.7281,-4.762,-4.8236,-4.824,-4.8137,-4.7731,-4.7889,-4.8193,-4.838,-4.8581,-4.9178,-4.9585,-4.9585,-4.9389,-4.9389,-4.9291,-4.9192,-4.8895,-4.8495,-4.8092,-4.7889,-4.7889,-4.8092,-4.8595,-4.8581,-4.871,-4.9165,-4.9418,-4.9614,-4.9669,-4.9683,-4.9828,-4.9872,-4.9944,-5.0032,-5.0264,-5.0452,-5.0496,-5.0641,-5.0772,-5.0815,-5.0989,-5.1033,-5.1004,-5.1178,-5.1425,-5.1222,-5.0888,-5.0481,-5.0293,-4.9988,-4.9741,-4.9712,-4.9683,-3.0531,-3.0991,-3.108,-3.108,-3.1217,-3.2418,-3.3229,-3.3931,-3.4853,-3.5096,-3.4656,-3.5137,-3.5408,-3.5276,-3.5515,-3.587,-3.6294,-3.6798,-3.7169,-3.7345,-3.7754,-3.7839,-3.8111,-3.8329,-3.8423,-3.8558,-3.873,-3.8736,-3.8736,-3.8736,-3.8514,-3.8619,-3.8841,-3.905,-3.9258,-3.9478,-3.9478,-3.927,-3.9062,-3.8945,-3.8841,-3.8841,-3.8631,-3.8724,-3.9324,-3.9917,-4.0591,-4.1591,-4.2208,-4.3012,-4.3573,-4.2902,-4.2222,-4.379,-4.4597,-4.456,-4.438,-4.4604,-4.4948,-4.5493,-4.6034,-4.6586,-4.7123,-4.7765,-4.8316,-4.8452,-4.8397,-4.8581,-4.8695,-4.8895,-4.9093,-4.9291,-4.9488,-4.9683,-4.9683,-4.9683,-4.9683,-4.9683,-4.9389,-4.8895,-4.8581,-4.828,-4.828,-4.838,-4.8523,-4.8781,-4.928,-4.9809,-4.9849,-4.973,-4.9756,-4.9683,-4.9915,-5.0104,-5.0206,-5.0322,-5.0467,-5.0598,-5.0583,-5.0801,-5.1251,-5.1512,-5.1527,-5.1497,-5.1454,-5.1744,-5.2122,-5.1643,-5.1265,-5.0917,-5.0598,-5.0336,-5.0032,-4.9698,-4.9683,-3.026,-3.0351,-3.0362,-3.0351,-3.0351,-3.1294,-3.2225,-3.3145,-3.4598,-3.4932,-3.445,-3.4947,-3.5164,-3.5145,-3.5431,-3.5705,-3.6127,-3.6668,-3.6902,-3.7161,-3.759,-3.7742,-3.7717,-3.8065,-3.8225,-3.8255,-3.8526,-3.8901,-3.8828,-3.8841,-3.8841,-3.8841,-3.905,-3.9258,-3.9374,-3.9581,-3.9581,-3.9581,-3.9374,-3.9258,-3.905,-3.8958,-3.8853,-3.9037,-3.975,-4.0655,-4.169,-4.239,-4.2806,-4.3464,-4.3748,-4.3273,-4.3857,-4.4634,-4.4954,-4.489,-4.4682,-4.4617,-4.4823,-4.5162,-4.552,-4.6058,-4.6604,-4.7145,-4.7716,-4.8606,-4.8689,-4.8735,-4.8819,-4.902,-4.9274,-4.9444,-4.9683,-4.9683,-4.9683,-4.9683,-4.9683,-4.9683,-4.9585,-4.9192,-4.9079,-4.8781,-4.8481,-4.8595,-4.8495,-4.8924,-4.9366,-4.9981,-5.0208,-4.989,-5.0148,-5.0046,-5.0351,-5.0641,-5.0627,-5.0714,-5.067,-5.0714,-5.0902,-5.128,-5.1962,-5.2064,-5.202,-5.2078,-5.218,-5.2528,-5.2731,-5.2122,-5.1686,-5.1628,-5.128,-5.0844,-5.0409,-4.9999,-4.9781,-3.0621,-3.1258,-3.127,-3.089,-3.0351,-3.1169,-3.1713,-3.215,-3.3632,-3.4236,-3.4197,-3.4948,-3.5319,-3.5244,-3.5569,-3.5868,-3.6061,-3.6338,-3.6463,-3.6676,-3.7064,-3.7374,-3.739,-3.7729,-3.7967,-3.8191,-3.8541,-3.8951,-3.9005,-3.9104,-3.9037,-3.8841,-3.9154,-3.9374,-3.9374,-3.9581,-3.9685,-3.9685,-3.9581,-3.9478,-3.9374,-3.9374,-3.9478,-3.9465,-4.0083,-4.0756,-4.1815,-4.2695,-4.3573,-4.4634,-4.511,-4.511,-4.5307,-4.5685,-4.5685,-4.5504,-4.5138,-4.4954,-4.4997,-4.5032,-4.5331,-4.5502,-4.5916,-4.6466,-4.7108,-4.8145,-4.8696,-4.8702,-4.8794,-4.9039,-4.9368,-4.9567,-4.9683,-4.9683,-4.9683,-4.9683,-4.9683,-4.9683,-4.9585,-4.9585,-4.9488,-4.9277,-4.8881,-4.8695,-4.8595,-4.8724,-4.8952,-4.9323,-4.9752,-4.9837,-5.096,-5.1004,-5.1135,-5.1309,-5.1193,-5.1251,-5.1294,-5.1657,-5.2006,-5.2354,-5.2659,-5.2702,-5.2717,-5.2833,-5.2992,-5.3123,-5.292,-5.2267,-5.1962,-5.1947,-5.1715,-5.1149,-5.0865,-5.0437,-5.0106,-3.0079,-3.089,-3.0979,-3.0441,-2.9806,-3.0543,-3.1169,-3.1773,-3.2946,-3.3545,-3.3633,-3.4387,-3.4826,-3.4813,-3.5152,-3.5742,-3.5731,-3.59,-3.6113,-3.6363,-3.6463,-3.6759,-3.7048,-3.7349,-3.7563,-3.7789,-3.8241,-3.863,-3.9066,-3.9128,-3.9025,-3.908,-3.9349,-3.9453,-3.9465,-3.9581,-3.9697,-3.9697,-3.9697,-3.9697,-3.9697,-3.9697,-3.9697,-3.9685,-3.9981,-4.0668,-4.1332,-4.2306,-4.3273,-4.4527,-4.5307,-4.5685,-4.5685,-4.588,-4.588,-4.579,-4.5595,-4.5398,-4.5398,-4.5307,-4.5216,-4.5504,-4.5321,-4.5921,-4.6301,-4.7158,-4.7695,-4.7775,-4.8412,-4.8716,-4.9049,-4.932,-4.9582,-4.9683,-4.9683,-4.9683,-4.9683,-4.9683,-4.9683,-4.9683,-4.9585,-4.9571,-4.9277,-4.9291,-4.9235,-4.9408,-4.9493,-4.9925,-5.0112,-5.0226,-5.1222,-5.1802,-5.1817,-5.1701,-5.1483,-5.1715,-5.2049,-5.2484,-5.2891,-5.2949,-5.2992,-5.3268,-5.3442,-5.3326,-5.3254,-5.3297,-5.2963,-5.2557,-5.2064,-5.1904,-5.1686,-5.1381,-5.1084,-5.0822,-5.0669,-2.9349,-3.0181,-3.026,-2.9624,-2.9002,-2.9988,-3.08,-3.1536,-3.2636,-3.3093,-3.3169,-3.3633,-3.3784,-3.3897,-3.4048,-3.4713,-3.519,-3.5391,-3.5742,-3.5918,-3.6044,-3.6144,-3.637,-3.6697,-3.6973,-3.7387,-3.7864,-3.8404,-3.8956,-3.9007,-3.9182,-3.9521,-3.9584,-3.9572,-3.9609,-3.9685,-3.9697,-3.9697,-3.9697,-3.9697,-3.9697,-3.9697,-3.9697,-3.9697,-3.98,-4.0275,-4.0831,-4.1505,-4.239,-4.3843,-4.5307,-4.5685,-4.588,-4.588,-4.588,-4.588,-4.588,-4.579,-4.579,-4.5518,-4.5609,-4.5609,-4.5321,-4.5427,-4.5834,-4.62,-4.6737,-4.7172,-4.7796,-4.8377,-4.8725,-4.9074,-4.9349,-4.9669,-4.9669,-4.9683,-4.9683,-4.9683,-4.9683,-4.9683,-4.9683,-4.9669,-4.9683,-4.9683,-4.9843,-5.0032,-5.0467,-5.102,-5.1425,-5.1411,-5.1744,-5.2136,-5.218,-5.202,-5.1947,-5.2194,-5.2659,-5.2731,-5.3022,-5.3167,-5.3297,-5.3428,-5.3515,-5.35,-5.3457,-5.3428,-5.3442,-5.3196,-5.2673,-5.2107,-5.1701,-5.1468,-5.1233,-5.1116,-5.1261,-2.9268,-3.017,-3.017,-2.9624,-2.9073,-3.0531,-3.0991,-3.08,-3.2351,-3.3081,-3.3106,-3.3181,-3.3432,-3.3922,-3.4399,-3.4813,-3.4889,-3.4964,-3.4901,-3.5014,-3.5378,-3.5504,-3.5705,-3.6094,-3.6471,-3.6973,-3.7563,-3.8266,-3.8479,-3.868,-3.8894,-3.9019,-3.9032,-3.9057,-3.9107,-3.9295,-3.9609,-3.9609,-3.9672,-3.9697,-3.9697,-3.9697,-3.9697,-3.9697,-3.9697,-4.0364,-4.0945,-4.1132,-4.2474,-4.3937,-4.5293,-4.5776,-4.588,-4.588,-4.588,-4.588,-4.588,-4.588,-4.579,-4.57,-4.579,-4.579,-4.5609,-4.57,-4.5895,-4.5909,-4.6258,-4.6316,-4.6954,-4.7724,-4.8159,-4.858,-4.8914,-4.9407,-4.9611,-4.9654,-4.9683,-4.9683,-4.9683,-4.9683,-4.9683,-4.9683,-4.9683,-4.977,-4.9777,-5.0121,-5.0469,-5.1092,-5.1453,-5.1859,-5.2397,-5.2484,-5.2572,-5.2876,-5.3051,-5.2934,-5.3181,-5.3167,-5.3167,-5.3297,-5.3413,-5.3457,-5.3515,-5.3515,-5.3515,-5.3486,-5.35,-5.3515,-5.3283,-5.2702,-5.1991,-5.1527,-5.132,-5.1405,-5.1682]}]]